<?xml version="1.0" encoding="UTF-8" standalone="no" ?>
<gpx xmlns="http://www.topografix.com/GPX/1/1" xmlns:xsi="http://www.w3.org/2001/XMLSchema-instance" xsi:schemaLocation="http://www.topografix.com/GPX/1/1 http://www.topografix.com/GPX/1/1/gpx.xsd" version="1.1" creator="VisuGPX - https://www.visugpx.com">
  <metadata>
    <name>Verrieres Meudon</name>
    <desc><![CDATA[Depart par la passerelle, tour de verrières puis loup pendu et homme mort, puis tour à meudon]]></desc>
  </metadata>
  <trk>
    <name><![CDATA[Verrieres Meudon_1]]></name>
    <trkseg>
      <trkpt lat="48.8068" lon="2.17351">
        <ele>120</ele>
        <time>2012-03-03T08:17:40Z</time>
      </trkpt>
      <trkpt lat="48.80688" lon="2.17344">
        <ele>121</ele>
        <time>2012-03-03T08:17:42Z</time>
      </trkpt>
      <trkpt lat="48.80691" lon="2.17347">
        <ele>121</ele>
        <time>2012-03-03T08:17:43Z</time>
      </trkpt>
      <trkpt lat="48.80686" lon="2.17368">
        <ele>121</ele>
        <time>2012-03-03T08:17:47Z</time>
      </trkpt>
      <trkpt lat="48.80685" lon="2.1739">
        <ele>122</ele>
        <time>2012-03-03T08:17:50Z</time>
      </trkpt>
      <trkpt lat="48.80681" lon="2.17421">
        <ele>124</ele>
        <time>2012-03-03T08:17:54Z</time>
      </trkpt>
      <trkpt lat="48.80673" lon="2.17474">
        <ele>126</ele>
        <time>2012-03-03T08:18:01Z</time>
      </trkpt>
      <trkpt lat="48.80666" lon="2.17519">
        <ele>124</ele>
        <time>2012-03-03T08:18:07Z</time>
      </trkpt>
      <trkpt lat="48.80656" lon="2.17606">
        <ele>122</ele>
        <time>2012-03-03T08:18:17Z</time>
      </trkpt>
      <trkpt lat="48.80649" lon="2.17667">
        <ele>122</ele>
        <time>2012-03-03T08:18:23Z</time>
      </trkpt>
      <trkpt lat="48.80647" lon="2.17733">
        <ele>120</ele>
        <time>2012-03-03T08:18:29Z</time>
      </trkpt>
      <trkpt lat="48.80647" lon="2.17742">
        <ele>120</ele>
        <time>2012-03-03T08:18:30Z</time>
      </trkpt>
      <trkpt lat="48.80637" lon="2.17758">
        <ele>118</ele>
        <time>2012-03-03T08:18:33Z</time>
      </trkpt>
      <trkpt lat="48.80632" lon="2.17761">
        <ele>118</ele>
        <time>2012-03-03T08:18:34Z</time>
      </trkpt>
      <trkpt lat="48.80582" lon="2.1778">
        <ele>110</ele>
        <time>2012-03-03T08:18:42Z</time>
      </trkpt>
      <trkpt lat="48.80571" lon="2.17804">
        <ele>110</ele>
        <time>2012-03-03T08:18:46Z</time>
      </trkpt>
      <trkpt lat="48.80573" lon="2.17813">
        <ele>110</ele>
        <time>2012-03-03T08:18:47Z</time>
      </trkpt>
      <trkpt lat="48.80587" lon="2.17863">
        <ele>113</ele>
        <time>2012-03-03T08:18:52Z</time>
      </trkpt>
      <trkpt lat="48.80603" lon="2.17923">
        <ele>112</ele>
        <time>2012-03-03T08:18:58Z</time>
      </trkpt>
      <trkpt lat="48.80605" lon="2.17969">
        <ele>112</ele>
        <time>2012-03-03T08:19:02Z</time>
      </trkpt>
      <trkpt lat="48.80599" lon="2.17991">
        <ele>111</ele>
        <time>2012-03-03T08:19:04Z</time>
      </trkpt>
      <trkpt lat="48.80577" lon="2.1807">
        <ele>104</ele>
        <time>2012-03-03T08:19:10Z</time>
      </trkpt>
      <trkpt lat="48.80552" lon="2.1815">
        <ele>102</ele>
        <time>2012-03-03T08:19:16Z</time>
      </trkpt>
      <trkpt lat="48.8054" lon="2.18185">
        <ele>100</ele>
        <time>2012-03-03T08:19:19Z</time>
      </trkpt>
      <trkpt lat="48.80535" lon="2.18222">
        <ele>99</ele>
        <time>2012-03-03T08:19:23Z</time>
      </trkpt>
      <trkpt lat="48.80535" lon="2.18229">
        <ele>99</ele>
        <time>2012-03-03T08:19:24Z</time>
      </trkpt>
      <trkpt lat="48.80533" lon="2.18253">
        <ele>98</ele>
        <time>2012-03-03T08:19:28Z</time>
      </trkpt>
      <trkpt lat="48.80523" lon="2.18262">
        <ele>97</ele>
        <time>2012-03-03T08:19:33Z</time>
      </trkpt>
      <trkpt lat="48.80524" lon="2.18263">
        <ele>97</ele>
        <time>2012-03-03T08:19:34Z</time>
      </trkpt>
      <trkpt lat="48.80519" lon="2.18272">
        <ele>97</ele>
        <time>2012-03-03T08:19:38Z</time>
      </trkpt>
      <trkpt lat="48.80518" lon="2.18297">
        <ele>97</ele>
        <time>2012-03-03T08:19:41Z</time>
      </trkpt>
      <trkpt lat="48.80531" lon="2.18379">
        <ele>97</ele>
        <time>2012-03-03T08:19:49Z</time>
      </trkpt>
      <trkpt lat="48.80546" lon="2.1843">
        <ele>97</ele>
        <time>2012-03-03T08:19:55Z</time>
      </trkpt>
      <trkpt lat="48.80548" lon="2.18449">
        <ele>96</ele>
        <time>2012-03-03T08:19:58Z</time>
      </trkpt>
      <trkpt lat="48.8054" lon="2.18478">
        <ele>95</ele>
        <time>2012-03-03T08:20:03Z</time>
      </trkpt>
      <trkpt lat="48.80536" lon="2.18504">
        <ele>92</ele>
        <time>2012-03-03T08:20:06Z</time>
      </trkpt>
      <trkpt lat="48.80529" lon="2.18538">
        <ele>92</ele>
        <time>2012-03-03T08:20:10Z</time>
      </trkpt>
      <trkpt lat="48.80523" lon="2.18599">
        <ele>91</ele>
        <time>2012-03-03T08:20:17Z</time>
      </trkpt>
      <trkpt lat="48.80518" lon="2.18667">
        <ele>92</ele>
        <time>2012-03-03T08:20:25Z</time>
      </trkpt>
      <trkpt lat="48.80512" lon="2.18737">
        <ele>95</ele>
        <time>2012-03-03T08:20:34Z</time>
      </trkpt>
      <trkpt lat="48.80507" lon="2.18779">
        <ele>98</ele>
        <time>2012-03-03T08:20:40Z</time>
      </trkpt>
      <trkpt lat="48.80506" lon="2.18795">
        <ele>99</ele>
        <time>2012-03-03T08:20:43Z</time>
      </trkpt>
      <trkpt lat="48.80507" lon="2.18809">
        <ele>99</ele>
        <time>2012-03-03T08:20:47Z</time>
      </trkpt>
      <trkpt lat="48.80499" lon="2.18815">
        <ele>100</ele>
        <time>2012-03-03T08:20:50Z</time>
      </trkpt>
      <trkpt lat="48.80494" lon="2.18816">
        <ele>100</ele>
        <time>2012-03-03T08:20:51Z</time>
      </trkpt>
      <trkpt lat="48.80449" lon="2.1882">
        <ele>101</ele>
        <time>2012-03-03T08:20:59Z</time>
      </trkpt>
      <trkpt lat="48.80431" lon="2.18822">
        <ele>102</ele>
        <time>2012-03-03T08:21:02Z</time>
      </trkpt>
      <trkpt lat="48.8041" lon="2.18827">
        <ele>103</ele>
        <time>2012-03-03T08:21:06Z</time>
      </trkpt>
      <trkpt lat="48.80413" lon="2.18844">
        <ele>105</ele>
        <time>2012-03-03T08:21:09Z</time>
      </trkpt>
      <trkpt lat="48.80419" lon="2.18853">
        <ele>105</ele>
        <time>2012-03-03T08:21:11Z</time>
      </trkpt>
      <trkpt lat="48.80426" lon="2.1886">
        <ele>106</ele>
        <time>2012-03-03T08:21:13Z</time>
      </trkpt>
      <trkpt lat="48.80439" lon="2.18877">
        <ele>107</ele>
        <time>2012-03-03T08:21:18Z</time>
      </trkpt>
      <trkpt lat="48.80461" lon="2.1892">
        <ele>112</ele>
        <time>2012-03-03T08:21:28Z</time>
      </trkpt>
      <trkpt lat="48.80482" lon="2.1896">
        <ele>114</ele>
        <time>2012-03-03T08:21:38Z</time>
      </trkpt>
      <trkpt lat="48.80497" lon="2.18987">
        <ele>115</ele>
        <time>2012-03-03T08:21:45Z</time>
      </trkpt>
      <trkpt lat="48.80505" lon="2.19007">
        <ele>115</ele>
        <time>2012-03-03T08:21:50Z</time>
      </trkpt>
      <trkpt lat="48.80514" lon="2.19027">
        <ele>116</ele>
        <time>2012-03-03T08:21:55Z</time>
      </trkpt>
      <trkpt lat="48.80527" lon="2.19052">
        <ele>116</ele>
        <time>2012-03-03T08:22:01Z</time>
      </trkpt>
      <trkpt lat="48.80548" lon="2.19091">
        <ele>120</ele>
        <time>2012-03-03T08:22:10Z</time>
      </trkpt>
      <trkpt lat="48.80564" lon="2.19124">
        <ele>121</ele>
        <time>2012-03-03T08:22:18Z</time>
      </trkpt>
      <trkpt lat="48.80556" lon="2.19153">
        <ele>123</ele>
        <time>2012-03-03T08:22:24Z</time>
      </trkpt>
      <trkpt lat="48.80541" lon="2.19181">
        <ele>128</ele>
        <time>2012-03-03T08:22:31Z</time>
      </trkpt>
      <trkpt lat="48.80523" lon="2.19213">
        <ele>129</ele>
        <time>2012-03-03T08:22:39Z</time>
      </trkpt>
      <trkpt lat="48.80505" lon="2.19244">
        <ele>131</ele>
        <time>2012-03-03T08:22:47Z</time>
      </trkpt>
      <trkpt lat="48.80494" lon="2.19266">
        <ele>135</ele>
        <time>2012-03-03T08:22:52Z</time>
      </trkpt>
      <trkpt lat="48.80479" lon="2.19296">
        <ele>137</ele>
        <time>2012-03-03T08:22:59Z</time>
      </trkpt>
      <trkpt lat="48.80468" lon="2.19311">
        <ele>138</ele>
        <time>2012-03-03T08:23:04Z</time>
      </trkpt>
      <trkpt lat="48.80457" lon="2.19329">
        <ele>138</ele>
        <time>2012-03-03T08:23:09Z</time>
      </trkpt>
      <trkpt lat="48.80447" lon="2.19352">
        <ele>141</ele>
        <time>2012-03-03T08:23:15Z</time>
      </trkpt>
      <trkpt lat="48.80436" lon="2.19371">
        <ele>142</ele>
        <time>2012-03-03T08:23:20Z</time>
      </trkpt>
      <trkpt lat="48.80422" lon="2.19393">
        <ele>142</ele>
        <time>2012-03-03T08:23:26Z</time>
      </trkpt>
      <trkpt lat="48.80409" lon="2.19388">
        <ele>142</ele>
        <time>2012-03-03T08:23:30Z</time>
      </trkpt>
      <trkpt lat="48.80396" lon="2.19386">
        <ele>142</ele>
        <time>2012-03-03T08:23:34Z</time>
      </trkpt>
      <trkpt lat="48.80397" lon="2.19396">
        <ele>142</ele>
        <time>2012-03-03T08:23:37Z</time>
      </trkpt>
      <trkpt lat="48.80406" lon="2.19414">
        <ele>143</ele>
        <time>2012-03-03T08:23:40Z</time>
      </trkpt>
      <trkpt lat="48.80425" lon="2.19457">
        <ele>142</ele>
        <time>2012-03-03T08:23:47Z</time>
      </trkpt>
      <trkpt lat="48.80429" lon="2.19472">
        <ele>142</ele>
        <time>2012-03-03T08:23:49Z</time>
      </trkpt>
      <trkpt lat="48.80449" lon="2.19519">
        <ele>142</ele>
        <time>2012-03-03T08:23:56Z</time>
      </trkpt>
      <trkpt lat="48.80471" lon="2.19574">
        <ele>143</ele>
        <time>2012-03-03T08:24:03Z</time>
      </trkpt>
      <trkpt lat="48.80488" lon="2.19612">
        <ele>142</ele>
        <time>2012-03-03T08:24:08Z</time>
      </trkpt>
      <trkpt lat="48.80495" lon="2.19655">
        <ele>141</ele>
        <time>2012-03-03T08:24:13Z</time>
      </trkpt>
      <trkpt lat="48.80487" lon="2.19683">
        <ele>141</ele>
        <time>2012-03-03T08:24:16Z</time>
      </trkpt>
      <trkpt lat="48.80466" lon="2.19738">
        <ele>142</ele>
        <time>2012-03-03T08:24:23Z</time>
      </trkpt>
      <trkpt lat="48.80453" lon="2.1975">
        <ele>144</ele>
        <time>2012-03-03T08:24:27Z</time>
      </trkpt>
      <trkpt lat="48.80431" lon="2.1976">
        <ele>145</ele>
        <time>2012-03-03T08:24:33Z</time>
      </trkpt>
      <trkpt lat="48.80421" lon="2.1978">
        <ele>145</ele>
        <time>2012-03-03T08:24:37Z</time>
      </trkpt>
      <trkpt lat="48.8042" lon="2.19785">
        <ele>145</ele>
        <time>2012-03-03T08:24:38Z</time>
      </trkpt>
      <trkpt lat="48.80407" lon="2.19818">
        <ele>148</ele>
        <time>2012-03-03T08:24:44Z</time>
      </trkpt>
      <trkpt lat="48.80401" lon="2.19829">
        <ele>148</ele>
        <time>2012-03-03T08:24:46Z</time>
      </trkpt>
      <trkpt lat="48.80389" lon="2.19854">
        <ele>150</ele>
        <time>2012-03-03T08:24:51Z</time>
      </trkpt>
      <trkpt lat="48.80381" lon="2.19882">
        <ele>151</ele>
        <time>2012-03-03T08:24:56Z</time>
      </trkpt>
      <trkpt lat="48.80375" lon="2.19896">
        <ele>151</ele>
        <time>2012-03-03T08:24:59Z</time>
      </trkpt>
      <trkpt lat="48.8038" lon="2.19925">
        <ele>154</ele>
        <time>2012-03-03T08:25:04Z</time>
      </trkpt>
      <trkpt lat="48.80378" lon="2.19941">
        <ele>154</ele>
        <time>2012-03-03T08:25:07Z</time>
      </trkpt>
      <trkpt lat="48.80375" lon="2.19949">
        <ele>154</ele>
        <time>2012-03-03T08:25:09Z</time>
      </trkpt>
      <trkpt lat="48.80363" lon="2.1998">
        <ele>155</ele>
        <time>2012-03-03T08:25:16Z</time>
      </trkpt>
      <trkpt lat="48.80355" lon="2.20004">
        <ele>157</ele>
        <time>2012-03-03T08:25:21Z</time>
      </trkpt>
      <trkpt lat="48.80346" lon="2.20022">
        <ele>158</ele>
        <time>2012-03-03T08:25:26Z</time>
      </trkpt>
      <trkpt lat="48.80341" lon="2.20048">
        <ele>159</ele>
        <time>2012-03-03T08:25:33Z</time>
      </trkpt>
      <trkpt lat="48.80335" lon="2.20061">
        <ele>161</ele>
        <time>2012-03-03T08:25:36Z</time>
      </trkpt>
      <trkpt lat="48.80331" lon="2.20066">
        <ele>162</ele>
        <time>2012-03-03T08:25:39Z</time>
      </trkpt>
      <trkpt lat="48.80327" lon="2.20077">
        <ele>163</ele>
        <time>2012-03-03T08:25:44Z</time>
      </trkpt>
      <trkpt lat="48.80325" lon="2.20081">
        <ele>163</ele>
        <time>2012-03-03T08:25:46Z</time>
      </trkpt>
      <trkpt lat="48.80312" lon="2.20088">
        <ele>166</ele>
        <time>2012-03-03T08:25:54Z</time>
      </trkpt>
      <trkpt lat="48.80306" lon="2.20097">
        <ele>166</ele>
        <time>2012-03-03T08:26:00Z</time>
      </trkpt>
      <trkpt lat="48.80304" lon="2.20104">
        <ele>166</ele>
        <time>2012-03-03T08:26:04Z</time>
      </trkpt>
      <trkpt lat="48.80301" lon="2.20111">
        <ele>166</ele>
        <time>2012-03-03T08:26:09Z</time>
      </trkpt>
      <trkpt lat="48.80291" lon="2.20123">
        <ele>167</ele>
        <time>2012-03-03T08:26:16Z</time>
      </trkpt>
      <trkpt lat="48.80283" lon="2.20129">
        <ele>167</ele>
        <time>2012-03-03T08:26:22Z</time>
      </trkpt>
      <trkpt lat="48.8027" lon="2.20135">
        <ele>168</ele>
        <time>2012-03-03T08:26:27Z</time>
      </trkpt>
      <trkpt lat="48.80252" lon="2.20146">
        <ele>169</ele>
        <time>2012-03-03T08:26:32Z</time>
      </trkpt>
      <trkpt lat="48.80236" lon="2.20155">
        <ele>167</ele>
        <time>2012-03-03T08:26:36Z</time>
      </trkpt>
      <trkpt lat="48.80214" lon="2.20171">
        <ele>171</ele>
        <time>2012-03-03T08:26:42Z</time>
      </trkpt>
      <trkpt lat="48.80206" lon="2.20177">
        <ele>170</ele>
        <time>2012-03-03T08:26:44Z</time>
      </trkpt>
      <trkpt lat="48.80188" lon="2.20194">
        <ele>170</ele>
        <time>2012-03-03T08:26:49Z</time>
      </trkpt>
      <trkpt lat="48.80181" lon="2.20202">
        <ele>170</ele>
        <time>2012-03-03T08:26:51Z</time>
      </trkpt>
      <trkpt lat="48.80173" lon="2.2021">
        <ele>171</ele>
        <time>2012-03-03T08:26:53Z</time>
      </trkpt>
      <trkpt lat="48.80162" lon="2.20226">
        <ele>166</ele>
        <time>2012-03-03T08:26:56Z</time>
      </trkpt>
      <trkpt lat="48.80157" lon="2.20259">
        <ele>170</ele>
        <time>2012-03-03T08:27:01Z</time>
      </trkpt>
      <trkpt lat="48.80162" lon="2.20284">
        <ele>169</ele>
        <time>2012-03-03T08:27:05Z</time>
      </trkpt>
      <trkpt lat="48.80158" lon="2.20311">
        <ele>170</ele>
        <time>2012-03-03T08:27:09Z</time>
      </trkpt>
      <trkpt lat="48.80148" lon="2.20318">
        <ele>170</ele>
        <time>2012-03-03T08:27:12Z</time>
      </trkpt>
      <trkpt lat="48.80137" lon="2.20313">
        <ele>169</ele>
        <time>2012-03-03T08:27:15Z</time>
      </trkpt>
      <trkpt lat="48.80124" lon="2.2032">
        <ele>168</ele>
        <time>2012-03-03T08:27:18Z</time>
      </trkpt>
      <trkpt lat="48.80111" lon="2.20338">
        <ele>170</ele>
        <time>2012-03-03T08:27:21Z</time>
      </trkpt>
      <trkpt lat="48.80103" lon="2.20367">
        <ele>171</ele>
        <time>2012-03-03T08:27:25Z</time>
      </trkpt>
      <trkpt lat="48.80089" lon="2.20414">
        <ele>171</ele>
        <time>2012-03-03T08:27:32Z</time>
      </trkpt>
      <trkpt lat="48.80082" lon="2.20428">
        <ele>172</ele>
        <time>2012-03-03T08:27:34Z</time>
      </trkpt>
      <trkpt lat="48.80064" lon="2.20442">
        <ele>173</ele>
        <time>2012-03-03T08:27:39Z</time>
      </trkpt>
      <trkpt lat="48.80055" lon="2.20445">
        <ele>174</ele>
        <time>2012-03-03T08:27:41Z</time>
      </trkpt>
      <trkpt lat="48.80035" lon="2.20447">
        <ele>173</ele>
        <time>2012-03-03T08:27:45Z</time>
      </trkpt>
      <trkpt lat="48.80011" lon="2.20448">
        <ele>173</ele>
        <time>2012-03-03T08:27:50Z</time>
      </trkpt>
      <trkpt lat="48.79977" lon="2.20451">
        <ele>174</ele>
        <time>2012-03-03T08:27:56Z</time>
      </trkpt>
      <trkpt lat="48.79966" lon="2.2045">
        <ele>174</ele>
        <time>2012-03-03T08:27:58Z</time>
      </trkpt>
      <trkpt lat="48.79953" lon="2.20444">
        <ele>174</ele>
        <time>2012-03-03T08:28:01Z</time>
      </trkpt>
      <trkpt lat="48.79939" lon="2.2044">
        <ele>174</ele>
        <time>2012-03-03T08:28:04Z</time>
      </trkpt>
      <trkpt lat="48.7993" lon="2.2044">
        <ele>174</ele>
        <time>2012-03-03T08:28:06Z</time>
      </trkpt>
      <trkpt lat="48.79917" lon="2.20428">
        <ele>174</ele>
        <time>2012-03-03T08:28:10Z</time>
      </trkpt>
      <trkpt lat="48.79897" lon="2.20394">
        <ele>173</ele>
        <time>2012-03-03T08:28:16Z</time>
      </trkpt>
      <trkpt lat="48.79893" lon="2.20387">
        <ele>173</ele>
        <time>2012-03-03T08:28:17Z</time>
      </trkpt>
      <trkpt lat="48.79881" lon="2.20359">
        <ele>173</ele>
        <time>2012-03-03T08:28:21Z</time>
      </trkpt>
      <trkpt lat="48.79877" lon="2.20346">
        <ele>172</ele>
        <time>2012-03-03T08:28:23Z</time>
      </trkpt>
      <trkpt lat="48.79866" lon="2.20311">
        <ele>168</ele>
        <time>2012-03-03T08:28:28Z</time>
      </trkpt>
      <trkpt lat="48.79847" lon="2.20284">
        <ele>168</ele>
        <time>2012-03-03T08:28:33Z</time>
      </trkpt>
      <trkpt lat="48.79821" lon="2.20279">
        <ele>165</ele>
        <time>2012-03-03T08:28:38Z</time>
      </trkpt>
      <trkpt lat="48.79782" lon="2.20319">
        <ele>164</ele>
        <time>2012-03-03T08:28:46Z</time>
      </trkpt>
      <trkpt lat="48.79776" lon="2.20325">
        <ele>164</ele>
        <time>2012-03-03T08:28:47Z</time>
      </trkpt>
      <trkpt lat="48.7975" lon="2.20375">
        <ele>171</ele>
        <time>2012-03-03T08:28:53Z</time>
      </trkpt>
      <trkpt lat="48.79729" lon="2.20424">
        <ele>173</ele>
        <time>2012-03-03T08:29:00Z</time>
      </trkpt>
      <trkpt lat="48.79721" lon="2.20436">
        <ele>172</ele>
        <time>2012-03-03T08:29:02Z</time>
      </trkpt>
      <trkpt lat="48.7969" lon="2.2046">
        <ele>172</ele>
        <time>2012-03-03T08:29:08Z</time>
      </trkpt>
      <trkpt lat="48.79668" lon="2.20468">
        <ele>172</ele>
        <time>2012-03-03T08:29:12Z</time>
      </trkpt>
      <trkpt lat="48.79644" lon="2.20469">
        <ele>169</ele>
        <time>2012-03-03T08:29:16Z</time>
      </trkpt>
      <trkpt lat="48.79623" lon="2.20455">
        <ele>167</ele>
        <time>2012-03-03T08:29:20Z</time>
      </trkpt>
      <trkpt lat="48.79605" lon="2.20444">
        <ele>166</ele>
        <time>2012-03-03T08:29:23Z</time>
      </trkpt>
      <trkpt lat="48.79581" lon="2.20444">
        <ele>164</ele>
        <time>2012-03-03T08:29:27Z</time>
      </trkpt>
      <trkpt lat="48.79566" lon="2.20465">
        <ele>165</ele>
        <time>2012-03-03T08:29:30Z</time>
      </trkpt>
      <trkpt lat="48.79557" lon="2.20481">
        <ele>166</ele>
        <time>2012-03-03T08:29:32Z</time>
      </trkpt>
      <trkpt lat="48.79545" lon="2.20503">
        <ele>170</ele>
        <time>2012-03-03T08:29:35Z</time>
      </trkpt>
      <trkpt lat="48.79524" lon="2.20523">
        <ele>169</ele>
        <time>2012-03-03T08:29:39Z</time>
      </trkpt>
      <trkpt lat="48.79504" lon="2.20562">
        <ele>169</ele>
        <time>2012-03-03T08:29:44Z</time>
      </trkpt>
      <trkpt lat="48.79498" lon="2.20579">
        <ele>166</ele>
        <time>2012-03-03T08:29:46Z</time>
      </trkpt>
      <trkpt lat="48.79493" lon="2.20606">
        <ele>164</ele>
        <time>2012-03-03T08:29:49Z</time>
      </trkpt>
      <trkpt lat="48.79489" lon="2.20659">
        <ele>168</ele>
        <time>2012-03-03T08:29:55Z</time>
      </trkpt>
      <trkpt lat="48.79486" lon="2.20696">
        <ele>168</ele>
        <time>2012-03-03T08:29:59Z</time>
      </trkpt>
      <trkpt lat="48.79465" lon="2.20753">
        <ele>171</ele>
        <time>2012-03-03T08:30:06Z</time>
      </trkpt>
      <trkpt lat="48.79448" lon="2.20805">
        <ele>171</ele>
        <time>2012-03-03T08:30:12Z</time>
      </trkpt>
      <trkpt lat="48.79444" lon="2.20822">
        <ele>171</ele>
        <time>2012-03-03T08:30:14Z</time>
      </trkpt>
      <trkpt lat="48.79425" lon="2.20872">
        <ele>174</ele>
        <time>2012-03-03T08:30:20Z</time>
      </trkpt>
      <trkpt lat="48.79412" lon="2.20911">
        <ele>174</ele>
        <time>2012-03-03T08:30:25Z</time>
      </trkpt>
      <trkpt lat="48.79399" lon="2.2094">
        <ele>175</ele>
        <time>2012-03-03T08:30:29Z</time>
      </trkpt>
      <trkpt lat="48.79385" lon="2.20975">
        <ele>175</ele>
        <time>2012-03-03T08:30:34Z</time>
      </trkpt>
      <trkpt lat="48.79364" lon="2.21002">
        <ele>176</ele>
        <time>2012-03-03T08:30:39Z</time>
      </trkpt>
      <trkpt lat="48.79305" lon="2.21042">
        <ele>174</ele>
        <time>2012-03-03T08:30:50Z</time>
      </trkpt>
      <trkpt lat="48.79294" lon="2.21049">
        <ele>174</ele>
        <time>2012-03-03T08:30:52Z</time>
      </trkpt>
      <trkpt lat="48.79245" lon="2.21082">
        <ele>174</ele>
        <time>2012-03-03T08:31:01Z</time>
      </trkpt>
      <trkpt lat="48.79202" lon="2.21111">
        <ele>175</ele>
        <time>2012-03-03T08:31:09Z</time>
      </trkpt>
      <trkpt lat="48.79169" lon="2.21131">
        <ele>175</ele>
        <time>2012-03-03T08:31:15Z</time>
      </trkpt>
      <trkpt lat="48.79143" lon="2.21148">
        <ele>176</ele>
        <time>2012-03-03T08:31:20Z</time>
      </trkpt>
      <trkpt lat="48.79128" lon="2.21171">
        <ele>178</ele>
        <time>2012-03-03T08:31:24Z</time>
      </trkpt>
      <trkpt lat="48.79125" lon="2.21178">
        <ele>179</ele>
        <time>2012-03-03T08:31:25Z</time>
      </trkpt>
      <trkpt lat="48.79116" lon="2.21199">
        <ele>179</ele>
        <time>2012-03-03T08:31:28Z</time>
      </trkpt>
      <trkpt lat="48.79098" lon="2.21249">
        <ele>179</ele>
        <time>2012-03-03T08:31:35Z</time>
      </trkpt>
      <trkpt lat="48.79083" lon="2.21291">
        <ele>180</ele>
        <time>2012-03-03T08:31:41Z</time>
      </trkpt>
      <trkpt lat="48.79061" lon="2.21349">
        <ele>182</ele>
        <time>2012-03-03T08:31:49Z</time>
      </trkpt>
      <trkpt lat="48.79042" lon="2.21403">
        <ele>182</ele>
        <time>2012-03-03T08:31:56Z</time>
      </trkpt>
      <trkpt lat="48.79023" lon="2.21459">
        <ele>182</ele>
        <time>2012-03-03T08:32:03Z</time>
      </trkpt>
      <trkpt lat="48.79004" lon="2.21511">
        <ele>180</ele>
        <time>2012-03-03T08:32:10Z</time>
      </trkpt>
      <trkpt lat="48.7898" lon="2.21579">
        <ele>180</ele>
        <time>2012-03-03T08:32:19Z</time>
      </trkpt>
      <trkpt lat="48.78955" lon="2.21637">
        <ele>180</ele>
        <time>2012-03-03T08:32:27Z</time>
      </trkpt>
      <trkpt lat="48.78923" lon="2.21703">
        <ele>178</ele>
        <time>2012-03-03T08:32:36Z</time>
      </trkpt>
      <trkpt lat="48.78901" lon="2.21772">
        <ele>176</ele>
        <time>2012-03-03T08:32:44Z</time>
      </trkpt>
      <trkpt lat="48.78892" lon="2.21804">
        <ele>176</ele>
        <time>2012-03-03T08:32:48Z</time>
      </trkpt>
      <trkpt lat="48.7887" lon="2.2186">
        <ele>176</ele>
        <time>2012-03-03T08:32:55Z</time>
      </trkpt>
      <trkpt lat="48.78849" lon="2.21919">
        <ele>175</ele>
        <time>2012-03-03T08:33:02Z</time>
      </trkpt>
      <trkpt lat="48.78841" lon="2.21944">
        <ele>175</ele>
        <time>2012-03-03T08:33:05Z</time>
      </trkpt>
      <trkpt lat="48.78824" lon="2.2198">
        <ele>173</ele>
        <time>2012-03-03T08:33:10Z</time>
      </trkpt>
      <trkpt lat="48.78801" lon="2.22041">
        <ele>173</ele>
        <time>2012-03-03T08:33:17Z</time>
      </trkpt>
      <trkpt lat="48.78787" lon="2.22096">
        <ele>173</ele>
        <time>2012-03-03T08:33:23Z</time>
      </trkpt>
      <trkpt lat="48.78783" lon="2.22104">
        <ele>173</ele>
        <time>2012-03-03T08:33:24Z</time>
      </trkpt>
      <trkpt lat="48.78762" lon="2.2216">
        <ele>172</ele>
        <time>2012-03-03T08:33:31Z</time>
      </trkpt>
      <trkpt lat="48.78756" lon="2.22182">
        <ele>173</ele>
        <time>2012-03-03T08:33:34Z</time>
      </trkpt>
      <trkpt lat="48.78743" lon="2.22192">
        <ele>173</ele>
        <time>2012-03-03T08:33:38Z</time>
      </trkpt>
      <trkpt lat="48.78738" lon="2.2219">
        <ele>173</ele>
        <time>2012-03-03T08:33:39Z</time>
      </trkpt>
      <trkpt lat="48.78698" lon="2.22181">
        <ele>173</ele>
        <time>2012-03-03T08:33:46Z</time>
      </trkpt>
      <trkpt lat="48.78664" lon="2.22177">
        <ele>173</ele>
        <time>2012-03-03T08:33:53Z</time>
      </trkpt>
      <trkpt lat="48.78634" lon="2.2218">
        <ele>173</ele>
        <time>2012-03-03T08:33:59Z</time>
      </trkpt>
      <trkpt lat="48.78618" lon="2.22197">
        <ele>173</ele>
        <time>2012-03-03T08:34:03Z</time>
      </trkpt>
      <trkpt lat="48.78619" lon="2.22229">
        <ele>172</ele>
        <time>2012-03-03T08:34:07Z</time>
      </trkpt>
      <trkpt lat="48.78636" lon="2.22292">
        <ele>173</ele>
        <time>2012-03-03T08:34:15Z</time>
      </trkpt>
      <trkpt lat="48.78648" lon="2.22327">
        <ele>173</ele>
        <time>2012-03-03T08:34:20Z</time>
      </trkpt>
      <trkpt lat="48.78649" lon="2.2235">
        <ele>175</ele>
        <time>2012-03-03T08:34:25Z</time>
      </trkpt>
      <trkpt lat="48.78636" lon="2.22368">
        <ele>176</ele>
        <time>2012-03-03T08:34:29Z</time>
      </trkpt>
      <trkpt lat="48.78631" lon="2.22379">
        <ele>177</ele>
        <time>2012-03-03T08:34:31Z</time>
      </trkpt>
      <trkpt lat="48.78626" lon="2.22397">
        <ele>177</ele>
        <time>2012-03-03T08:34:34Z</time>
      </trkpt>
      <trkpt lat="48.78613" lon="2.22404">
        <ele>178</ele>
        <time>2012-03-03T08:34:38Z</time>
      </trkpt>
      <trkpt lat="48.78601" lon="2.22422">
        <ele>181</ele>
        <time>2012-03-03T08:34:42Z</time>
      </trkpt>
      <trkpt lat="48.78583" lon="2.22436">
        <ele>180</ele>
        <time>2012-03-03T08:34:46Z</time>
      </trkpt>
      <trkpt lat="48.78569" lon="2.22447">
        <ele>181</ele>
        <time>2012-03-03T08:34:49Z</time>
      </trkpt>
      <trkpt lat="48.7853" lon="2.22472">
        <ele>180</ele>
        <time>2012-03-03T08:34:57Z</time>
      </trkpt>
      <trkpt lat="48.78526" lon="2.22475">
        <ele>180</ele>
        <time>2012-03-03T08:34:58Z</time>
      </trkpt>
      <trkpt lat="48.78508" lon="2.22471">
        <ele>180</ele>
        <time>2012-03-03T08:35:02Z</time>
      </trkpt>
      <trkpt lat="48.78498" lon="2.22473">
        <ele>177</ele>
        <time>2012-03-03T08:35:05Z</time>
      </trkpt>
      <trkpt lat="48.7849" lon="2.22477">
        <ele>177</ele>
        <time>2012-03-03T08:35:07Z</time>
      </trkpt>
      <trkpt lat="48.78481" lon="2.22479">
        <ele>177</ele>
        <time>2012-03-03T08:35:09Z</time>
      </trkpt>
      <trkpt lat="48.7846" lon="2.2249">
        <ele>177</ele>
        <time>2012-03-03T08:35:13Z</time>
      </trkpt>
      <trkpt lat="48.78445" lon="2.22502">
        <ele>176</ele>
        <time>2012-03-03T08:35:16Z</time>
      </trkpt>
      <trkpt lat="48.78431" lon="2.225">
        <ele>176</ele>
        <time>2012-03-03T08:35:19Z</time>
      </trkpt>
      <trkpt lat="48.78421" lon="2.22475">
        <ele>175</ele>
        <time>2012-03-03T08:35:23Z</time>
      </trkpt>
      <trkpt lat="48.78407" lon="2.2247">
        <ele>174</ele>
        <time>2012-03-03T08:35:26Z</time>
      </trkpt>
      <trkpt lat="48.78402" lon="2.22473">
        <ele>174</ele>
        <time>2012-03-03T08:35:27Z</time>
      </trkpt>
      <trkpt lat="48.78349" lon="2.22508">
        <ele>174</ele>
        <time>2012-03-03T08:35:36Z</time>
      </trkpt>
      <trkpt lat="48.78309" lon="2.22542">
        <ele>175</ele>
        <time>2012-03-03T08:35:43Z</time>
      </trkpt>
      <trkpt lat="48.78255" lon="2.22584">
        <ele>176</ele>
        <time>2012-03-03T08:35:52Z</time>
      </trkpt>
      <trkpt lat="48.78225" lon="2.22607">
        <ele>174</ele>
        <time>2012-03-03T08:35:58Z</time>
      </trkpt>
      <trkpt lat="48.78215" lon="2.22614">
        <ele>174</ele>
        <time>2012-03-03T08:36:00Z</time>
      </trkpt>
      <trkpt lat="48.78188" lon="2.22637">
        <ele>173</ele>
        <time>2012-03-03T08:36:06Z</time>
      </trkpt>
      <trkpt lat="48.78178" lon="2.22645">
        <ele>173</ele>
        <time>2012-03-03T08:36:10Z</time>
      </trkpt>
      <trkpt lat="48.78174" lon="2.22648">
        <ele>173</ele>
        <time>2012-03-03T08:36:17Z</time>
      </trkpt>
      <trkpt lat="48.7817" lon="2.22652">
        <ele>173</ele>
        <time>2012-03-03T08:36:22Z</time>
      </trkpt>
      <trkpt lat="48.78158" lon="2.22654">
        <ele>172</ele>
        <time>2012-03-03T08:36:25Z</time>
      </trkpt>
      <trkpt lat="48.78145" lon="2.22675">
        <ele>172</ele>
        <time>2012-03-03T08:36:29Z</time>
      </trkpt>
      <trkpt lat="48.7813" lon="2.22688">
        <ele>172</ele>
        <time>2012-03-03T08:36:32Z</time>
      </trkpt>
      <trkpt lat="48.78082" lon="2.22725">
        <ele>172</ele>
        <time>2012-03-03T08:36:40Z</time>
      </trkpt>
      <trkpt lat="48.78027" lon="2.22767">
        <ele>172</ele>
        <time>2012-03-03T08:36:49Z</time>
      </trkpt>
      <trkpt lat="48.77983" lon="2.22802">
        <ele>170</ele>
        <time>2012-03-03T08:36:57Z</time>
      </trkpt>
      <trkpt lat="48.7795" lon="2.2283">
        <ele>170</ele>
        <time>2012-03-03T08:37:04Z</time>
      </trkpt>
      <trkpt lat="48.77922" lon="2.22852">
        <ele>170</ele>
        <time>2012-03-03T08:37:10Z</time>
      </trkpt>
      <trkpt lat="48.77885" lon="2.2288">
        <ele>169</ele>
        <time>2012-03-03T08:37:16Z</time>
      </trkpt>
      <trkpt lat="48.77837" lon="2.22916">
        <ele>169</ele>
        <time>2012-03-03T08:37:24Z</time>
      </trkpt>
      <trkpt lat="48.778" lon="2.22947">
        <ele>168</ele>
        <time>2012-03-03T08:37:31Z</time>
      </trkpt>
      <trkpt lat="48.77759" lon="2.22979">
        <ele>168</ele>
        <time>2012-03-03T08:37:39Z</time>
      </trkpt>
      <trkpt lat="48.77746" lon="2.22991">
        <ele>167</ele>
        <time>2012-03-03T08:37:42Z</time>
      </trkpt>
      <trkpt lat="48.77738" lon="2.22996">
        <ele>166</ele>
        <time>2012-03-03T08:37:44Z</time>
      </trkpt>
      <trkpt lat="48.77721" lon="2.23002">
        <ele>166</ele>
        <time>2012-03-03T08:37:48Z</time>
      </trkpt>
      <trkpt lat="48.77697" lon="2.23">
        <ele>165</ele>
        <time>2012-03-03T08:37:53Z</time>
      </trkpt>
      <trkpt lat="48.77685" lon="2.23005">
        <ele>166</ele>
        <time>2012-03-03T08:37:57Z</time>
      </trkpt>
      <trkpt lat="48.77684" lon="2.23008">
        <ele>166</ele>
        <time>2012-03-03T08:38:00Z</time>
      </trkpt>
      <trkpt lat="48.77683" lon="2.23013">
        <ele>166</ele>
        <time>2012-03-03T08:38:05Z</time>
      </trkpt>
      <trkpt lat="48.77674" lon="2.23028">
        <ele>166</ele>
        <time>2012-03-03T08:38:10Z</time>
      </trkpt>
      <trkpt lat="48.77671" lon="2.23034">
        <ele>166</ele>
        <time>2012-03-03T08:38:12Z</time>
      </trkpt>
      <trkpt lat="48.77666" lon="2.23041">
        <ele>165</ele>
        <time>2012-03-03T08:38:17Z</time>
      </trkpt>
      <trkpt lat="48.77661" lon="2.23062">
        <ele>165</ele>
        <time>2012-03-03T08:38:21Z</time>
      </trkpt>
      <trkpt lat="48.77657" lon="2.23067">
        <ele>165</ele>
        <time>2012-03-03T08:38:25Z</time>
      </trkpt>
      <trkpt lat="48.77657" lon="2.23067">
        <ele>165</ele>
        <time>2012-03-03T08:38:31Z</time>
      </trkpt>
      <trkpt lat="48.77657" lon="2.23067">
        <ele>165</ele>
        <time>2012-03-03T08:38:39Z</time>
      </trkpt>
      <trkpt lat="48.77658" lon="2.23066">
        <ele>165</ele>
        <time>2012-03-03T08:38:55Z</time>
      </trkpt>
      <trkpt lat="48.77658" lon="2.23068">
        <ele>165</ele>
        <time>2012-03-03T08:39:03Z</time>
      </trkpt>
      <trkpt lat="48.77658" lon="2.23068">
        <ele>165</ele>
        <time>2012-03-03T08:39:12Z</time>
      </trkpt>
      <trkpt lat="48.77656" lon="2.23067">
        <ele>165</ele>
        <time>2012-03-03T08:39:16Z</time>
      </trkpt>
      <trkpt lat="48.77642" lon="2.23074">
        <ele>165</ele>
        <time>2012-03-03T08:39:22Z</time>
      </trkpt>
      <trkpt lat="48.77624" lon="2.23089">
        <ele>167</ele>
        <time>2012-03-03T08:39:27Z</time>
      </trkpt>
      <trkpt lat="48.77602" lon="2.23104">
        <ele>167</ele>
        <time>2012-03-03T08:39:33Z</time>
      </trkpt>
      <trkpt lat="48.77602" lon="2.23106">
        <ele>167</ele>
        <time>2012-03-03T08:39:37Z</time>
      </trkpt>
      <trkpt lat="48.77598" lon="2.2311">
        <ele>168</ele>
        <time>2012-03-03T08:39:44Z</time>
      </trkpt>
      <trkpt lat="48.77582" lon="2.23122">
        <ele>169</ele>
        <time>2012-03-03T08:39:49Z</time>
      </trkpt>
      <trkpt lat="48.77572" lon="2.23132">
        <ele>169</ele>
        <time>2012-03-03T08:39:52Z</time>
      </trkpt>
      <trkpt lat="48.77572" lon="2.23152">
        <ele>170</ele>
        <time>2012-03-03T08:39:56Z</time>
      </trkpt>
      <trkpt lat="48.77571" lon="2.23157">
        <ele>170</ele>
        <time>2012-03-03T08:39:57Z</time>
      </trkpt>
      <trkpt lat="48.7757" lon="2.23167">
        <ele>171</ele>
        <time>2012-03-03T08:39:59Z</time>
      </trkpt>
      <trkpt lat="48.7756" lon="2.23187">
        <ele>170</ele>
        <time>2012-03-03T08:40:04Z</time>
      </trkpt>
      <trkpt lat="48.77551" lon="2.23214">
        <ele>170</ele>
        <time>2012-03-03T08:40:08Z</time>
      </trkpt>
      <trkpt lat="48.77548" lon="2.23221">
        <ele>170</ele>
        <time>2012-03-03T08:40:09Z</time>
      </trkpt>
      <trkpt lat="48.77536" lon="2.2326">
        <ele>171</ele>
        <time>2012-03-03T08:40:14Z</time>
      </trkpt>
      <trkpt lat="48.77531" lon="2.23273">
        <ele>171</ele>
        <time>2012-03-03T08:40:16Z</time>
      </trkpt>
      <trkpt lat="48.77521" lon="2.23303">
        <ele>171</ele>
        <time>2012-03-03T08:40:20Z</time>
      </trkpt>
      <trkpt lat="48.77514" lon="2.23327">
        <ele>171</ele>
        <time>2012-03-03T08:40:24Z</time>
      </trkpt>
      <trkpt lat="48.77505" lon="2.23355">
        <ele>172</ele>
        <time>2012-03-03T08:40:30Z</time>
      </trkpt>
      <trkpt lat="48.77507" lon="2.23383">
        <ele>173</ele>
        <time>2012-03-03T08:40:35Z</time>
      </trkpt>
      <trkpt lat="48.77507" lon="2.23399">
        <ele>173</ele>
        <time>2012-03-03T08:40:39Z</time>
      </trkpt>
      <trkpt lat="48.77514" lon="2.2341">
        <ele>173</ele>
        <time>2012-03-03T08:40:45Z</time>
      </trkpt>
      <trkpt lat="48.77513" lon="2.23414">
        <ele>173</ele>
        <time>2012-03-03T08:40:46Z</time>
      </trkpt>
      <trkpt lat="48.77515" lon="2.23437">
        <ele>175</ele>
        <time>2012-03-03T08:40:51Z</time>
      </trkpt>
      <trkpt lat="48.77514" lon="2.2346">
        <ele>175</ele>
        <time>2012-03-03T08:40:55Z</time>
      </trkpt>
      <trkpt lat="48.7752" lon="2.23488">
        <ele>176</ele>
        <time>2012-03-03T08:40:59Z</time>
      </trkpt>
      <trkpt lat="48.77522" lon="2.2351">
        <ele>176</ele>
        <time>2012-03-03T08:41:04Z</time>
      </trkpt>
      <trkpt lat="48.77528" lon="2.23518">
        <ele>176</ele>
        <time>2012-03-03T08:41:07Z</time>
      </trkpt>
      <trkpt lat="48.77537" lon="2.23539">
        <ele>176</ele>
        <time>2012-03-03T08:41:11Z</time>
      </trkpt>
      <trkpt lat="48.77538" lon="2.23562">
        <ele>176</ele>
        <time>2012-03-03T08:41:15Z</time>
      </trkpt>
      <trkpt lat="48.77541" lon="2.23579">
        <ele>175</ele>
        <time>2012-03-03T08:41:18Z</time>
      </trkpt>
      <trkpt lat="48.77544" lon="2.23591">
        <ele>173</ele>
        <time>2012-03-03T08:41:20Z</time>
      </trkpt>
      <trkpt lat="48.7754" lon="2.23615">
        <ele>173</ele>
        <time>2012-03-03T08:41:25Z</time>
      </trkpt>
      <trkpt lat="48.77527" lon="2.23617">
        <ele>173</ele>
        <time>2012-03-03T08:41:29Z</time>
      </trkpt>
      <trkpt lat="48.77502" lon="2.23608">
        <ele>173</ele>
        <time>2012-03-03T08:41:34Z</time>
      </trkpt>
      <trkpt lat="48.77481" lon="2.23599">
        <ele>173</ele>
        <time>2012-03-03T08:41:38Z</time>
      </trkpt>
      <trkpt lat="48.77476" lon="2.23599">
        <ele>173</ele>
        <time>2012-03-03T08:41:39Z</time>
      </trkpt>
      <trkpt lat="48.77465" lon="2.23601">
        <ele>172</ele>
        <time>2012-03-03T08:41:41Z</time>
      </trkpt>
      <trkpt lat="48.77437" lon="2.23604">
        <ele>172</ele>
        <time>2012-03-03T08:41:46Z</time>
      </trkpt>
      <trkpt lat="48.77416" lon="2.23609">
        <ele>173</ele>
        <time>2012-03-03T08:41:50Z</time>
      </trkpt>
      <trkpt lat="48.77396" lon="2.23626">
        <ele>172</ele>
        <time>2012-03-03T08:41:55Z</time>
      </trkpt>
      <trkpt lat="48.77388" lon="2.23633">
        <ele>172</ele>
        <time>2012-03-03T08:41:57Z</time>
      </trkpt>
      <trkpt lat="48.77379" lon="2.23626">
        <ele>173</ele>
        <time>2012-03-03T08:42:02Z</time>
      </trkpt>
      <trkpt lat="48.77375" lon="2.23617">
        <ele>173</ele>
        <time>2012-03-03T08:42:05Z</time>
      </trkpt>
      <trkpt lat="48.77373" lon="2.23621">
        <ele>173</ele>
        <time>2012-03-03T08:42:06Z</time>
      </trkpt>
      <trkpt lat="48.77356" lon="2.23641">
        <ele>173</ele>
        <time>2012-03-03T08:42:11Z</time>
      </trkpt>
      <trkpt lat="48.77338" lon="2.23654">
        <ele>174</ele>
        <time>2012-03-03T08:42:15Z</time>
      </trkpt>
      <trkpt lat="48.77325" lon="2.23664">
        <ele>175</ele>
        <time>2012-03-03T08:42:18Z</time>
      </trkpt>
      <trkpt lat="48.77306" lon="2.23681">
        <ele>176</ele>
        <time>2012-03-03T08:42:23Z</time>
      </trkpt>
      <trkpt lat="48.77294" lon="2.23697">
        <ele>176</ele>
        <time>2012-03-03T08:42:27Z</time>
      </trkpt>
      <trkpt lat="48.77291" lon="2.23707">
        <ele>176</ele>
        <time>2012-03-03T08:42:29Z</time>
      </trkpt>
      <trkpt lat="48.77274" lon="2.23736">
        <ele>177</ele>
        <time>2012-03-03T08:42:36Z</time>
      </trkpt>
      <trkpt lat="48.77262" lon="2.23752">
        <ele>176</ele>
        <time>2012-03-03T08:42:40Z</time>
      </trkpt>
      <trkpt lat="48.77254" lon="2.23766">
        <ele>176</ele>
        <time>2012-03-03T08:42:43Z</time>
      </trkpt>
      <trkpt lat="48.77235" lon="2.23773">
        <ele>175</ele>
        <time>2012-03-03T08:42:48Z</time>
      </trkpt>
      <trkpt lat="48.77225" lon="2.2376">
        <ele>175</ele>
        <time>2012-03-03T08:42:51Z</time>
      </trkpt>
      <trkpt lat="48.77214" lon="2.23739">
        <ele>177</ele>
        <time>2012-03-03T08:42:55Z</time>
      </trkpt>
      <trkpt lat="48.77207" lon="2.23732">
        <ele>177</ele>
        <time>2012-03-03T08:42:57Z</time>
      </trkpt>
      <trkpt lat="48.7717" lon="2.23708">
        <ele>177</ele>
        <time>2012-03-03T08:43:05Z</time>
      </trkpt>
      <trkpt lat="48.77151" lon="2.23695">
        <ele>175</ele>
        <time>2012-03-03T08:43:10Z</time>
      </trkpt>
      <trkpt lat="48.77136" lon="2.237">
        <ele>174</ele>
        <time>2012-03-03T08:43:14Z</time>
      </trkpt>
      <trkpt lat="48.77133" lon="2.23704">
        <ele>174</ele>
        <time>2012-03-03T08:43:15Z</time>
      </trkpt>
      <trkpt lat="48.77124" lon="2.2372">
        <ele>174</ele>
        <time>2012-03-03T08:43:18Z</time>
      </trkpt>
      <trkpt lat="48.77119" lon="2.23732">
        <ele>173</ele>
        <time>2012-03-03T08:43:20Z</time>
      </trkpt>
      <trkpt lat="48.77098" lon="2.23766">
        <ele>171</ele>
        <time>2012-03-03T08:43:26Z</time>
      </trkpt>
      <trkpt lat="48.7708" lon="2.23801">
        <ele>172</ele>
        <time>2012-03-03T08:43:32Z</time>
      </trkpt>
      <trkpt lat="48.77066" lon="2.23832">
        <ele>171</ele>
        <time>2012-03-03T08:43:37Z</time>
      </trkpt>
      <trkpt lat="48.77051" lon="2.23858">
        <ele>172</ele>
        <time>2012-03-03T08:43:42Z</time>
      </trkpt>
      <trkpt lat="48.77056" lon="2.23875">
        <ele>172</ele>
        <time>2012-03-03T08:43:46Z</time>
      </trkpt>
      <trkpt lat="48.77062" lon="2.23883">
        <ele>172</ele>
        <time>2012-03-03T08:43:48Z</time>
      </trkpt>
      <trkpt lat="48.77074" lon="2.23892">
        <ele>172</ele>
        <time>2012-03-03T08:43:51Z</time>
      </trkpt>
      <trkpt lat="48.77087" lon="2.23899">
        <ele>170</ele>
        <time>2012-03-03T08:43:54Z</time>
      </trkpt>
      <trkpt lat="48.77105" lon="2.23913">
        <ele>169</ele>
        <time>2012-03-03T08:43:58Z</time>
      </trkpt>
      <trkpt lat="48.77129" lon="2.23934">
        <ele>170</ele>
        <time>2012-03-03T08:44:03Z</time>
      </trkpt>
      <trkpt lat="48.7714" lon="2.23949">
        <ele>170</ele>
        <time>2012-03-03T08:44:06Z</time>
      </trkpt>
      <trkpt lat="48.77156" lon="2.23955">
        <ele>170</ele>
        <time>2012-03-03T08:44:10Z</time>
      </trkpt>
      <trkpt lat="48.77169" lon="2.23965">
        <ele>169</ele>
        <time>2012-03-03T08:44:13Z</time>
      </trkpt>
      <trkpt lat="48.77178" lon="2.23975">
        <ele>169</ele>
        <time>2012-03-03T08:44:15Z</time>
      </trkpt>
      <trkpt lat="48.772" lon="2.23995">
        <ele>169</ele>
        <time>2012-03-03T08:44:20Z</time>
      </trkpt>
      <trkpt lat="48.77213" lon="2.23998">
        <ele>169</ele>
        <time>2012-03-03T08:44:24Z</time>
      </trkpt>
      <trkpt lat="48.77224" lon="2.24006">
        <ele>170</ele>
        <time>2012-03-03T08:44:27Z</time>
      </trkpt>
      <trkpt lat="48.77237" lon="2.24029">
        <ele>170</ele>
        <time>2012-03-03T08:44:31Z</time>
      </trkpt>
      <trkpt lat="48.77242" lon="2.24041">
        <ele>170</ele>
        <time>2012-03-03T08:44:33Z</time>
      </trkpt>
      <trkpt lat="48.77245" lon="2.24053">
        <ele>170</ele>
        <time>2012-03-03T08:44:35Z</time>
      </trkpt>
      <trkpt lat="48.77256" lon="2.2408">
        <ele>169</ele>
        <time>2012-03-03T08:44:40Z</time>
      </trkpt>
      <trkpt lat="48.77269" lon="2.24103">
        <ele>169</ele>
        <time>2012-03-03T08:44:44Z</time>
      </trkpt>
      <trkpt lat="48.77275" lon="2.24125">
        <ele>168</ele>
        <time>2012-03-03T08:44:48Z</time>
      </trkpt>
      <trkpt lat="48.77268" lon="2.24137">
        <ele>169</ele>
        <time>2012-03-03T08:44:51Z</time>
      </trkpt>
      <trkpt lat="48.77261" lon="2.24135">
        <ele>169</ele>
        <time>2012-03-03T08:44:54Z</time>
      </trkpt>
      <trkpt lat="48.77258" lon="2.24132">
        <ele>169</ele>
        <time>2012-03-03T08:44:55Z</time>
      </trkpt>
      <trkpt lat="48.77243" lon="2.2412">
        <ele>171</ele>
        <time>2012-03-03T08:45:00Z</time>
      </trkpt>
      <trkpt lat="48.7723" lon="2.24108">
        <ele>172</ele>
        <time>2012-03-03T08:45:04Z</time>
      </trkpt>
      <trkpt lat="48.77214" lon="2.24097">
        <ele>172</ele>
        <time>2012-03-03T08:45:08Z</time>
      </trkpt>
      <trkpt lat="48.77199" lon="2.24081">
        <ele>171</ele>
        <time>2012-03-03T08:45:12Z</time>
      </trkpt>
      <trkpt lat="48.7718" lon="2.24063">
        <ele>171</ele>
        <time>2012-03-03T08:45:17Z</time>
      </trkpt>
      <trkpt lat="48.7717" lon="2.24047">
        <ele>171</ele>
        <time>2012-03-03T08:45:20Z</time>
      </trkpt>
      <trkpt lat="48.77159" lon="2.24041">
        <ele>172</ele>
        <time>2012-03-03T08:45:23Z</time>
      </trkpt>
      <trkpt lat="48.77145" lon="2.2405">
        <ele>172</ele>
        <time>2012-03-03T08:45:27Z</time>
      </trkpt>
      <trkpt lat="48.77136" lon="2.24055">
        <ele>173</ele>
        <time>2012-03-03T08:45:30Z</time>
      </trkpt>
      <trkpt lat="48.77129" lon="2.24066">
        <ele>173</ele>
        <time>2012-03-03T08:45:32Z</time>
      </trkpt>
      <trkpt lat="48.77118" lon="2.24085">
        <ele>174</ele>
        <time>2012-03-03T08:45:35Z</time>
      </trkpt>
      <trkpt lat="48.77102" lon="2.24115">
        <ele>174</ele>
        <time>2012-03-03T08:45:40Z</time>
      </trkpt>
      <trkpt lat="48.77088" lon="2.2414">
        <ele>174</ele>
        <time>2012-03-03T08:45:44Z</time>
      </trkpt>
      <trkpt lat="48.77077" lon="2.24156">
        <ele>174</ele>
        <time>2012-03-03T08:45:47Z</time>
      </trkpt>
      <trkpt lat="48.77068" lon="2.24177">
        <ele>174</ele>
        <time>2012-03-03T08:45:51Z</time>
      </trkpt>
      <trkpt lat="48.77061" lon="2.24194">
        <ele>174</ele>
        <time>2012-03-03T08:45:54Z</time>
      </trkpt>
      <trkpt lat="48.7705" lon="2.24216">
        <ele>174</ele>
        <time>2012-03-03T08:45:59Z</time>
      </trkpt>
      <trkpt lat="48.77037" lon="2.24233">
        <ele>175</ele>
        <time>2012-03-03T08:46:04Z</time>
      </trkpt>
      <trkpt lat="48.77026" lon="2.24247">
        <ele>175</ele>
        <time>2012-03-03T08:46:08Z</time>
      </trkpt>
      <trkpt lat="48.77025" lon="2.24261">
        <ele>175</ele>
        <time>2012-03-03T08:46:13Z</time>
      </trkpt>
      <trkpt lat="48.77018" lon="2.2428">
        <ele>175</ele>
        <time>2012-03-03T08:46:17Z</time>
      </trkpt>
      <trkpt lat="48.77008" lon="2.24308">
        <ele>175</ele>
        <time>2012-03-03T08:46:22Z</time>
      </trkpt>
      <trkpt lat="48.77" lon="2.24325">
        <ele>175</ele>
        <time>2012-03-03T08:46:25Z</time>
      </trkpt>
      <trkpt lat="48.76979" lon="2.24324">
        <ele>176</ele>
        <time>2012-03-03T08:46:30Z</time>
      </trkpt>
      <trkpt lat="48.76962" lon="2.24321">
        <ele>176</ele>
        <time>2012-03-03T08:46:34Z</time>
      </trkpt>
      <trkpt lat="48.76952" lon="2.2432">
        <ele>176</ele>
        <time>2012-03-03T08:46:36Z</time>
      </trkpt>
      <trkpt lat="48.76928" lon="2.24322">
        <ele>177</ele>
        <time>2012-03-03T08:46:41Z</time>
      </trkpt>
      <trkpt lat="48.76911" lon="2.24328">
        <ele>177</ele>
        <time>2012-03-03T08:46:45Z</time>
      </trkpt>
      <trkpt lat="48.7689" lon="2.24329">
        <ele>178</ele>
        <time>2012-03-03T08:46:50Z</time>
      </trkpt>
      <trkpt lat="48.7688" lon="2.24341">
        <ele>177</ele>
        <time>2012-03-03T08:46:54Z</time>
      </trkpt>
      <trkpt lat="48.76867" lon="2.24346">
        <ele>177</ele>
        <time>2012-03-03T08:46:59Z</time>
      </trkpt>
      <trkpt lat="48.76854" lon="2.24337">
        <ele>177</ele>
        <time>2012-03-03T08:47:03Z</time>
      </trkpt>
      <trkpt lat="48.76839" lon="2.24334">
        <ele>178</ele>
        <time>2012-03-03T08:47:07Z</time>
      </trkpt>
      <trkpt lat="48.76822" lon="2.24338">
        <ele>178</ele>
        <time>2012-03-03T08:47:11Z</time>
      </trkpt>
      <trkpt lat="48.7681" lon="2.24348">
        <ele>177</ele>
        <time>2012-03-03T08:47:15Z</time>
      </trkpt>
      <trkpt lat="48.76798" lon="2.24345">
        <ele>176</ele>
        <time>2012-03-03T08:47:19Z</time>
      </trkpt>
      <trkpt lat="48.76788" lon="2.24346">
        <ele>176</ele>
        <time>2012-03-03T08:47:22Z</time>
      </trkpt>
      <trkpt lat="48.76783" lon="2.24351">
        <ele>176</ele>
        <time>2012-03-03T08:47:24Z</time>
      </trkpt>
      <trkpt lat="48.76765" lon="2.24364">
        <ele>175</ele>
        <time>2012-03-03T08:47:29Z</time>
      </trkpt>
      <trkpt lat="48.76752" lon="2.24377">
        <ele>175</ele>
        <time>2012-03-03T08:47:32Z</time>
      </trkpt>
      <trkpt lat="48.7674" lon="2.24386">
        <ele>173</ele>
        <time>2012-03-03T08:47:35Z</time>
      </trkpt>
      <trkpt lat="48.76725" lon="2.24388">
        <ele>173</ele>
        <time>2012-03-03T08:47:39Z</time>
      </trkpt>
      <trkpt lat="48.76707" lon="2.24389">
        <ele>173</ele>
        <time>2012-03-03T08:47:44Z</time>
      </trkpt>
      <trkpt lat="48.76698" lon="2.24393">
        <ele>173</ele>
        <time>2012-03-03T08:47:47Z</time>
      </trkpt>
      <trkpt lat="48.76695" lon="2.24396">
        <ele>173</ele>
        <time>2012-03-03T08:47:48Z</time>
      </trkpt>
      <trkpt lat="48.7669" lon="2.244">
        <ele>173</ele>
        <time>2012-03-03T08:47:50Z</time>
      </trkpt>
      <trkpt lat="48.76676" lon="2.24402">
        <ele>172</ele>
        <time>2012-03-03T08:47:55Z</time>
      </trkpt>
      <trkpt lat="48.7666" lon="2.24411">
        <ele>171</ele>
        <time>2012-03-03T08:47:59Z</time>
      </trkpt>
      <trkpt lat="48.76641" lon="2.24424">
        <ele>171</ele>
        <time>2012-03-03T08:48:04Z</time>
      </trkpt>
      <trkpt lat="48.76632" lon="2.24427">
        <ele>171</ele>
        <time>2012-03-03T08:48:06Z</time>
      </trkpt>
      <trkpt lat="48.76615" lon="2.24431">
        <ele>172</ele>
        <time>2012-03-03T08:48:10Z</time>
      </trkpt>
      <trkpt lat="48.76594" lon="2.24439">
        <ele>172</ele>
        <time>2012-03-03T08:48:16Z</time>
      </trkpt>
      <trkpt lat="48.76581" lon="2.24444">
        <ele>172</ele>
        <time>2012-03-03T08:48:19Z</time>
      </trkpt>
      <trkpt lat="48.76561" lon="2.24456">
        <ele>172</ele>
        <time>2012-03-03T08:48:25Z</time>
      </trkpt>
      <trkpt lat="48.76553" lon="2.24475">
        <ele>172</ele>
        <time>2012-03-03T08:48:29Z</time>
      </trkpt>
      <trkpt lat="48.76538" lon="2.24492">
        <ele>173</ele>
        <time>2012-03-03T08:48:33Z</time>
      </trkpt>
      <trkpt lat="48.76524" lon="2.24506">
        <ele>173</ele>
        <time>2012-03-03T08:48:37Z</time>
      </trkpt>
      <trkpt lat="48.76509" lon="2.24519">
        <ele>173</ele>
        <time>2012-03-03T08:48:41Z</time>
      </trkpt>
      <trkpt lat="48.76505" lon="2.24522">
        <ele>173</ele>
        <time>2012-03-03T08:48:42Z</time>
      </trkpt>
      <trkpt lat="48.76473" lon="2.24543">
        <ele>174</ele>
        <time>2012-03-03T08:48:49Z</time>
      </trkpt>
      <trkpt lat="48.76462" lon="2.2454">
        <ele>174</ele>
        <time>2012-03-03T08:48:52Z</time>
      </trkpt>
      <trkpt lat="48.76443" lon="2.24553">
        <ele>174</ele>
        <time>2012-03-03T08:48:56Z</time>
      </trkpt>
      <trkpt lat="48.76424" lon="2.24562">
        <ele>173</ele>
        <time>2012-03-03T08:49:00Z</time>
      </trkpt>
      <trkpt lat="48.76411" lon="2.24574">
        <ele>173</ele>
        <time>2012-03-03T08:49:03Z</time>
      </trkpt>
      <trkpt lat="48.7639" lon="2.246">
        <ele>172</ele>
        <time>2012-03-03T08:49:08Z</time>
      </trkpt>
      <trkpt lat="48.76381" lon="2.24612">
        <ele>171</ele>
        <time>2012-03-03T08:49:10Z</time>
      </trkpt>
      <trkpt lat="48.76358" lon="2.24631">
        <ele>171</ele>
        <time>2012-03-03T08:49:15Z</time>
      </trkpt>
      <trkpt lat="48.76344" lon="2.24638">
        <ele>171</ele>
        <time>2012-03-03T08:49:18Z</time>
      </trkpt>
      <trkpt lat="48.76325" lon="2.24644">
        <ele>171</ele>
        <time>2012-03-03T08:49:22Z</time>
      </trkpt>
      <trkpt lat="48.76318" lon="2.24626">
        <ele>172</ele>
        <time>2012-03-03T08:49:25Z</time>
      </trkpt>
      <trkpt lat="48.76318" lon="2.24599">
        <ele>173</ele>
        <time>2012-03-03T08:49:29Z</time>
      </trkpt>
      <trkpt lat="48.76318" lon="2.24587">
        <ele>173</ele>
        <time>2012-03-03T08:49:31Z</time>
      </trkpt>
      <trkpt lat="48.76307" lon="2.24573">
        <ele>174</ele>
        <time>2012-03-03T08:49:35Z</time>
      </trkpt>
      <trkpt lat="48.76303" lon="2.2457">
        <ele>174</ele>
        <time>2012-03-03T08:49:36Z</time>
      </trkpt>
      <trkpt lat="48.76292" lon="2.24558">
        <ele>174</ele>
        <time>2012-03-03T08:49:40Z</time>
      </trkpt>
      <trkpt lat="48.76282" lon="2.24565">
        <ele>174</ele>
        <time>2012-03-03T08:49:44Z</time>
      </trkpt>
      <trkpt lat="48.76278" lon="2.2458">
        <ele>173</ele>
        <time>2012-03-03T08:49:49Z</time>
      </trkpt>
      <trkpt lat="48.76279" lon="2.24586">
        <ele>172</ele>
        <time>2012-03-03T08:49:50Z</time>
      </trkpt>
      <trkpt lat="48.76284" lon="2.24612">
        <ele>172</ele>
        <time>2012-03-03T08:49:55Z</time>
      </trkpt>
      <trkpt lat="48.76272" lon="2.24634">
        <ele>171</ele>
        <time>2012-03-03T08:50:00Z</time>
      </trkpt>
      <trkpt lat="48.76268" lon="2.24647">
        <ele>171</ele>
        <time>2012-03-03T08:50:02Z</time>
      </trkpt>
      <trkpt lat="48.76272" lon="2.2467">
        <ele>169</ele>
        <time>2012-03-03T08:50:07Z</time>
      </trkpt>
      <trkpt lat="48.76273" lon="2.24675">
        <ele>169</ele>
        <time>2012-03-03T08:50:08Z</time>
      </trkpt>
      <trkpt lat="48.76268" lon="2.24697">
        <ele>169</ele>
        <time>2012-03-03T08:50:12Z</time>
      </trkpt>
      <trkpt lat="48.76268" lon="2.24703">
        <ele>169</ele>
        <time>2012-03-03T08:50:13Z</time>
      </trkpt>
      <trkpt lat="48.76262" lon="2.24732">
        <ele>168</ele>
        <time>2012-03-03T08:50:18Z</time>
      </trkpt>
      <trkpt lat="48.7626" lon="2.24754">
        <ele>167</ele>
        <time>2012-03-03T08:50:22Z</time>
      </trkpt>
      <trkpt lat="48.76264" lon="2.24767">
        <ele>167</ele>
        <time>2012-03-03T08:50:25Z</time>
      </trkpt>
      <trkpt lat="48.76264" lon="2.24785">
        <ele>167</ele>
        <time>2012-03-03T08:50:29Z</time>
      </trkpt>
      <trkpt lat="48.76258" lon="2.24793">
        <ele>166</ele>
        <time>2012-03-03T08:50:32Z</time>
      </trkpt>
      <trkpt lat="48.76243" lon="2.24805">
        <ele>168</ele>
        <time>2012-03-03T08:50:37Z</time>
      </trkpt>
      <trkpt lat="48.76232" lon="2.24812">
        <ele>168</ele>
        <time>2012-03-03T08:50:41Z</time>
      </trkpt>
      <trkpt lat="48.7622" lon="2.24801">
        <ele>169</ele>
        <time>2012-03-03T08:50:45Z</time>
      </trkpt>
      <trkpt lat="48.76206" lon="2.24809">
        <ele>169</ele>
        <time>2012-03-03T08:50:49Z</time>
      </trkpt>
      <trkpt lat="48.76196" lon="2.24804">
        <ele>170</ele>
        <time>2012-03-03T08:50:52Z</time>
      </trkpt>
      <trkpt lat="48.76188" lon="2.2481">
        <ele>170</ele>
        <time>2012-03-03T08:50:55Z</time>
      </trkpt>
      <trkpt lat="48.76184" lon="2.24833">
        <ele>170</ele>
        <time>2012-03-03T08:50:59Z</time>
      </trkpt>
      <trkpt lat="48.76182" lon="2.24865">
        <ele>168</ele>
        <time>2012-03-03T08:51:03Z</time>
      </trkpt>
      <trkpt lat="48.76172" lon="2.24895">
        <ele>168</ele>
        <time>2012-03-03T08:51:07Z</time>
      </trkpt>
      <trkpt lat="48.7616" lon="2.24909">
        <ele>168</ele>
        <time>2012-03-03T08:51:10Z</time>
      </trkpt>
      <trkpt lat="48.76138" lon="2.24926">
        <ele>166</ele>
        <time>2012-03-03T08:51:15Z</time>
      </trkpt>
      <trkpt lat="48.76125" lon="2.24939">
        <ele>166</ele>
        <time>2012-03-03T08:51:18Z</time>
      </trkpt>
      <trkpt lat="48.76115" lon="2.24976">
        <ele>165</ele>
        <time>2012-03-03T08:51:23Z</time>
      </trkpt>
      <trkpt lat="48.76118" lon="2.25004">
        <ele>163</ele>
        <time>2012-03-03T08:51:26Z</time>
      </trkpt>
      <trkpt lat="48.76112" lon="2.25035">
        <ele>162</ele>
        <time>2012-03-03T08:51:30Z</time>
      </trkpt>
      <trkpt lat="48.76102" lon="2.25055">
        <ele>162</ele>
        <time>2012-03-03T08:51:34Z</time>
      </trkpt>
      <trkpt lat="48.76096" lon="2.25079">
        <ele>162</ele>
        <time>2012-03-03T08:51:38Z</time>
      </trkpt>
      <trkpt lat="48.76086" lon="2.25097">
        <ele>162</ele>
        <time>2012-03-03T08:51:42Z</time>
      </trkpt>
      <trkpt lat="48.76083" lon="2.25119">
        <ele>164</ele>
        <time>2012-03-03T08:51:46Z</time>
      </trkpt>
      <trkpt lat="48.76085" lon="2.25143">
        <ele>161</ele>
        <time>2012-03-03T08:51:50Z</time>
      </trkpt>
      <trkpt lat="48.76081" lon="2.25157">
        <ele>164</ele>
        <time>2012-03-03T08:51:52Z</time>
      </trkpt>
      <trkpt lat="48.76077" lon="2.25169">
        <ele>164</ele>
        <time>2012-03-03T08:51:54Z</time>
      </trkpt>
      <trkpt lat="48.76063" lon="2.25188">
        <ele>165</ele>
        <time>2012-03-03T08:51:59Z</time>
      </trkpt>
      <trkpt lat="48.76049" lon="2.2521">
        <ele>166</ele>
        <time>2012-03-03T08:52:04Z</time>
      </trkpt>
      <trkpt lat="48.76031" lon="2.25219">
        <ele>167</ele>
        <time>2012-03-03T08:52:08Z</time>
      </trkpt>
      <trkpt lat="48.76027" lon="2.25224">
        <ele>167</ele>
        <time>2012-03-03T08:52:09Z</time>
      </trkpt>
      <trkpt lat="48.76014" lon="2.25241">
        <ele>168</ele>
        <time>2012-03-03T08:52:13Z</time>
      </trkpt>
      <trkpt lat="48.76001" lon="2.2528">
        <ele>168</ele>
        <time>2012-03-03T08:52:19Z</time>
      </trkpt>
      <trkpt lat="48.75997" lon="2.25294">
        <ele>172</ele>
        <time>2012-03-03T08:52:21Z</time>
      </trkpt>
      <trkpt lat="48.75988" lon="2.25328">
        <ele>172</ele>
        <time>2012-03-03T08:52:26Z</time>
      </trkpt>
      <trkpt lat="48.75979" lon="2.2536">
        <ele>171</ele>
        <time>2012-03-03T08:52:31Z</time>
      </trkpt>
      <trkpt lat="48.75972" lon="2.25399">
        <ele>170</ele>
        <time>2012-03-03T08:52:37Z</time>
      </trkpt>
      <trkpt lat="48.75968" lon="2.25419">
        <ele>168</ele>
        <time>2012-03-03T08:52:40Z</time>
      </trkpt>
      <trkpt lat="48.75964" lon="2.25445">
        <ele>167</ele>
        <time>2012-03-03T08:52:44Z</time>
      </trkpt>
      <trkpt lat="48.75958" lon="2.25467">
        <ele>167</ele>
        <time>2012-03-03T08:52:47Z</time>
      </trkpt>
      <trkpt lat="48.75947" lon="2.25491">
        <ele>167</ele>
        <time>2012-03-03T08:52:51Z</time>
      </trkpt>
      <trkpt lat="48.75938" lon="2.25516">
        <ele>165</ele>
        <time>2012-03-03T08:52:56Z</time>
      </trkpt>
      <trkpt lat="48.75936" lon="2.2554">
        <ele>165</ele>
        <time>2012-03-03T08:53:00Z</time>
      </trkpt>
      <trkpt lat="48.75936" lon="2.25546">
        <ele>165</ele>
        <time>2012-03-03T08:53:01Z</time>
      </trkpt>
      <trkpt lat="48.75927" lon="2.25581">
        <ele>165</ele>
        <time>2012-03-03T08:53:07Z</time>
      </trkpt>
      <trkpt lat="48.75917" lon="2.25594">
        <ele>165</ele>
        <time>2012-03-03T08:53:11Z</time>
      </trkpt>
      <trkpt lat="48.75919" lon="2.25622">
        <ele>165</ele>
        <time>2012-03-03T08:53:16Z</time>
      </trkpt>
      <trkpt lat="48.75919" lon="2.25657">
        <ele>166</ele>
        <time>2012-03-03T08:53:21Z</time>
      </trkpt>
      <trkpt lat="48.75922" lon="2.2567">
        <ele>167</ele>
        <time>2012-03-03T08:53:23Z</time>
      </trkpt>
      <trkpt lat="48.75924" lon="2.25685">
        <ele>166</ele>
        <time>2012-03-03T08:53:25Z</time>
      </trkpt>
      <trkpt lat="48.75925" lon="2.25705">
        <ele>166</ele>
        <time>2012-03-03T08:53:28Z</time>
      </trkpt>
      <trkpt lat="48.7593" lon="2.25721">
        <ele>166</ele>
        <time>2012-03-03T08:53:32Z</time>
      </trkpt>
      <trkpt lat="48.75926" lon="2.25737">
        <ele>168</ele>
        <time>2012-03-03T08:53:35Z</time>
      </trkpt>
      <trkpt lat="48.75917" lon="2.25758">
        <ele>169</ele>
        <time>2012-03-03T08:53:39Z</time>
      </trkpt>
      <trkpt lat="48.75916" lon="2.25788">
        <ele>172</ele>
        <time>2012-03-03T08:53:43Z</time>
      </trkpt>
      <trkpt lat="48.75917" lon="2.2581">
        <ele>166</ele>
        <time>2012-03-03T08:53:46Z</time>
      </trkpt>
      <trkpt lat="48.75916" lon="2.25817">
        <ele>171</ele>
        <time>2012-03-03T08:53:47Z</time>
      </trkpt>
      <trkpt lat="48.75912" lon="2.25861">
        <ele>171</ele>
        <time>2012-03-03T08:53:53Z</time>
      </trkpt>
      <trkpt lat="48.75911" lon="2.25868">
        <ele>171</ele>
        <time>2012-03-03T08:53:54Z</time>
      </trkpt>
      <trkpt lat="48.75907" lon="2.25892">
        <ele>171</ele>
        <time>2012-03-03T08:53:57Z</time>
      </trkpt>
      <trkpt lat="48.759" lon="2.25922">
        <ele>171</ele>
        <time>2012-03-03T08:54:01Z</time>
      </trkpt>
      <trkpt lat="48.75903" lon="2.25941">
        <ele>171</ele>
        <time>2012-03-03T08:54:04Z</time>
      </trkpt>
      <trkpt lat="48.75904" lon="2.25972">
        <ele>170</ele>
        <time>2012-03-03T08:54:08Z</time>
      </trkpt>
      <trkpt lat="48.75899" lon="2.25984">
        <ele>170</ele>
        <time>2012-03-03T08:54:10Z</time>
      </trkpt>
      <trkpt lat="48.75891" lon="2.25996">
        <ele>170</ele>
        <time>2012-03-03T08:54:12Z</time>
      </trkpt>
      <trkpt lat="48.75884" lon="2.26008">
        <ele>168</ele>
        <time>2012-03-03T08:54:14Z</time>
      </trkpt>
      <trkpt lat="48.75876" lon="2.26027">
        <ele>168</ele>
        <time>2012-03-03T08:54:17Z</time>
      </trkpt>
      <trkpt lat="48.7587" lon="2.26029">
        <ele>168</ele>
        <time>2012-03-03T08:54:21Z</time>
      </trkpt>
      <trkpt lat="48.75868" lon="2.26026">
        <ele>168</ele>
        <time>2012-03-03T08:54:22Z</time>
      </trkpt>
      <trkpt lat="48.75852" lon="2.26005">
        <ele>169</ele>
        <time>2012-03-03T08:54:30Z</time>
      </trkpt>
      <trkpt lat="48.75845" lon="2.25994">
        <ele>172</ele>
        <time>2012-03-03T08:54:35Z</time>
      </trkpt>
      <trkpt lat="48.7583" lon="2.25984">
        <ele>171</ele>
        <time>2012-03-03T08:54:40Z</time>
      </trkpt>
      <trkpt lat="48.75802" lon="2.2597">
        <ele>171</ele>
        <time>2012-03-03T08:54:46Z</time>
      </trkpt>
      <trkpt lat="48.75777" lon="2.25958">
        <ele>170</ele>
        <time>2012-03-03T08:54:51Z</time>
      </trkpt>
      <trkpt lat="48.75753" lon="2.25948">
        <ele>170</ele>
        <time>2012-03-03T08:54:56Z</time>
      </trkpt>
      <trkpt lat="48.75726" lon="2.25927">
        <ele>167</ele>
        <time>2012-03-03T08:55:02Z</time>
      </trkpt>
      <trkpt lat="48.75702" lon="2.259">
        <ele>170</ele>
        <time>2012-03-03T08:55:07Z</time>
      </trkpt>
      <trkpt lat="48.75687" lon="2.2588">
        <ele>170</ele>
        <time>2012-03-03T08:55:11Z</time>
      </trkpt>
      <trkpt lat="48.75675" lon="2.25847">
        <ele>171</ele>
        <time>2012-03-03T08:55:16Z</time>
      </trkpt>
      <trkpt lat="48.75663" lon="2.25816">
        <ele>171</ele>
        <time>2012-03-03T08:55:21Z</time>
      </trkpt>
      <trkpt lat="48.75653" lon="2.25782">
        <ele>171</ele>
        <time>2012-03-03T08:55:26Z</time>
      </trkpt>
      <trkpt lat="48.75649" lon="2.25764">
        <ele>171</ele>
        <time>2012-03-03T08:55:29Z</time>
      </trkpt>
      <trkpt lat="48.75638" lon="2.25746">
        <ele>172</ele>
        <time>2012-03-03T08:55:33Z</time>
      </trkpt>
      <trkpt lat="48.75624" lon="2.25714">
        <ele>173</ele>
        <time>2012-03-03T08:55:38Z</time>
      </trkpt>
      <trkpt lat="48.75619" lon="2.25693">
        <ele>173</ele>
        <time>2012-03-03T08:55:42Z</time>
      </trkpt>
      <trkpt lat="48.75597" lon="2.25645">
        <ele>175</ele>
        <time>2012-03-03T08:55:50Z</time>
      </trkpt>
      <trkpt lat="48.75595" lon="2.25639">
        <ele>175</ele>
        <time>2012-03-03T08:55:51Z</time>
      </trkpt>
      <trkpt lat="48.75591" lon="2.25626">
        <ele>175</ele>
        <time>2012-03-03T08:55:53Z</time>
      </trkpt>
      <trkpt lat="48.75579" lon="2.25598">
        <ele>176</ele>
        <time>2012-03-03T08:55:57Z</time>
      </trkpt>
      <trkpt lat="48.75561" lon="2.25574">
        <ele>176</ele>
        <time>2012-03-03T08:56:02Z</time>
      </trkpt>
      <trkpt lat="48.75537" lon="2.2556">
        <ele>176</ele>
        <time>2012-03-03T08:56:07Z</time>
      </trkpt>
      <trkpt lat="48.75518" lon="2.25548">
        <ele>176</ele>
        <time>2012-03-03T08:56:11Z</time>
      </trkpt>
      <trkpt lat="48.75513" lon="2.25546">
        <ele>176</ele>
        <time>2012-03-03T08:56:12Z</time>
      </trkpt>
      <trkpt lat="48.75495" lon="2.25536">
        <ele>174</ele>
        <time>2012-03-03T08:56:16Z</time>
      </trkpt>
      <trkpt lat="48.75471" lon="2.2552">
        <ele>174</ele>
        <time>2012-03-03T08:56:21Z</time>
      </trkpt>
      <trkpt lat="48.75451" lon="2.25505">
        <ele>174</ele>
        <time>2012-03-03T08:56:25Z</time>
      </trkpt>
      <trkpt lat="48.75441" lon="2.25483">
        <ele>174</ele>
        <time>2012-03-03T08:56:29Z</time>
      </trkpt>
      <trkpt lat="48.7543" lon="2.25465">
        <ele>174</ele>
        <time>2012-03-03T08:56:33Z</time>
      </trkpt>
      <trkpt lat="48.75426" lon="2.25464">
        <ele>174</ele>
        <time>2012-03-03T08:56:34Z</time>
      </trkpt>
      <trkpt lat="48.75406" lon="2.25459">
        <ele>173</ele>
        <time>2012-03-03T08:56:38Z</time>
      </trkpt>
      <trkpt lat="48.75391" lon="2.25444">
        <ele>172</ele>
        <time>2012-03-03T08:56:42Z</time>
      </trkpt>
      <trkpt lat="48.75375" lon="2.25434">
        <ele>172</ele>
        <time>2012-03-03T08:56:46Z</time>
      </trkpt>
      <trkpt lat="48.75372" lon="2.25413">
        <ele>172</ele>
        <time>2012-03-03T08:56:50Z</time>
      </trkpt>
      <trkpt lat="48.75378" lon="2.25367">
        <ele>172</ele>
        <time>2012-03-03T08:56:57Z</time>
      </trkpt>
      <trkpt lat="48.7538" lon="2.25338">
        <ele>173</ele>
        <time>2012-03-03T08:57:02Z</time>
      </trkpt>
      <trkpt lat="48.7537" lon="2.25331">
        <ele>172</ele>
        <time>2012-03-03T08:57:04Z</time>
      </trkpt>
      <trkpt lat="48.75344" lon="2.25323">
        <ele>171</ele>
        <time>2012-03-03T08:57:10Z</time>
      </trkpt>
      <trkpt lat="48.75336" lon="2.25328">
        <ele>170</ele>
        <time>2012-03-03T08:57:12Z</time>
      </trkpt>
      <trkpt lat="48.75322" lon="2.25336">
        <ele>169</ele>
        <time>2012-03-03T08:57:15Z</time>
      </trkpt>
      <trkpt lat="48.75307" lon="2.25346">
        <ele>169</ele>
        <time>2012-03-03T08:57:19Z</time>
      </trkpt>
      <trkpt lat="48.75295" lon="2.25354">
        <ele>169</ele>
        <time>2012-03-03T08:57:24Z</time>
      </trkpt>
      <trkpt lat="48.75285" lon="2.25374">
        <ele>168</ele>
        <time>2012-03-03T08:57:29Z</time>
      </trkpt>
      <trkpt lat="48.7528" lon="2.25383">
        <ele>168</ele>
        <time>2012-03-03T08:57:32Z</time>
      </trkpt>
      <trkpt lat="48.75281" lon="2.254">
        <ele>168</ele>
        <time>2012-03-03T08:57:37Z</time>
      </trkpt>
      <trkpt lat="48.7528" lon="2.25405">
        <ele>168</ele>
        <time>2012-03-03T08:57:38Z</time>
      </trkpt>
      <trkpt lat="48.75276" lon="2.25434">
        <ele>168</ele>
        <time>2012-03-03T08:57:44Z</time>
      </trkpt>
      <trkpt lat="48.75275" lon="2.25451">
        <ele>168</ele>
        <time>2012-03-03T08:57:47Z</time>
      </trkpt>
      <trkpt lat="48.75266" lon="2.25472">
        <ele>168</ele>
        <time>2012-03-03T08:57:52Z</time>
      </trkpt>
      <trkpt lat="48.75258" lon="2.25499">
        <ele>167</ele>
        <time>2012-03-03T08:57:57Z</time>
      </trkpt>
      <trkpt lat="48.75253" lon="2.25508">
        <ele>168</ele>
        <time>2012-03-03T08:57:59Z</time>
      </trkpt>
      <trkpt lat="48.75246" lon="2.2549">
        <ele>165</ele>
        <time>2012-03-03T08:58:03Z</time>
      </trkpt>
      <trkpt lat="48.75243" lon="2.25422">
        <ele>165</ele>
        <time>2012-03-03T08:58:11Z</time>
      </trkpt>
      <trkpt lat="48.75243" lon="2.25414">
        <ele>166</ele>
        <time>2012-03-03T08:58:12Z</time>
      </trkpt>
      <trkpt lat="48.75235" lon="2.25392">
        <ele>166</ele>
        <time>2012-03-03T08:58:16Z</time>
      </trkpt>
      <trkpt lat="48.75224" lon="2.25392">
        <ele>166</ele>
        <time>2012-03-03T08:58:19Z</time>
      </trkpt>
      <trkpt lat="48.75203" lon="2.25397">
        <ele>165</ele>
        <time>2012-03-03T08:58:23Z</time>
      </trkpt>
      <trkpt lat="48.75179" lon="2.25409">
        <ele>164</ele>
        <time>2012-03-03T08:58:27Z</time>
      </trkpt>
      <trkpt lat="48.75161" lon="2.2542">
        <ele>160</ele>
        <time>2012-03-03T08:58:30Z</time>
      </trkpt>
      <trkpt lat="48.75131" lon="2.25422">
        <ele>155</ele>
        <time>2012-03-03T08:58:35Z</time>
      </trkpt>
      <trkpt lat="48.75122" lon="2.2541">
        <ele>159</ele>
        <time>2012-03-03T08:58:38Z</time>
      </trkpt>
      <trkpt lat="48.7512" lon="2.25392">
        <ele>159</ele>
        <time>2012-03-03T08:58:41Z</time>
      </trkpt>
      <trkpt lat="48.75111" lon="2.2537">
        <ele>159</ele>
        <time>2012-03-03T08:58:45Z</time>
      </trkpt>
      <trkpt lat="48.75107" lon="2.25357">
        <ele>159</ele>
        <time>2012-03-03T08:58:47Z</time>
      </trkpt>
      <trkpt lat="48.75106" lon="2.25337">
        <ele>159</ele>
        <time>2012-03-03T08:58:50Z</time>
      </trkpt>
      <trkpt lat="48.75105" lon="2.25317">
        <ele>159</ele>
        <time>2012-03-03T08:58:53Z</time>
      </trkpt>
      <trkpt lat="48.75103" lon="2.25298">
        <ele>159</ele>
        <time>2012-03-03T08:58:58Z</time>
      </trkpt>
      <trkpt lat="48.75099" lon="2.25292">
        <ele>159</ele>
        <time>2012-03-03T08:59:02Z</time>
      </trkpt>
      <trkpt lat="48.75101" lon="2.25282">
        <ele>159</ele>
        <time>2012-03-03T08:59:06Z</time>
      </trkpt>
      <trkpt lat="48.75108" lon="2.25274">
        <ele>159</ele>
        <time>2012-03-03T08:59:09Z</time>
      </trkpt>
      <trkpt lat="48.75121" lon="2.25265">
        <ele>160</ele>
        <time>2012-03-03T08:59:14Z</time>
      </trkpt>
      <trkpt lat="48.75136" lon="2.25247">
        <ele>160</ele>
        <time>2012-03-03T08:59:20Z</time>
      </trkpt>
      <trkpt lat="48.75142" lon="2.25233">
        <ele>160</ele>
        <time>2012-03-03T08:59:25Z</time>
      </trkpt>
      <trkpt lat="48.75141" lon="2.25217">
        <ele>160</ele>
        <time>2012-03-03T08:59:28Z</time>
      </trkpt>
      <trkpt lat="48.75141" lon="2.25199">
        <ele>160</ele>
        <time>2012-03-03T08:59:32Z</time>
      </trkpt>
      <trkpt lat="48.75139" lon="2.25185">
        <ele>159</ele>
        <time>2012-03-03T08:59:37Z</time>
      </trkpt>
      <trkpt lat="48.7513" lon="2.25172">
        <ele>159</ele>
        <time>2012-03-03T08:59:41Z</time>
      </trkpt>
      <trkpt lat="48.75115" lon="2.25159">
        <ele>160</ele>
        <time>2012-03-03T08:59:47Z</time>
      </trkpt>
      <trkpt lat="48.75109" lon="2.25147">
        <ele>160</ele>
        <time>2012-03-03T08:59:51Z</time>
      </trkpt>
      <trkpt lat="48.75114" lon="2.25131">
        <ele>161</ele>
        <time>2012-03-03T08:59:57Z</time>
      </trkpt>
      <trkpt lat="48.75116" lon="2.25128">
        <ele>161</ele>
        <time>2012-03-03T08:59:58Z</time>
      </trkpt>
      <trkpt lat="48.75119" lon="2.25116">
        <ele>162</ele>
        <time>2012-03-03T09:00:03Z</time>
      </trkpt>
      <trkpt lat="48.75117" lon="2.25116">
        <ele>162</ele>
        <time>2012-03-03T09:00:04Z</time>
      </trkpt>
      <trkpt lat="48.751" lon="2.25101">
        <ele>162</ele>
        <time>2012-03-03T09:00:10Z</time>
      </trkpt>
      <trkpt lat="48.75084" lon="2.25076">
        <ele>163</ele>
        <time>2012-03-03T09:00:14Z</time>
      </trkpt>
      <trkpt lat="48.75077" lon="2.25065">
        <ele>163</ele>
        <time>2012-03-03T09:00:16Z</time>
      </trkpt>
      <trkpt lat="48.75067" lon="2.25048">
        <ele>163</ele>
        <time>2012-03-03T09:00:20Z</time>
      </trkpt>
      <trkpt lat="48.75048" lon="2.2504">
        <ele>163</ele>
        <time>2012-03-03T09:00:25Z</time>
      </trkpt>
      <trkpt lat="48.75045" lon="2.25042">
        <ele>163</ele>
        <time>2012-03-03T09:00:26Z</time>
      </trkpt>
      <trkpt lat="48.75025" lon="2.25059">
        <ele>162</ele>
        <time>2012-03-03T09:00:31Z</time>
      </trkpt>
      <trkpt lat="48.75014" lon="2.25058">
        <ele>161</ele>
        <time>2012-03-03T09:00:35Z</time>
      </trkpt>
      <trkpt lat="48.75005" lon="2.25066">
        <ele>160</ele>
        <time>2012-03-03T09:00:39Z</time>
      </trkpt>
      <trkpt lat="48.74995" lon="2.25065">
        <ele>160</ele>
        <time>2012-03-03T09:00:42Z</time>
      </trkpt>
      <trkpt lat="48.74988" lon="2.25061">
        <ele>160</ele>
        <time>2012-03-03T09:00:44Z</time>
      </trkpt>
      <trkpt lat="48.74976" lon="2.25051">
        <ele>161</ele>
        <time>2012-03-03T09:00:48Z</time>
      </trkpt>
      <trkpt lat="48.74961" lon="2.2505">
        <ele>161</ele>
        <time>2012-03-03T09:00:52Z</time>
      </trkpt>
      <trkpt lat="48.74937" lon="2.25043">
        <ele>162</ele>
        <time>2012-03-03T09:00:58Z</time>
      </trkpt>
      <trkpt lat="48.74933" lon="2.25043">
        <ele>162</ele>
        <time>2012-03-03T09:00:59Z</time>
      </trkpt>
      <trkpt lat="48.74913" lon="2.2504">
        <ele>163</ele>
        <time>2012-03-03T09:01:05Z</time>
      </trkpt>
      <trkpt lat="48.74908" lon="2.25024">
        <ele>163</ele>
        <time>2012-03-03T09:01:08Z</time>
      </trkpt>
      <trkpt lat="48.74908" lon="2.25001">
        <ele>164</ele>
        <time>2012-03-03T09:01:12Z</time>
      </trkpt>
      <trkpt lat="48.74908" lon="2.24989">
        <ele>165</ele>
        <time>2012-03-03T09:01:14Z</time>
      </trkpt>
      <trkpt lat="48.74902" lon="2.24976">
        <ele>165</ele>
        <time>2012-03-03T09:01:18Z</time>
      </trkpt>
      <trkpt lat="48.74887" lon="2.24967">
        <ele>165</ele>
        <time>2012-03-03T09:01:22Z</time>
      </trkpt>
      <trkpt lat="48.74866" lon="2.24955">
        <ele>164</ele>
        <time>2012-03-03T09:01:28Z</time>
      </trkpt>
      <trkpt lat="48.74861" lon="2.24945">
        <ele>164</ele>
        <time>2012-03-03T09:01:32Z</time>
      </trkpt>
      <trkpt lat="48.74854" lon="2.24932">
        <ele>164</ele>
        <time>2012-03-03T09:01:36Z</time>
      </trkpt>
      <trkpt lat="48.74832" lon="2.24909">
        <ele>163</ele>
        <time>2012-03-03T09:01:42Z</time>
      </trkpt>
      <trkpt lat="48.7482" lon="2.24892">
        <ele>164</ele>
        <time>2012-03-03T09:01:45Z</time>
      </trkpt>
      <trkpt lat="48.74802" lon="2.24877">
        <ele>164</ele>
        <time>2012-03-03T09:01:49Z</time>
      </trkpt>
      <trkpt lat="48.74767" lon="2.24846">
        <ele>164</ele>
        <time>2012-03-03T09:01:57Z</time>
      </trkpt>
      <trkpt lat="48.74738" lon="2.24817">
        <ele>163</ele>
        <time>2012-03-03T09:02:04Z</time>
      </trkpt>
      <trkpt lat="48.74734" lon="2.24814">
        <ele>163</ele>
        <time>2012-03-03T09:02:05Z</time>
      </trkpt>
      <trkpt lat="48.74718" lon="2.24811">
        <ele>162</ele>
        <time>2012-03-03T09:02:09Z</time>
      </trkpt>
      <trkpt lat="48.74709" lon="2.2481">
        <ele>162</ele>
        <time>2012-03-03T09:02:11Z</time>
      </trkpt>
      <trkpt lat="48.74697" lon="2.2481">
        <ele>162</ele>
        <time>2012-03-03T09:02:14Z</time>
      </trkpt>
      <trkpt lat="48.74666" lon="2.24814">
        <ele>161</ele>
        <time>2012-03-03T09:02:21Z</time>
      </trkpt>
      <trkpt lat="48.74657" lon="2.24814">
        <ele>161</ele>
        <time>2012-03-03T09:02:23Z</time>
      </trkpt>
      <trkpt lat="48.74649" lon="2.24816">
        <ele>161</ele>
        <time>2012-03-03T09:02:25Z</time>
      </trkpt>
      <trkpt lat="48.74625" lon="2.24817">
        <ele>160</ele>
        <time>2012-03-03T09:02:31Z</time>
      </trkpt>
      <trkpt lat="48.746" lon="2.24822">
        <ele>160</ele>
        <time>2012-03-03T09:02:36Z</time>
      </trkpt>
      <trkpt lat="48.74578" lon="2.24812">
        <ele>155</ele>
        <time>2012-03-03T09:02:40Z</time>
      </trkpt>
      <trkpt lat="48.74547" lon="2.24775">
        <ele>153</ele>
        <time>2012-03-03T09:02:47Z</time>
      </trkpt>
      <trkpt lat="48.74523" lon="2.24745">
        <ele>155</ele>
        <time>2012-03-03T09:02:53Z</time>
      </trkpt>
      <trkpt lat="48.7452" lon="2.24741">
        <ele>154</ele>
        <time>2012-03-03T09:02:54Z</time>
      </trkpt>
      <trkpt lat="48.74504" lon="2.24721">
        <ele>155</ele>
        <time>2012-03-03T09:02:59Z</time>
      </trkpt>
      <trkpt lat="48.74483" lon="2.24698">
        <ele>153</ele>
        <time>2012-03-03T09:03:05Z</time>
      </trkpt>
      <trkpt lat="48.74466" lon="2.24675">
        <ele>154</ele>
        <time>2012-03-03T09:03:10Z</time>
      </trkpt>
      <trkpt lat="48.74454" lon="2.24663">
        <ele>156</ele>
        <time>2012-03-03T09:03:13Z</time>
      </trkpt>
      <trkpt lat="48.74433" lon="2.24644">
        <ele>156</ele>
        <time>2012-03-03T09:03:19Z</time>
      </trkpt>
      <trkpt lat="48.74425" lon="2.24636">
        <ele>156</ele>
        <time>2012-03-03T09:03:25Z</time>
      </trkpt>
      <trkpt lat="48.74424" lon="2.24638">
        <ele>156</ele>
        <time>2012-03-03T09:03:35Z</time>
      </trkpt>
      <trkpt lat="48.74422" lon="2.24636">
        <ele>156</ele>
        <time>2012-03-03T09:03:46Z</time>
      </trkpt>
      <trkpt lat="48.74421" lon="2.24635">
        <ele>156</ele>
        <time>2012-03-03T09:04:01Z</time>
      </trkpt>
      <trkpt lat="48.74422" lon="2.24638">
        <ele>156</ele>
        <time>2012-03-03T09:04:10Z</time>
      </trkpt>
      <trkpt lat="48.74421" lon="2.24639">
        <ele>156</ele>
        <time>2012-03-03T09:04:16Z</time>
      </trkpt>
      <trkpt lat="48.74421" lon="2.24641">
        <ele>156</ele>
        <time>2012-03-03T09:04:24Z</time>
      </trkpt>
      <trkpt lat="48.74422" lon="2.24644">
        <ele>156</ele>
        <time>2012-03-03T09:04:34Z</time>
      </trkpt>
      <trkpt lat="48.74422" lon="2.24645">
        <ele>156</ele>
        <time>2012-03-03T09:04:38Z</time>
      </trkpt>
      <trkpt lat="48.7441" lon="2.24651">
        <ele>154</ele>
        <time>2012-03-03T09:04:43Z</time>
      </trkpt>
      <trkpt lat="48.74391" lon="2.24657">
        <ele>153</ele>
        <time>2012-03-03T09:04:47Z</time>
      </trkpt>
      <trkpt lat="48.74386" lon="2.24658">
        <ele>153</ele>
        <time>2012-03-03T09:04:48Z</time>
      </trkpt>
      <trkpt lat="48.74353" lon="2.24669">
        <ele>148</ele>
        <time>2012-03-03T09:04:54Z</time>
      </trkpt>
      <trkpt lat="48.74333" lon="2.24664">
        <ele>148</ele>
        <time>2012-03-03T09:04:58Z</time>
      </trkpt>
      <trkpt lat="48.74325" lon="2.24663">
        <ele>147</ele>
        <time>2012-03-03T09:05:00Z</time>
      </trkpt>
      <trkpt lat="48.74316" lon="2.24668">
        <ele>143</ele>
        <time>2012-03-03T09:05:02Z</time>
      </trkpt>
      <trkpt lat="48.74292" lon="2.24663">
        <ele>142</ele>
        <time>2012-03-03T09:05:07Z</time>
      </trkpt>
      <trkpt lat="48.74278" lon="2.24652">
        <ele>140</ele>
        <time>2012-03-03T09:05:11Z</time>
      </trkpt>
      <trkpt lat="48.74281" lon="2.24641">
        <ele>141</ele>
        <time>2012-03-03T09:05:14Z</time>
      </trkpt>
      <trkpt lat="48.7429" lon="2.24634">
        <ele>141</ele>
        <time>2012-03-03T09:05:18Z</time>
      </trkpt>
      <trkpt lat="48.74302" lon="2.2462">
        <ele>142</ele>
        <time>2012-03-03T09:05:24Z</time>
      </trkpt>
      <trkpt lat="48.74309" lon="2.24603">
        <ele>143</ele>
        <time>2012-03-03T09:05:28Z</time>
      </trkpt>
      <trkpt lat="48.74323" lon="2.24581">
        <ele>146</ele>
        <time>2012-03-03T09:05:33Z</time>
      </trkpt>
      <trkpt lat="48.74344" lon="2.24554">
        <ele>150</ele>
        <time>2012-03-03T09:05:40Z</time>
      </trkpt>
      <trkpt lat="48.74351" lon="2.24544">
        <ele>150</ele>
        <time>2012-03-03T09:05:42Z</time>
      </trkpt>
      <trkpt lat="48.7436" lon="2.2451">
        <ele>150</ele>
        <time>2012-03-03T09:05:47Z</time>
      </trkpt>
      <trkpt lat="48.74359" lon="2.24497">
        <ele>150</ele>
        <time>2012-03-03T09:05:49Z</time>
      </trkpt>
      <trkpt lat="48.74346" lon="2.2444">
        <ele>150</ele>
        <time>2012-03-03T09:05:57Z</time>
      </trkpt>
      <trkpt lat="48.74341" lon="2.24403">
        <ele>150</ele>
        <time>2012-03-03T09:06:02Z</time>
      </trkpt>
      <trkpt lat="48.7434" lon="2.24396">
        <ele>150</ele>
        <time>2012-03-03T09:06:03Z</time>
      </trkpt>
      <trkpt lat="48.74331" lon="2.24364">
        <ele>142</ele>
        <time>2012-03-03T09:06:08Z</time>
      </trkpt>
      <trkpt lat="48.74329" lon="2.24356">
        <ele>142</ele>
        <time>2012-03-03T09:06:13Z</time>
      </trkpt>
      <trkpt lat="48.74328" lon="2.24355">
        <ele>142</ele>
        <time>2012-03-03T09:06:14Z</time>
      </trkpt>
      <trkpt lat="48.74325" lon="2.24351">
        <ele>142</ele>
        <time>2012-03-03T09:06:23Z</time>
      </trkpt>
      <trkpt lat="48.74325" lon="2.2435">
        <ele>142</ele>
        <time>2012-03-03T09:06:25Z</time>
      </trkpt>
      <trkpt lat="48.74323" lon="2.24336">
        <ele>143</ele>
        <time>2012-03-03T09:06:31Z</time>
      </trkpt>
      <trkpt lat="48.74318" lon="2.2432">
        <ele>141</ele>
        <time>2012-03-03T09:06:36Z</time>
      </trkpt>
      <trkpt lat="48.74313" lon="2.243">
        <ele>139</ele>
        <time>2012-03-03T09:06:42Z</time>
      </trkpt>
      <trkpt lat="48.7431" lon="2.24291">
        <ele>139</ele>
        <time>2012-03-03T09:06:45Z</time>
      </trkpt>
      <trkpt lat="48.74299" lon="2.24287">
        <ele>138</ele>
        <time>2012-03-03T09:06:49Z</time>
      </trkpt>
      <trkpt lat="48.7429" lon="2.24297">
        <ele>137</ele>
        <time>2012-03-03T09:06:52Z</time>
      </trkpt>
      <trkpt lat="48.74283" lon="2.24311">
        <ele>137</ele>
        <time>2012-03-03T09:06:55Z</time>
      </trkpt>
      <trkpt lat="48.74277" lon="2.24329">
        <ele>136</ele>
        <time>2012-03-03T09:06:58Z</time>
      </trkpt>
      <trkpt lat="48.74266" lon="2.24346">
        <ele>135</ele>
        <time>2012-03-03T09:07:02Z</time>
      </trkpt>
      <trkpt lat="48.74255" lon="2.24361">
        <ele>135</ele>
        <time>2012-03-03T09:07:05Z</time>
      </trkpt>
      <trkpt lat="48.7425" lon="2.24385">
        <ele>135</ele>
        <time>2012-03-03T09:07:09Z</time>
      </trkpt>
      <trkpt lat="48.74249" lon="2.24396">
        <ele>124</ele>
        <time>2012-03-03T09:07:11Z</time>
      </trkpt>
      <trkpt lat="48.74249" lon="2.24415">
        <ele>127</ele>
        <time>2012-03-03T09:07:14Z</time>
      </trkpt>
      <trkpt lat="48.74246" lon="2.24439">
        <ele>122</ele>
        <time>2012-03-03T09:07:18Z</time>
      </trkpt>
      <trkpt lat="48.74239" lon="2.24461">
        <ele>121</ele>
        <time>2012-03-03T09:07:23Z</time>
      </trkpt>
      <trkpt lat="48.74238" lon="2.24479">
        <ele>121</ele>
        <time>2012-03-03T09:07:27Z</time>
      </trkpt>
      <trkpt lat="48.74236" lon="2.24494">
        <ele>122</ele>
        <time>2012-03-03T09:07:30Z</time>
      </trkpt>
      <trkpt lat="48.74226" lon="2.24499">
        <ele>120</ele>
        <time>2012-03-03T09:07:34Z</time>
      </trkpt>
      <trkpt lat="48.74215" lon="2.24497">
        <ele>118</ele>
        <time>2012-03-03T09:07:38Z</time>
      </trkpt>
      <trkpt lat="48.74205" lon="2.24495">
        <ele>117</ele>
        <time>2012-03-03T09:07:42Z</time>
      </trkpt>
      <trkpt lat="48.74207" lon="2.24483">
        <ele>117</ele>
        <time>2012-03-03T09:07:46Z</time>
      </trkpt>
      <trkpt lat="48.74207" lon="2.2448">
        <ele>117</ele>
        <time>2012-03-03T09:07:47Z</time>
      </trkpt>
      <trkpt lat="48.74206" lon="2.24457">
        <ele>117</ele>
        <time>2012-03-03T09:07:54Z</time>
      </trkpt>
      <trkpt lat="48.74204" lon="2.24435">
        <ele>117</ele>
        <time>2012-03-03T09:08:00Z</time>
      </trkpt>
      <trkpt lat="48.74204" lon="2.24406">
        <ele>118</ele>
        <time>2012-03-03T09:08:07Z</time>
      </trkpt>
      <trkpt lat="48.74204" lon="2.24385">
        <ele>118</ele>
        <time>2012-03-03T09:08:13Z</time>
      </trkpt>
      <trkpt lat="48.74207" lon="2.24363">
        <ele>119</ele>
        <time>2012-03-03T09:08:19Z</time>
      </trkpt>
      <trkpt lat="48.7421" lon="2.24341">
        <ele>120</ele>
        <time>2012-03-03T09:08:25Z</time>
      </trkpt>
      <trkpt lat="48.74215" lon="2.2433">
        <ele>122</ele>
        <time>2012-03-03T09:08:29Z</time>
      </trkpt>
      <trkpt lat="48.74224" lon="2.24312">
        <ele>123</ele>
        <time>2012-03-03T09:08:36Z</time>
      </trkpt>
      <trkpt lat="48.74236" lon="2.24287">
        <ele>123</ele>
        <time>2012-03-03T09:08:44Z</time>
      </trkpt>
      <trkpt lat="48.74241" lon="2.24259">
        <ele>126</ele>
        <time>2012-03-03T09:08:50Z</time>
      </trkpt>
      <trkpt lat="48.74243" lon="2.24225">
        <ele>123</ele>
        <time>2012-03-03T09:08:56Z</time>
      </trkpt>
      <trkpt lat="48.74245" lon="2.24215">
        <ele>122</ele>
        <time>2012-03-03T09:08:58Z</time>
      </trkpt>
      <trkpt lat="48.74258" lon="2.24189">
        <ele>130</ele>
        <time>2012-03-03T09:09:05Z</time>
      </trkpt>
      <trkpt lat="48.74271" lon="2.24181">
        <ele>131</ele>
        <time>2012-03-03T09:09:11Z</time>
      </trkpt>
      <trkpt lat="48.74283" lon="2.24178">
        <ele>132</ele>
        <time>2012-03-03T09:09:17Z</time>
      </trkpt>
      <trkpt lat="48.74294" lon="2.24174">
        <ele>133</ele>
        <time>2012-03-03T09:09:23Z</time>
      </trkpt>
      <trkpt lat="48.74302" lon="2.24177">
        <ele>134</ele>
        <time>2012-03-03T09:09:28Z</time>
      </trkpt>
      <trkpt lat="48.74306" lon="2.24177">
        <ele>134</ele>
        <time>2012-03-03T09:09:30Z</time>
      </trkpt>
      <trkpt lat="48.74309" lon="2.24174">
        <ele>134</ele>
        <time>2012-03-03T09:09:37Z</time>
      </trkpt>
      <trkpt lat="48.74314" lon="2.24177">
        <ele>135</ele>
        <time>2012-03-03T09:09:41Z</time>
      </trkpt>
      <trkpt lat="48.74319" lon="2.24181">
        <ele>135</ele>
        <time>2012-03-03T09:09:44Z</time>
      </trkpt>
      <trkpt lat="48.74331" lon="2.2419">
        <ele>136</ele>
        <time>2012-03-03T09:09:50Z</time>
      </trkpt>
      <trkpt lat="48.7434" lon="2.24183">
        <ele>139</ele>
        <time>2012-03-03T09:09:55Z</time>
      </trkpt>
      <trkpt lat="48.74343" lon="2.24181">
        <ele>139</ele>
        <time>2012-03-03T09:09:56Z</time>
      </trkpt>
      <trkpt lat="48.74359" lon="2.24164">
        <ele>136</ele>
        <time>2012-03-03T09:10:01Z</time>
      </trkpt>
      <trkpt lat="48.74371" lon="2.24152">
        <ele>136</ele>
        <time>2012-03-03T09:10:04Z</time>
      </trkpt>
      <trkpt lat="48.7438" lon="2.24143">
        <ele>136</ele>
        <time>2012-03-03T09:10:06Z</time>
      </trkpt>
      <trkpt lat="48.74382" lon="2.24133">
        <ele>135</ele>
        <time>2012-03-03T09:10:10Z</time>
      </trkpt>
      <trkpt lat="48.74361" lon="2.24129">
        <ele>135</ele>
        <time>2012-03-03T09:10:14Z</time>
      </trkpt>
      <trkpt lat="48.74348" lon="2.24113">
        <ele>133</ele>
        <time>2012-03-03T09:10:18Z</time>
      </trkpt>
      <trkpt lat="48.7434" lon="2.24109">
        <ele>133</ele>
        <time>2012-03-03T09:10:22Z</time>
      </trkpt>
      <trkpt lat="48.74321" lon="2.24111">
        <ele>127</ele>
        <time>2012-03-03T09:10:28Z</time>
      </trkpt>
      <trkpt lat="48.74299" lon="2.24112">
        <ele>126</ele>
        <time>2012-03-03T09:10:33Z</time>
      </trkpt>
      <trkpt lat="48.74276" lon="2.24114">
        <ele>124</ele>
        <time>2012-03-03T09:10:38Z</time>
      </trkpt>
      <trkpt lat="48.74274" lon="2.24115">
        <ele>124</ele>
        <time>2012-03-03T09:10:39Z</time>
      </trkpt>
      <trkpt lat="48.74266" lon="2.24114">
        <ele>123</ele>
        <time>2012-03-03T09:10:42Z</time>
      </trkpt>
      <trkpt lat="48.74265" lon="2.24104">
        <ele>122</ele>
        <time>2012-03-03T09:10:46Z</time>
      </trkpt>
      <trkpt lat="48.74268" lon="2.2408">
        <ele>118</ele>
        <time>2012-03-03T09:10:51Z</time>
      </trkpt>
      <trkpt lat="48.7427" lon="2.24071">
        <ele>119</ele>
        <time>2012-03-03T09:10:54Z</time>
      </trkpt>
      <trkpt lat="48.74273" lon="2.2406">
        <ele>120</ele>
        <time>2012-03-03T09:10:58Z</time>
      </trkpt>
      <trkpt lat="48.74262" lon="2.24051">
        <ele>119</ele>
        <time>2012-03-03T09:11:03Z</time>
      </trkpt>
      <trkpt lat="48.74253" lon="2.24046">
        <ele>119</ele>
        <time>2012-03-03T09:11:05Z</time>
      </trkpt>
      <trkpt lat="48.74238" lon="2.24026">
        <ele>109</ele>
        <time>2012-03-03T09:11:10Z</time>
      </trkpt>
      <trkpt lat="48.74241" lon="2.24013">
        <ele>111</ele>
        <time>2012-03-03T09:11:14Z</time>
      </trkpt>
      <trkpt lat="48.74244" lon="2.2399">
        <ele>112</ele>
        <time>2012-03-03T09:11:20Z</time>
      </trkpt>
      <trkpt lat="48.74247" lon="2.23966">
        <ele>110</ele>
        <time>2012-03-03T09:11:26Z</time>
      </trkpt>
      <trkpt lat="48.7425" lon="2.23942">
        <ele>120</ele>
        <time>2012-03-03T09:11:33Z</time>
      </trkpt>
      <trkpt lat="48.74247" lon="2.23922">
        <ele>114</ele>
        <time>2012-03-03T09:11:38Z</time>
      </trkpt>
      <trkpt lat="48.74239" lon="2.23892">
        <ele>109</ele>
        <time>2012-03-03T09:11:43Z</time>
      </trkpt>
      <trkpt lat="48.74235" lon="2.23881">
        <ele>108</ele>
        <time>2012-03-03T09:11:45Z</time>
      </trkpt>
      <trkpt lat="48.74236" lon="2.23871">
        <ele>107</ele>
        <time>2012-03-03T09:11:49Z</time>
      </trkpt>
      <trkpt lat="48.74239" lon="2.23866">
        <ele>108</ele>
        <time>2012-03-03T09:11:53Z</time>
      </trkpt>
      <trkpt lat="48.74239" lon="2.2386">
        <ele>108</ele>
        <time>2012-03-03T09:11:59Z</time>
      </trkpt>
      <trkpt lat="48.7424" lon="2.23858">
        <ele>108</ele>
        <time>2012-03-03T09:12:11Z</time>
      </trkpt>
      <trkpt lat="48.74242" lon="2.23852">
        <ele>109</ele>
        <time>2012-03-03T09:12:25Z</time>
      </trkpt>
      <trkpt lat="48.74245" lon="2.23838">
        <ele>111</ele>
        <time>2012-03-03T09:12:30Z</time>
      </trkpt>
      <trkpt lat="48.74248" lon="2.23825">
        <ele>109</ele>
        <time>2012-03-03T09:12:34Z</time>
      </trkpt>
      <trkpt lat="48.74249" lon="2.23801">
        <ele>104</ele>
        <time>2012-03-03T09:12:39Z</time>
      </trkpt>
      <trkpt lat="48.74246" lon="2.2378">
        <ele>102</ele>
        <time>2012-03-03T09:12:43Z</time>
      </trkpt>
      <trkpt lat="48.74244" lon="2.23775">
        <ele>102</ele>
        <time>2012-03-03T09:12:44Z</time>
      </trkpt>
      <trkpt lat="48.74244" lon="2.23753">
        <ele>104</ele>
        <time>2012-03-03T09:12:49Z</time>
      </trkpt>
      <trkpt lat="48.74244" lon="2.23749">
        <ele>102</ele>
        <time>2012-03-03T09:12:50Z</time>
      </trkpt>
      <trkpt lat="48.74244" lon="2.23743">
        <ele>101</ele>
        <time>2012-03-03T09:12:52Z</time>
      </trkpt>
      <trkpt lat="48.74247" lon="2.2374">
        <ele>101</ele>
        <time>2012-03-03T09:12:57Z</time>
      </trkpt>
      <trkpt lat="48.7425" lon="2.23741">
        <ele>101</ele>
        <time>2012-03-03T09:13:04Z</time>
      </trkpt>
      <trkpt lat="48.74251" lon="2.23738">
        <ele>106</ele>
        <time>2012-03-03T09:13:12Z</time>
      </trkpt>
      <trkpt lat="48.74257" lon="2.2374">
        <ele>107</ele>
        <time>2012-03-03T09:13:17Z</time>
      </trkpt>
      <trkpt lat="48.7426" lon="2.2374">
        <ele>107</ele>
        <time>2012-03-03T09:13:19Z</time>
      </trkpt>
      <trkpt lat="48.74268" lon="2.23745">
        <ele>108</ele>
        <time>2012-03-03T09:13:25Z</time>
      </trkpt>
      <trkpt lat="48.74276" lon="2.23749">
        <ele>109</ele>
        <time>2012-03-03T09:13:31Z</time>
      </trkpt>
      <trkpt lat="48.74284" lon="2.23752">
        <ele>115</ele>
        <time>2012-03-03T09:13:36Z</time>
      </trkpt>
      <trkpt lat="48.74286" lon="2.23753">
        <ele>115</ele>
        <time>2012-03-03T09:13:37Z</time>
      </trkpt>
      <trkpt lat="48.74293" lon="2.23748">
        <ele>111</ele>
        <time>2012-03-03T09:13:42Z</time>
      </trkpt>
      <trkpt lat="48.74297" lon="2.23738">
        <ele>111</ele>
        <time>2012-03-03T09:13:44Z</time>
      </trkpt>
      <trkpt lat="48.7431" lon="2.23704">
        <ele>111</ele>
        <time>2012-03-03T09:13:50Z</time>
      </trkpt>
      <trkpt lat="48.74322" lon="2.23679">
        <ele>111</ele>
        <time>2012-03-03T09:13:55Z</time>
      </trkpt>
      <trkpt lat="48.74334" lon="2.23637">
        <ele>112</ele>
        <time>2012-03-03T09:14:03Z</time>
      </trkpt>
      <trkpt lat="48.74341" lon="2.23613">
        <ele>111</ele>
        <time>2012-03-03T09:14:09Z</time>
      </trkpt>
      <trkpt lat="48.74355" lon="2.23607">
        <ele>111</ele>
        <time>2012-03-03T09:14:14Z</time>
      </trkpt>
      <trkpt lat="48.74369" lon="2.23593">
        <ele>111</ele>
        <time>2012-03-03T09:14:19Z</time>
      </trkpt>
      <trkpt lat="48.74382" lon="2.23583">
        <ele>105</ele>
        <time>2012-03-03T09:14:23Z</time>
      </trkpt>
      <trkpt lat="48.74399" lon="2.23575">
        <ele>105</ele>
        <time>2012-03-03T09:14:28Z</time>
      </trkpt>
      <trkpt lat="48.74412" lon="2.23572">
        <ele>106</ele>
        <time>2012-03-03T09:14:31Z</time>
      </trkpt>
      <trkpt lat="48.74426" lon="2.23564">
        <ele>109</ele>
        <time>2012-03-03T09:14:34Z</time>
      </trkpt>
      <trkpt lat="48.74441" lon="2.23544">
        <ele>108</ele>
        <time>2012-03-03T09:14:39Z</time>
      </trkpt>
      <trkpt lat="48.74464" lon="2.23527">
        <ele>109</ele>
        <time>2012-03-03T09:14:45Z</time>
      </trkpt>
      <trkpt lat="48.74474" lon="2.23524">
        <ele>109</ele>
        <time>2012-03-03T09:14:47Z</time>
      </trkpt>
      <trkpt lat="48.74492" lon="2.23515">
        <ele>109</ele>
        <time>2012-03-03T09:14:51Z</time>
      </trkpt>
      <trkpt lat="48.74519" lon="2.23495">
        <ele>108</ele>
        <time>2012-03-03T09:14:58Z</time>
      </trkpt>
      <trkpt lat="48.74522" lon="2.23492">
        <ele>108</ele>
        <time>2012-03-03T09:14:59Z</time>
      </trkpt>
      <trkpt lat="48.7454" lon="2.23478">
        <ele>109</ele>
        <time>2012-03-03T09:15:04Z</time>
      </trkpt>
      <trkpt lat="48.74562" lon="2.23473">
        <ele>110</ele>
        <time>2012-03-03T09:15:10Z</time>
      </trkpt>
      <trkpt lat="48.74572" lon="2.23475">
        <ele>112</ele>
        <time>2012-03-03T09:15:14Z</time>
      </trkpt>
      <trkpt lat="48.74577" lon="2.23472">
        <ele>111</ele>
        <time>2012-03-03T09:15:16Z</time>
      </trkpt>
      <trkpt lat="48.74584" lon="2.23465">
        <ele>116</ele>
        <time>2012-03-03T09:15:19Z</time>
      </trkpt>
      <trkpt lat="48.74597" lon="2.23469">
        <ele>117</ele>
        <time>2012-03-03T09:15:24Z</time>
      </trkpt>
      <trkpt lat="48.74608" lon="2.23461">
        <ele>117</ele>
        <time>2012-03-03T09:15:29Z</time>
      </trkpt>
      <trkpt lat="48.74615" lon="2.23458">
        <ele>117</ele>
        <time>2012-03-03T09:15:32Z</time>
      </trkpt>
      <trkpt lat="48.74626" lon="2.23455">
        <ele>117</ele>
        <time>2012-03-03T09:15:37Z</time>
      </trkpt>
      <trkpt lat="48.74637" lon="2.23454">
        <ele>117</ele>
        <time>2012-03-03T09:15:42Z</time>
      </trkpt>
      <trkpt lat="48.74639" lon="2.23453">
        <ele>117</ele>
        <time>2012-03-03T09:15:43Z</time>
      </trkpt>
      <trkpt lat="48.74651" lon="2.23446">
        <ele>117</ele>
        <time>2012-03-03T09:15:48Z</time>
      </trkpt>
      <trkpt lat="48.74662" lon="2.23448">
        <ele>118</ele>
        <time>2012-03-03T09:15:53Z</time>
      </trkpt>
      <trkpt lat="48.74674" lon="2.23457">
        <ele>121</ele>
        <time>2012-03-03T09:15:59Z</time>
      </trkpt>
      <trkpt lat="48.74678" lon="2.23461">
        <ele>121</ele>
        <time>2012-03-03T09:16:02Z</time>
      </trkpt>
      <trkpt lat="48.74686" lon="2.23466">
        <ele>122</ele>
        <time>2012-03-03T09:16:07Z</time>
      </trkpt>
      <trkpt lat="48.74692" lon="2.23473">
        <ele>122</ele>
        <time>2012-03-03T09:16:11Z</time>
      </trkpt>
      <trkpt lat="48.74698" lon="2.23482">
        <ele>122</ele>
        <time>2012-03-03T09:16:17Z</time>
      </trkpt>
      <trkpt lat="48.747" lon="2.23486">
        <ele>123</ele>
        <time>2012-03-03T09:16:19Z</time>
      </trkpt>
      <trkpt lat="48.7471" lon="2.23487">
        <ele>122</ele>
        <time>2012-03-03T09:16:25Z</time>
      </trkpt>
      <trkpt lat="48.7472" lon="2.23487">
        <ele>122</ele>
        <time>2012-03-03T09:16:30Z</time>
      </trkpt>
      <trkpt lat="48.74731" lon="2.23474">
        <ele>122</ele>
        <time>2012-03-03T09:16:35Z</time>
      </trkpt>
      <trkpt lat="48.74734" lon="2.23471">
        <ele>121</ele>
        <time>2012-03-03T09:16:36Z</time>
      </trkpt>
      <trkpt lat="48.74746" lon="2.23478">
        <ele>122</ele>
        <time>2012-03-03T09:16:40Z</time>
      </trkpt>
      <trkpt lat="48.74749" lon="2.23486">
        <ele>123</ele>
        <time>2012-03-03T09:16:43Z</time>
      </trkpt>
      <trkpt lat="48.74763" lon="2.23509">
        <ele>127</ele>
        <time>2012-03-03T09:16:52Z</time>
      </trkpt>
      <trkpt lat="48.74769" lon="2.23522">
        <ele>129</ele>
        <time>2012-03-03T09:16:58Z</time>
      </trkpt>
      <trkpt lat="48.74775" lon="2.23529">
        <ele>130</ele>
        <time>2012-03-03T09:17:02Z</time>
      </trkpt>
      <trkpt lat="48.74788" lon="2.23524">
        <ele>129</ele>
        <time>2012-03-03T09:17:08Z</time>
      </trkpt>
      <trkpt lat="48.7481" lon="2.23527">
        <ele>128</ele>
        <time>2012-03-03T09:17:13Z</time>
      </trkpt>
      <trkpt lat="48.74822" lon="2.23534">
        <ele>128</ele>
        <time>2012-03-03T09:17:15Z</time>
      </trkpt>
      <trkpt lat="48.74839" lon="2.23547">
        <ele>128</ele>
        <time>2012-03-03T09:17:19Z</time>
      </trkpt>
      <trkpt lat="48.74856" lon="2.23546">
        <ele>128</ele>
        <time>2012-03-03T09:17:23Z</time>
      </trkpt>
      <trkpt lat="48.74884" lon="2.23547">
        <ele>128</ele>
        <time>2012-03-03T09:17:28Z</time>
      </trkpt>
      <trkpt lat="48.749" lon="2.23544">
        <ele>128</ele>
        <time>2012-03-03T09:17:32Z</time>
      </trkpt>
      <trkpt lat="48.74904" lon="2.23545">
        <ele>128</ele>
        <time>2012-03-03T09:17:36Z</time>
      </trkpt>
      <trkpt lat="48.74907" lon="2.23551">
        <ele>129</ele>
        <time>2012-03-03T09:17:45Z</time>
      </trkpt>
      <trkpt lat="48.74907" lon="2.2355">
        <ele>129</ele>
        <time>2012-03-03T09:17:46Z</time>
      </trkpt>
      <trkpt lat="48.74905" lon="2.23551">
        <ele>129</ele>
        <time>2012-03-03T09:17:48Z</time>
      </trkpt>
      <trkpt lat="48.74908" lon="2.23551">
        <ele>129</ele>
        <time>2012-03-03T09:17:52Z</time>
      </trkpt>
      <trkpt lat="48.74916" lon="2.23547">
        <ele>129</ele>
        <time>2012-03-03T09:17:56Z</time>
      </trkpt>
      <trkpt lat="48.74925" lon="2.2353">
        <ele>132</ele>
        <time>2012-03-03T09:18:01Z</time>
      </trkpt>
      <trkpt lat="48.74933" lon="2.23502">
        <ele>129</ele>
        <time>2012-03-03T09:18:04Z</time>
      </trkpt>
      <trkpt lat="48.7494" lon="2.23491">
        <ele>127</ele>
        <time>2012-03-03T09:18:07Z</time>
      </trkpt>
      <trkpt lat="48.74936" lon="2.23495">
        <ele>126</ele>
        <time>2012-03-03T09:18:12Z</time>
      </trkpt>
      <trkpt lat="48.74937" lon="2.23494">
        <ele>126</ele>
        <time>2012-03-03T09:18:21Z</time>
      </trkpt>
      <trkpt lat="48.74942" lon="2.23492">
        <ele>127</ele>
        <time>2012-03-03T09:18:25Z</time>
      </trkpt>
      <trkpt lat="48.74948" lon="2.23481">
        <ele>128</ele>
        <time>2012-03-03T09:18:31Z</time>
      </trkpt>
      <trkpt lat="48.74953" lon="2.23472">
        <ele>128</ele>
        <time>2012-03-03T09:18:35Z</time>
      </trkpt>
      <trkpt lat="48.74959" lon="2.23463">
        <ele>128</ele>
        <time>2012-03-03T09:18:40Z</time>
      </trkpt>
      <trkpt lat="48.74972" lon="2.23448">
        <ele>129</ele>
        <time>2012-03-03T09:18:47Z</time>
      </trkpt>
      <trkpt lat="48.74982" lon="2.23431">
        <ele>129</ele>
        <time>2012-03-03T09:18:51Z</time>
      </trkpt>
      <trkpt lat="48.74993" lon="2.23414">
        <ele>128</ele>
        <time>2012-03-03T09:18:55Z</time>
      </trkpt>
      <trkpt lat="48.75003" lon="2.23393">
        <ele>129</ele>
        <time>2012-03-03T09:19:01Z</time>
      </trkpt>
      <trkpt lat="48.7501" lon="2.23374">
        <ele>127</ele>
        <time>2012-03-03T09:19:06Z</time>
      </trkpt>
      <trkpt lat="48.75015" lon="2.2337">
        <ele>127</ele>
        <time>2012-03-03T09:19:10Z</time>
      </trkpt>
      <trkpt lat="48.75018" lon="2.23368">
        <ele>127</ele>
        <time>2012-03-03T09:19:15Z</time>
      </trkpt>
      <trkpt lat="48.75026" lon="2.23357">
        <ele>126</ele>
        <time>2012-03-03T09:19:20Z</time>
      </trkpt>
      <trkpt lat="48.7503" lon="2.23348">
        <ele>126</ele>
        <time>2012-03-03T09:19:22Z</time>
      </trkpt>
      <trkpt lat="48.75041" lon="2.23335">
        <ele>126</ele>
        <time>2012-03-03T09:19:27Z</time>
      </trkpt>
      <trkpt lat="48.75055" lon="2.2333">
        <ele>118</ele>
        <time>2012-03-03T09:19:32Z</time>
      </trkpt>
      <trkpt lat="48.75069" lon="2.23321">
        <ele>119</ele>
        <time>2012-03-03T09:19:37Z</time>
      </trkpt>
      <trkpt lat="48.75076" lon="2.23315">
        <ele>119</ele>
        <time>2012-03-03T09:19:41Z</time>
      </trkpt>
      <trkpt lat="48.75072" lon="2.23296">
        <ele>117</ele>
        <time>2012-03-03T09:19:46Z</time>
      </trkpt>
      <trkpt lat="48.75072" lon="2.23284">
        <ele>116</ele>
        <time>2012-03-03T09:19:50Z</time>
      </trkpt>
      <trkpt lat="48.75079" lon="2.23272">
        <ele>115</ele>
        <time>2012-03-03T09:19:54Z</time>
      </trkpt>
      <trkpt lat="48.75087" lon="2.23262">
        <ele>115</ele>
        <time>2012-03-03T09:19:57Z</time>
      </trkpt>
      <trkpt lat="48.75089" lon="2.23262">
        <ele>116</ele>
        <time>2012-03-03T09:19:58Z</time>
      </trkpt>
      <trkpt lat="48.75104" lon="2.23265">
        <ele>118</ele>
        <time>2012-03-03T09:20:04Z</time>
      </trkpt>
      <trkpt lat="48.75115" lon="2.23268">
        <ele>119</ele>
        <time>2012-03-03T09:20:09Z</time>
      </trkpt>
      <trkpt lat="48.75117" lon="2.23269">
        <ele>119</ele>
        <time>2012-03-03T09:20:10Z</time>
      </trkpt>
      <trkpt lat="48.75133" lon="2.23272">
        <ele>120</ele>
        <time>2012-03-03T09:20:15Z</time>
      </trkpt>
      <trkpt lat="48.75136" lon="2.23271">
        <ele>120</ele>
        <time>2012-03-03T09:20:16Z</time>
      </trkpt>
      <trkpt lat="48.75154" lon="2.23261">
        <ele>120</ele>
        <time>2012-03-03T09:20:22Z</time>
      </trkpt>
      <trkpt lat="48.7517" lon="2.23251">
        <ele>120</ele>
        <time>2012-03-03T09:20:25Z</time>
      </trkpt>
      <trkpt lat="48.75179" lon="2.23245">
        <ele>119</ele>
        <time>2012-03-03T09:20:27Z</time>
      </trkpt>
      <trkpt lat="48.75196" lon="2.23237">
        <ele>120</ele>
        <time>2012-03-03T09:20:32Z</time>
      </trkpt>
      <trkpt lat="48.75203" lon="2.23225">
        <ele>120</ele>
        <time>2012-03-03T09:20:35Z</time>
      </trkpt>
      <trkpt lat="48.75216" lon="2.23189">
        <ele>120</ele>
        <time>2012-03-03T09:20:42Z</time>
      </trkpt>
      <trkpt lat="48.75226" lon="2.23169">
        <ele>121</ele>
        <time>2012-03-03T09:20:47Z</time>
      </trkpt>
      <trkpt lat="48.75215" lon="2.23155">
        <ele>122</ele>
        <time>2012-03-03T09:20:51Z</time>
      </trkpt>
      <trkpt lat="48.752" lon="2.23122">
        <ele>122</ele>
        <time>2012-03-03T09:20:57Z</time>
      </trkpt>
      <trkpt lat="48.75198" lon="2.23118">
        <ele>122</ele>
        <time>2012-03-03T09:20:58Z</time>
      </trkpt>
      <trkpt lat="48.7519" lon="2.23102">
        <ele>122</ele>
        <time>2012-03-03T09:21:02Z</time>
      </trkpt>
      <trkpt lat="48.75182" lon="2.23076">
        <ele>124</ele>
        <time>2012-03-03T09:21:08Z</time>
      </trkpt>
      <trkpt lat="48.7518" lon="2.23055">
        <ele>126</ele>
        <time>2012-03-03T09:21:12Z</time>
      </trkpt>
      <trkpt lat="48.75178" lon="2.23024">
        <ele>127</ele>
        <time>2012-03-03T09:21:17Z</time>
      </trkpt>
      <trkpt lat="48.75177" lon="2.22996">
        <ele>128</ele>
        <time>2012-03-03T09:21:21Z</time>
      </trkpt>
      <trkpt lat="48.75175" lon="2.22982">
        <ele>130</ele>
        <time>2012-03-03T09:21:23Z</time>
      </trkpt>
      <trkpt lat="48.75168" lon="2.22952">
        <ele>133</ele>
        <time>2012-03-03T09:21:28Z</time>
      </trkpt>
      <trkpt lat="48.75165" lon="2.22933">
        <ele>123</ele>
        <time>2012-03-03T09:21:31Z</time>
      </trkpt>
      <trkpt lat="48.75165" lon="2.22893">
        <ele>122</ele>
        <time>2012-03-03T09:21:37Z</time>
      </trkpt>
      <trkpt lat="48.75165" lon="2.22854">
        <ele>122</ele>
        <time>2012-03-03T09:21:42Z</time>
      </trkpt>
      <trkpt lat="48.75164" lon="2.22847">
        <ele>123</ele>
        <time>2012-03-03T09:21:43Z</time>
      </trkpt>
      <trkpt lat="48.75158" lon="2.22816">
        <ele>120</ele>
        <time>2012-03-03T09:21:47Z</time>
      </trkpt>
      <trkpt lat="48.75158" lon="2.2277">
        <ele>118</ele>
        <time>2012-03-03T09:21:52Z</time>
      </trkpt>
      <trkpt lat="48.75161" lon="2.2274">
        <ele>118</ele>
        <time>2012-03-03T09:21:55Z</time>
      </trkpt>
      <trkpt lat="48.75169" lon="2.22715">
        <ele>123</ele>
        <time>2012-03-03T09:21:58Z</time>
      </trkpt>
      <trkpt lat="48.75182" lon="2.2267">
        <ele>118</ele>
        <time>2012-03-03T09:22:03Z</time>
      </trkpt>
      <trkpt lat="48.75194" lon="2.22644">
        <ele>114</ele>
        <time>2012-03-03T09:22:07Z</time>
      </trkpt>
      <trkpt lat="48.75202" lon="2.22631">
        <ele>115</ele>
        <time>2012-03-03T09:22:10Z</time>
      </trkpt>
      <trkpt lat="48.75209" lon="2.22607">
        <ele>114</ele>
        <time>2012-03-03T09:22:14Z</time>
      </trkpt>
      <trkpt lat="48.75223" lon="2.22576">
        <ele>110</ele>
        <time>2012-03-03T09:22:20Z</time>
      </trkpt>
      <trkpt lat="48.75233" lon="2.22566">
        <ele>111</ele>
        <time>2012-03-03T09:22:24Z</time>
      </trkpt>
      <trkpt lat="48.75243" lon="2.22553">
        <ele>110</ele>
        <time>2012-03-03T09:22:28Z</time>
      </trkpt>
      <trkpt lat="48.75254" lon="2.22538">
        <ele>117</ele>
        <time>2012-03-03T09:22:33Z</time>
      </trkpt>
      <trkpt lat="48.75265" lon="2.22528">
        <ele>116</ele>
        <time>2012-03-03T09:22:37Z</time>
      </trkpt>
      <trkpt lat="48.75279" lon="2.22527">
        <ele>117</ele>
        <time>2012-03-03T09:22:42Z</time>
      </trkpt>
      <trkpt lat="48.75292" lon="2.22532">
        <ele>118</ele>
        <time>2012-03-03T09:22:48Z</time>
      </trkpt>
      <trkpt lat="48.75296" lon="2.22532">
        <ele>118</ele>
        <time>2012-03-03T09:22:50Z</time>
      </trkpt>
      <trkpt lat="48.75304" lon="2.2254">
        <ele>119</ele>
        <time>2012-03-03T09:22:55Z</time>
      </trkpt>
      <trkpt lat="48.7532" lon="2.22551">
        <ele>121</ele>
        <time>2012-03-03T09:23:03Z</time>
      </trkpt>
      <trkpt lat="48.7533" lon="2.22559">
        <ele>123</ele>
        <time>2012-03-03T09:23:09Z</time>
      </trkpt>
      <trkpt lat="48.75342" lon="2.22557">
        <ele>127</ele>
        <time>2012-03-03T09:23:15Z</time>
      </trkpt>
      <trkpt lat="48.75355" lon="2.22557">
        <ele>127</ele>
        <time>2012-03-03T09:23:21Z</time>
      </trkpt>
      <trkpt lat="48.75373" lon="2.22556">
        <ele>128</ele>
        <time>2012-03-03T09:23:29Z</time>
      </trkpt>
      <trkpt lat="48.75386" lon="2.22556">
        <ele>128</ele>
        <time>2012-03-03T09:23:35Z</time>
      </trkpt>
      <trkpt lat="48.75396" lon="2.22559">
        <ele>129</ele>
        <time>2012-03-03T09:23:40Z</time>
      </trkpt>
      <trkpt lat="48.75407" lon="2.22572">
        <ele>133</ele>
        <time>2012-03-03T09:23:47Z</time>
      </trkpt>
      <trkpt lat="48.75415" lon="2.22584">
        <ele>139</ele>
        <time>2012-03-03T09:23:53Z</time>
      </trkpt>
      <trkpt lat="48.75423" lon="2.22597">
        <ele>144</ele>
        <time>2012-03-03T09:24:00Z</time>
      </trkpt>
      <trkpt lat="48.75431" lon="2.22603">
        <ele>145</ele>
        <time>2012-03-03T09:24:07Z</time>
      </trkpt>
      <trkpt lat="48.75438" lon="2.22604">
        <ele>146</ele>
        <time>2012-03-03T09:24:13Z</time>
      </trkpt>
      <trkpt lat="48.75446" lon="2.22601">
        <ele>146</ele>
        <time>2012-03-03T09:24:18Z</time>
      </trkpt>
      <trkpt lat="48.75457" lon="2.22597">
        <ele>147</ele>
        <time>2012-03-03T09:24:24Z</time>
      </trkpt>
      <trkpt lat="48.75471" lon="2.22593">
        <ele>147</ele>
        <time>2012-03-03T09:24:30Z</time>
      </trkpt>
      <trkpt lat="48.75486" lon="2.22588">
        <ele>146</ele>
        <time>2012-03-03T09:24:36Z</time>
      </trkpt>
      <trkpt lat="48.755" lon="2.22591">
        <ele>147</ele>
        <time>2012-03-03T09:24:42Z</time>
      </trkpt>
      <trkpt lat="48.75513" lon="2.22595">
        <ele>149</ele>
        <time>2012-03-03T09:24:48Z</time>
      </trkpt>
      <trkpt lat="48.75522" lon="2.22598">
        <ele>150</ele>
        <time>2012-03-03T09:24:53Z</time>
      </trkpt>
      <trkpt lat="48.75532" lon="2.22607">
        <ele>152</ele>
        <time>2012-03-03T09:24:59Z</time>
      </trkpt>
      <trkpt lat="48.75546" lon="2.22616">
        <ele>153</ele>
        <time>2012-03-03T09:25:07Z</time>
      </trkpt>
      <trkpt lat="48.75557" lon="2.22623">
        <ele>154</ele>
        <time>2012-03-03T09:25:13Z</time>
      </trkpt>
      <trkpt lat="48.75568" lon="2.22624">
        <ele>154</ele>
        <time>2012-03-03T09:25:20Z</time>
      </trkpt>
      <trkpt lat="48.75576" lon="2.22623">
        <ele>154</ele>
        <time>2012-03-03T09:25:25Z</time>
      </trkpt>
      <trkpt lat="48.75587" lon="2.22624">
        <ele>154</ele>
        <time>2012-03-03T09:25:29Z</time>
      </trkpt>
      <trkpt lat="48.75602" lon="2.22628">
        <ele>155</ele>
        <time>2012-03-03T09:25:35Z</time>
      </trkpt>
      <trkpt lat="48.75622" lon="2.22633">
        <ele>155</ele>
        <time>2012-03-03T09:25:41Z</time>
      </trkpt>
      <trkpt lat="48.75633" lon="2.22637">
        <ele>155</ele>
        <time>2012-03-03T09:25:45Z</time>
      </trkpt>
      <trkpt lat="48.75653" lon="2.22646">
        <ele>157</ele>
        <time>2012-03-03T09:25:51Z</time>
      </trkpt>
      <trkpt lat="48.75674" lon="2.22663">
        <ele>159</ele>
        <time>2012-03-03T09:25:57Z</time>
      </trkpt>
      <trkpt lat="48.75691" lon="2.22673">
        <ele>163</ele>
        <time>2012-03-03T09:26:02Z</time>
      </trkpt>
      <trkpt lat="48.75713" lon="2.22687">
        <ele>163</ele>
        <time>2012-03-03T09:26:09Z</time>
      </trkpt>
      <trkpt lat="48.75731" lon="2.22703">
        <ele>164</ele>
        <time>2012-03-03T09:26:15Z</time>
      </trkpt>
      <trkpt lat="48.7575" lon="2.22719">
        <ele>165</ele>
        <time>2012-03-03T09:26:21Z</time>
      </trkpt>
      <trkpt lat="48.75767" lon="2.22734">
        <ele>162</ele>
        <time>2012-03-03T09:26:26Z</time>
      </trkpt>
      <trkpt lat="48.75786" lon="2.22753">
        <ele>166</ele>
        <time>2012-03-03T09:26:32Z</time>
      </trkpt>
      <trkpt lat="48.75804" lon="2.22781">
        <ele>165</ele>
        <time>2012-03-03T09:26:39Z</time>
      </trkpt>
      <trkpt lat="48.75821" lon="2.22804">
        <ele>166</ele>
        <time>2012-03-03T09:26:45Z</time>
      </trkpt>
      <trkpt lat="48.7584" lon="2.22826">
        <ele>163</ele>
        <time>2012-03-03T09:26:51Z</time>
      </trkpt>
      <trkpt lat="48.75858" lon="2.22848">
        <ele>166</ele>
        <time>2012-03-03T09:26:57Z</time>
      </trkpt>
      <trkpt lat="48.75874" lon="2.22867">
        <ele>166</ele>
        <time>2012-03-03T09:27:02Z</time>
      </trkpt>
      <trkpt lat="48.75881" lon="2.22875">
        <ele>166</ele>
        <time>2012-03-03T09:27:04Z</time>
      </trkpt>
      <trkpt lat="48.75892" lon="2.22896">
        <ele>166</ele>
        <time>2012-03-03T09:27:08Z</time>
      </trkpt>
      <trkpt lat="48.75909" lon="2.22913">
        <ele>167</ele>
        <time>2012-03-03T09:27:12Z</time>
      </trkpt>
      <trkpt lat="48.75922" lon="2.22928">
        <ele>165</ele>
        <time>2012-03-03T09:27:16Z</time>
      </trkpt>
      <trkpt lat="48.75928" lon="2.22938">
        <ele>163</ele>
        <time>2012-03-03T09:27:18Z</time>
      </trkpt>
      <trkpt lat="48.75945" lon="2.22975">
        <ele>163</ele>
        <time>2012-03-03T09:27:25Z</time>
      </trkpt>
      <trkpt lat="48.75946" lon="2.2298">
        <ele>163</ele>
        <time>2012-03-03T09:27:26Z</time>
      </trkpt>
      <trkpt lat="48.75961" lon="2.23011">
        <ele>168</ele>
        <time>2012-03-03T09:27:32Z</time>
      </trkpt>
      <trkpt lat="48.75963" lon="2.23017">
        <ele>168</ele>
        <time>2012-03-03T09:27:33Z</time>
      </trkpt>
      <trkpt lat="48.75978" lon="2.2305">
        <ele>169</ele>
        <time>2012-03-03T09:27:39Z</time>
      </trkpt>
      <trkpt lat="48.75995" lon="2.23088">
        <ele>173</ele>
        <time>2012-03-03T09:27:46Z</time>
      </trkpt>
      <trkpt lat="48.76012" lon="2.23111">
        <ele>170</ele>
        <time>2012-03-03T09:27:51Z</time>
      </trkpt>
      <trkpt lat="48.76034" lon="2.23139">
        <ele>169</ele>
        <time>2012-03-03T09:27:57Z</time>
      </trkpt>
      <trkpt lat="48.76048" lon="2.23159">
        <ele>168</ele>
        <time>2012-03-03T09:28:01Z</time>
      </trkpt>
      <trkpt lat="48.76061" lon="2.23177">
        <ele>171</ele>
        <time>2012-03-03T09:28:05Z</time>
      </trkpt>
      <trkpt lat="48.76074" lon="2.23197">
        <ele>171</ele>
        <time>2012-03-03T09:28:09Z</time>
      </trkpt>
      <trkpt lat="48.76102" lon="2.23242">
        <ele>169</ele>
        <time>2012-03-03T09:28:17Z</time>
      </trkpt>
      <trkpt lat="48.76128" lon="2.23279">
        <ele>171</ele>
        <time>2012-03-03T09:28:24Z</time>
      </trkpt>
      <trkpt lat="48.76138" lon="2.23293">
        <ele>171</ele>
        <time>2012-03-03T09:28:27Z</time>
      </trkpt>
      <trkpt lat="48.76154" lon="2.23313">
        <ele>172</ele>
        <time>2012-03-03T09:28:33Z</time>
      </trkpt>
      <trkpt lat="48.76157" lon="2.23317">
        <ele>172</ele>
        <time>2012-03-03T09:28:34Z</time>
      </trkpt>
      <trkpt lat="48.76178" lon="2.23346">
        <ele>170</ele>
        <time>2012-03-03T09:28:41Z</time>
      </trkpt>
      <trkpt lat="48.76189" lon="2.2337">
        <ele>169</ele>
        <time>2012-03-03T09:28:45Z</time>
      </trkpt>
      <trkpt lat="48.76217" lon="2.234">
        <ele>168</ele>
        <time>2012-03-03T09:28:51Z</time>
      </trkpt>
      <trkpt lat="48.76241" lon="2.23426">
        <ele>168</ele>
        <time>2012-03-03T09:28:56Z</time>
      </trkpt>
      <trkpt lat="48.76254" lon="2.23467">
        <ele>164</ele>
        <time>2012-03-03T09:29:01Z</time>
      </trkpt>
      <trkpt lat="48.76266" lon="2.23539">
        <ele>169</ele>
        <time>2012-03-03T09:29:09Z</time>
      </trkpt>
      <trkpt lat="48.76272" lon="2.23566">
        <ele>171</ele>
        <time>2012-03-03T09:29:12Z</time>
      </trkpt>
      <trkpt lat="48.76284" lon="2.23629">
        <ele>174</ele>
        <time>2012-03-03T09:29:19Z</time>
      </trkpt>
      <trkpt lat="48.76299" lon="2.23653">
        <ele>174</ele>
        <time>2012-03-03T09:29:23Z</time>
      </trkpt>
      <trkpt lat="48.76315" lon="2.23653">
        <ele>173</ele>
        <time>2012-03-03T09:29:26Z</time>
      </trkpt>
      <trkpt lat="48.76366" lon="2.23639">
        <ele>169</ele>
        <time>2012-03-03T09:29:34Z</time>
      </trkpt>
      <trkpt lat="48.76397" lon="2.2363">
        <ele>168</ele>
        <time>2012-03-03T09:29:39Z</time>
      </trkpt>
      <trkpt lat="48.76437" lon="2.2362">
        <ele>166</ele>
        <time>2012-03-03T09:29:46Z</time>
      </trkpt>
      <trkpt lat="48.76455" lon="2.23624">
        <ele>166</ele>
        <time>2012-03-03T09:29:50Z</time>
      </trkpt>
      <trkpt lat="48.76461" lon="2.2363">
        <ele>166</ele>
        <time>2012-03-03T09:29:53Z</time>
      </trkpt>
      <trkpt lat="48.76463" lon="2.23619">
        <ele>165</ele>
        <time>2012-03-03T09:29:58Z</time>
      </trkpt>
      <trkpt lat="48.76461" lon="2.23601">
        <ele>165</ele>
        <time>2012-03-03T09:30:03Z</time>
      </trkpt>
      <trkpt lat="48.76461" lon="2.23585">
        <ele>164</ele>
        <time>2012-03-03T09:30:07Z</time>
      </trkpt>
      <trkpt lat="48.76462" lon="2.2358">
        <ele>160</ele>
        <time>2012-03-03T09:30:08Z</time>
      </trkpt>
      <trkpt lat="48.7646" lon="2.2356">
        <ele>160</ele>
        <time>2012-03-03T09:30:15Z</time>
      </trkpt>
      <trkpt lat="48.7645" lon="2.23544">
        <ele>159</ele>
        <time>2012-03-03T09:30:19Z</time>
      </trkpt>
      <trkpt lat="48.76446" lon="2.23523">
        <ele>158</ele>
        <time>2012-03-03T09:30:22Z</time>
      </trkpt>
      <trkpt lat="48.76444" lon="2.23495">
        <ele>152</ele>
        <time>2012-03-03T09:30:26Z</time>
      </trkpt>
      <trkpt lat="48.76448" lon="2.23477">
        <ele>152</ele>
        <time>2012-03-03T09:30:30Z</time>
      </trkpt>
      <trkpt lat="48.76455" lon="2.23456">
        <ele>151</ele>
        <time>2012-03-03T09:30:35Z</time>
      </trkpt>
      <trkpt lat="48.76457" lon="2.23436">
        <ele>150</ele>
        <time>2012-03-03T09:30:40Z</time>
      </trkpt>
      <trkpt lat="48.7646" lon="2.23432">
        <ele>150</ele>
        <time>2012-03-03T09:30:41Z</time>
      </trkpt>
      <trkpt lat="48.76472" lon="2.23405">
        <ele>145</ele>
        <time>2012-03-03T09:30:46Z</time>
      </trkpt>
      <trkpt lat="48.76481" lon="2.2339">
        <ele>144</ele>
        <time>2012-03-03T09:30:49Z</time>
      </trkpt>
      <trkpt lat="48.76487" lon="2.23384">
        <ele>144</ele>
        <time>2012-03-03T09:30:51Z</time>
      </trkpt>
      <trkpt lat="48.76491" lon="2.23379">
        <ele>143</ele>
        <time>2012-03-03T09:30:53Z</time>
      </trkpt>
      <trkpt lat="48.7649" lon="2.23375">
        <ele>143</ele>
        <time>2012-03-03T09:30:55Z</time>
      </trkpt>
      <trkpt lat="48.76488" lon="2.23373">
        <ele>143</ele>
        <time>2012-03-03T09:30:56Z</time>
      </trkpt>
      <trkpt lat="48.76449" lon="2.23327">
        <ele>137</ele>
        <time>2012-03-03T09:31:16Z</time>
      </trkpt>
      <trkpt lat="48.76446" lon="2.23324">
        <ele>137</ele>
        <time>2012-03-03T09:31:17Z</time>
      </trkpt>
      <trkpt lat="48.76434" lon="2.23313">
        <ele>137</ele>
        <time>2012-03-03T09:31:21Z</time>
      </trkpt>
      <trkpt lat="48.76419" lon="2.23304">
        <ele>137</ele>
        <time>2012-03-03T09:31:26Z</time>
      </trkpt>
      <trkpt lat="48.7642" lon="2.23288">
        <ele>137</ele>
        <time>2012-03-03T09:31:29Z</time>
      </trkpt>
      <trkpt lat="48.7643" lon="2.23264">
        <ele>137</ele>
        <time>2012-03-03T09:31:35Z</time>
      </trkpt>
      <trkpt lat="48.76443" lon="2.23252">
        <ele>136</ele>
        <time>2012-03-03T09:31:39Z</time>
      </trkpt>
      <trkpt lat="48.76459" lon="2.23246">
        <ele>131</ele>
        <time>2012-03-03T09:31:43Z</time>
      </trkpt>
      <trkpt lat="48.7647" lon="2.23233">
        <ele>129</ele>
        <time>2012-03-03T09:31:47Z</time>
      </trkpt>
      <trkpt lat="48.76472" lon="2.23231">
        <ele>129</ele>
        <time>2012-03-03T09:31:48Z</time>
      </trkpt>
      <trkpt lat="48.76487" lon="2.23241">
        <ele>128</ele>
        <time>2012-03-03T09:31:54Z</time>
      </trkpt>
      <trkpt lat="48.76503" lon="2.23247">
        <ele>124</ele>
        <time>2012-03-03T09:31:58Z</time>
      </trkpt>
      <trkpt lat="48.76509" lon="2.23252">
        <ele>125</ele>
        <time>2012-03-03T09:31:59Z</time>
      </trkpt>
      <trkpt lat="48.76535" lon="2.23278">
        <ele>124</ele>
        <time>2012-03-03T09:32:04Z</time>
      </trkpt>
      <trkpt lat="48.76549" lon="2.23294">
        <ele>125</ele>
        <time>2012-03-03T09:32:08Z</time>
      </trkpt>
      <trkpt lat="48.76573" lon="2.23304">
        <ele>125</ele>
        <time>2012-03-03T09:32:13Z</time>
      </trkpt>
      <trkpt lat="48.76582" lon="2.23304">
        <ele>124</ele>
        <time>2012-03-03T09:32:16Z</time>
      </trkpt>
      <trkpt lat="48.76589" lon="2.23291">
        <ele>120</ele>
        <time>2012-03-03T09:32:20Z</time>
      </trkpt>
      <trkpt lat="48.76601" lon="2.23253">
        <ele>116</ele>
        <time>2012-03-03T09:32:26Z</time>
      </trkpt>
      <trkpt lat="48.76603" lon="2.23247">
        <ele>114</ele>
        <time>2012-03-03T09:32:27Z</time>
      </trkpt>
      <trkpt lat="48.76608" lon="2.23228">
        <ele>114</ele>
        <time>2012-03-03T09:32:30Z</time>
      </trkpt>
      <trkpt lat="48.76619" lon="2.23186">
        <ele>115</ele>
        <time>2012-03-03T09:32:36Z</time>
      </trkpt>
      <trkpt lat="48.76625" lon="2.23162">
        <ele>116</ele>
        <time>2012-03-03T09:32:40Z</time>
      </trkpt>
      <trkpt lat="48.76637" lon="2.23121">
        <ele>117</ele>
        <time>2012-03-03T09:32:48Z</time>
      </trkpt>
      <trkpt lat="48.76645" lon="2.23086">
        <ele>118</ele>
        <time>2012-03-03T09:32:54Z</time>
      </trkpt>
      <trkpt lat="48.7665" lon="2.23066">
        <ele>119</ele>
        <time>2012-03-03T09:32:58Z</time>
      </trkpt>
      <trkpt lat="48.76655" lon="2.23029">
        <ele>120</ele>
        <time>2012-03-03T09:33:05Z</time>
      </trkpt>
      <trkpt lat="48.76656" lon="2.22999">
        <ele>122</ele>
        <time>2012-03-03T09:33:10Z</time>
      </trkpt>
      <trkpt lat="48.76658" lon="2.22984">
        <ele>121</ele>
        <time>2012-03-03T09:33:12Z</time>
      </trkpt>
      <trkpt lat="48.76653" lon="2.22954">
        <ele>120</ele>
        <time>2012-03-03T09:33:16Z</time>
      </trkpt>
      <trkpt lat="48.76652" lon="2.22936">
        <ele>120</ele>
        <time>2012-03-03T09:33:21Z</time>
      </trkpt>
      <trkpt lat="48.76647" lon="2.2293">
        <ele>120</ele>
        <time>2012-03-03T09:33:23Z</time>
      </trkpt>
      <trkpt lat="48.76613" lon="2.229">
        <ele>120</ele>
        <time>2012-03-03T09:33:32Z</time>
      </trkpt>
      <trkpt lat="48.76584" lon="2.22869">
        <ele>120</ele>
        <time>2012-03-03T09:33:39Z</time>
      </trkpt>
      <trkpt lat="48.76553" lon="2.22835">
        <ele>117</ele>
        <time>2012-03-03T09:33:46Z</time>
      </trkpt>
      <trkpt lat="48.7652" lon="2.228">
        <ele>118</ele>
        <time>2012-03-03T09:33:53Z</time>
      </trkpt>
      <trkpt lat="48.7649" lon="2.22767">
        <ele>115</ele>
        <time>2012-03-03T09:33:59Z</time>
      </trkpt>
      <trkpt lat="48.7645" lon="2.22726">
        <ele>114</ele>
        <time>2012-03-03T09:34:07Z</time>
      </trkpt>
      <trkpt lat="48.76418" lon="2.22691">
        <ele>113</ele>
        <time>2012-03-03T09:34:14Z</time>
      </trkpt>
      <trkpt lat="48.76376" lon="2.22642">
        <ele>110</ele>
        <time>2012-03-03T09:34:23Z</time>
      </trkpt>
      <trkpt lat="48.7634" lon="2.22596">
        <ele>109</ele>
        <time>2012-03-03T09:34:30Z</time>
      </trkpt>
      <trkpt lat="48.76314" lon="2.22547">
        <ele>108</ele>
        <time>2012-03-03T09:34:36Z</time>
      </trkpt>
      <trkpt lat="48.7631" lon="2.22539">
        <ele>108</ele>
        <time>2012-03-03T09:34:37Z</time>
      </trkpt>
      <trkpt lat="48.76302" lon="2.22523">
        <ele>108</ele>
        <time>2012-03-03T09:34:39Z</time>
      </trkpt>
      <trkpt lat="48.76284" lon="2.22493">
        <ele>111</ele>
        <time>2012-03-03T09:34:43Z</time>
      </trkpt>
      <trkpt lat="48.76226" lon="2.22437">
        <ele>107</ele>
        <time>2012-03-03T09:34:53Z</time>
      </trkpt>
      <trkpt lat="48.76221" lon="2.22432">
        <ele>107</ele>
        <time>2012-03-03T09:34:54Z</time>
      </trkpt>
      <trkpt lat="48.76206" lon="2.22412">
        <ele>108</ele>
        <time>2012-03-03T09:34:57Z</time>
      </trkpt>
      <trkpt lat="48.76198" lon="2.22396">
        <ele>108</ele>
        <time>2012-03-03T09:34:59Z</time>
      </trkpt>
      <trkpt lat="48.76189" lon="2.22371">
        <ele>108</ele>
        <time>2012-03-03T09:35:02Z</time>
      </trkpt>
      <trkpt lat="48.76176" lon="2.22332">
        <ele>106</ele>
        <time>2012-03-03T09:35:07Z</time>
      </trkpt>
      <trkpt lat="48.76183" lon="2.22315">
        <ele>109</ele>
        <time>2012-03-03T09:35:10Z</time>
      </trkpt>
      <trkpt lat="48.76191" lon="2.22293">
        <ele>111</ele>
        <time>2012-03-03T09:35:15Z</time>
      </trkpt>
      <trkpt lat="48.76201" lon="2.22262">
        <ele>112</ele>
        <time>2012-03-03T09:35:23Z</time>
      </trkpt>
      <trkpt lat="48.76212" lon="2.22236">
        <ele>117</ele>
        <time>2012-03-03T09:35:30Z</time>
      </trkpt>
      <trkpt lat="48.76219" lon="2.22209">
        <ele>119</ele>
        <time>2012-03-03T09:35:37Z</time>
      </trkpt>
      <trkpt lat="48.76225" lon="2.22194">
        <ele>120</ele>
        <time>2012-03-03T09:35:42Z</time>
      </trkpt>
      <trkpt lat="48.76231" lon="2.22173">
        <ele>122</ele>
        <time>2012-03-03T09:35:49Z</time>
      </trkpt>
      <trkpt lat="48.76239" lon="2.22157">
        <ele>127</ele>
        <time>2012-03-03T09:35:55Z</time>
      </trkpt>
      <trkpt lat="48.76249" lon="2.22137">
        <ele>129</ele>
        <time>2012-03-03T09:36:02Z</time>
      </trkpt>
      <trkpt lat="48.76253" lon="2.22123">
        <ele>138</ele>
        <time>2012-03-03T09:36:07Z</time>
      </trkpt>
      <trkpt lat="48.7626" lon="2.22108">
        <ele>139</ele>
        <time>2012-03-03T09:36:13Z</time>
      </trkpt>
      <trkpt lat="48.76264" lon="2.2209">
        <ele>139</ele>
        <time>2012-03-03T09:36:19Z</time>
      </trkpt>
      <trkpt lat="48.76267" lon="2.2208">
        <ele>143</ele>
        <time>2012-03-03T09:36:22Z</time>
      </trkpt>
      <trkpt lat="48.76272" lon="2.22063">
        <ele>145</ele>
        <time>2012-03-03T09:36:28Z</time>
      </trkpt>
      <trkpt lat="48.76276" lon="2.22053">
        <ele>146</ele>
        <time>2012-03-03T09:36:32Z</time>
      </trkpt>
      <trkpt lat="48.76281" lon="2.22034">
        <ele>147</ele>
        <time>2012-03-03T09:36:38Z</time>
      </trkpt>
      <trkpt lat="48.76287" lon="2.22016">
        <ele>148</ele>
        <time>2012-03-03T09:36:44Z</time>
      </trkpt>
      <trkpt lat="48.76294" lon="2.22007">
        <ele>148</ele>
        <time>2012-03-03T09:36:48Z</time>
      </trkpt>
      <trkpt lat="48.76299" lon="2.21986">
        <ele>152</ele>
        <time>2012-03-03T09:36:55Z</time>
      </trkpt>
      <trkpt lat="48.76304" lon="2.21967">
        <ele>152</ele>
        <time>2012-03-03T09:37:02Z</time>
      </trkpt>
      <trkpt lat="48.76309" lon="2.21955">
        <ele>153</ele>
        <time>2012-03-03T09:37:07Z</time>
      </trkpt>
      <trkpt lat="48.76313" lon="2.21943">
        <ele>154</ele>
        <time>2012-03-03T09:37:12Z</time>
      </trkpt>
      <trkpt lat="48.76315" lon="2.2193">
        <ele>155</ele>
        <time>2012-03-03T09:37:17Z</time>
      </trkpt>
      <trkpt lat="48.76319" lon="2.21919">
        <ele>156</ele>
        <time>2012-03-03T09:37:22Z</time>
      </trkpt>
      <trkpt lat="48.76324" lon="2.21902">
        <ele>158</ele>
        <time>2012-03-03T09:37:29Z</time>
      </trkpt>
      <trkpt lat="48.76328" lon="2.2189">
        <ele>158</ele>
        <time>2012-03-03T09:37:34Z</time>
      </trkpt>
      <trkpt lat="48.76335" lon="2.21879">
        <ele>162</ele>
        <time>2012-03-03T09:37:40Z</time>
      </trkpt>
      <trkpt lat="48.76336" lon="2.21877">
        <ele>162</ele>
        <time>2012-03-03T09:37:41Z</time>
      </trkpt>
      <trkpt lat="48.7634" lon="2.21865">
        <ele>162</ele>
        <time>2012-03-03T09:37:47Z</time>
      </trkpt>
      <trkpt lat="48.76342" lon="2.21857">
        <ele>162</ele>
        <time>2012-03-03T09:37:50Z</time>
      </trkpt>
      <trkpt lat="48.76346" lon="2.21839">
        <ele>162</ele>
        <time>2012-03-03T09:37:56Z</time>
      </trkpt>
      <trkpt lat="48.76348" lon="2.2183">
        <ele>163</ele>
        <time>2012-03-03T09:38:00Z</time>
      </trkpt>
      <trkpt lat="48.76353" lon="2.21816">
        <ele>164</ele>
        <time>2012-03-03T09:38:07Z</time>
      </trkpt>
      <trkpt lat="48.76352" lon="2.21801">
        <ele>165</ele>
        <time>2012-03-03T09:38:13Z</time>
      </trkpt>
      <trkpt lat="48.7635" lon="2.21794">
        <ele>165</ele>
        <time>2012-03-03T09:38:16Z</time>
      </trkpt>
      <trkpt lat="48.7635" lon="2.2179">
        <ele>165</ele>
        <time>2012-03-03T09:38:18Z</time>
      </trkpt>
      <trkpt lat="48.76339" lon="2.21783">
        <ele>165</ele>
        <time>2012-03-03T09:38:23Z</time>
      </trkpt>
      <trkpt lat="48.76334" lon="2.21769">
        <ele>166</ele>
        <time>2012-03-03T09:38:28Z</time>
      </trkpt>
      <trkpt lat="48.76323" lon="2.21757">
        <ele>166</ele>
        <time>2012-03-03T09:38:33Z</time>
      </trkpt>
      <trkpt lat="48.7631" lon="2.21747">
        <ele>168</ele>
        <time>2012-03-03T09:38:37Z</time>
      </trkpt>
      <trkpt lat="48.7629" lon="2.21749">
        <ele>168</ele>
        <time>2012-03-03T09:38:42Z</time>
      </trkpt>
      <trkpt lat="48.76273" lon="2.2175">
        <ele>165</ele>
        <time>2012-03-03T09:38:47Z</time>
      </trkpt>
      <trkpt lat="48.76254" lon="2.21747">
        <ele>167</ele>
        <time>2012-03-03T09:38:52Z</time>
      </trkpt>
      <trkpt lat="48.76242" lon="2.21743">
        <ele>167</ele>
        <time>2012-03-03T09:38:56Z</time>
      </trkpt>
      <trkpt lat="48.7623" lon="2.21747">
        <ele>167</ele>
        <time>2012-03-03T09:39:00Z</time>
      </trkpt>
      <trkpt lat="48.76214" lon="2.21748">
        <ele>167</ele>
        <time>2012-03-03T09:39:05Z</time>
      </trkpt>
      <trkpt lat="48.76202" lon="2.21742">
        <ele>166</ele>
        <time>2012-03-03T09:39:10Z</time>
      </trkpt>
      <trkpt lat="48.76188" lon="2.2173">
        <ele>166</ele>
        <time>2012-03-03T09:39:15Z</time>
      </trkpt>
      <trkpt lat="48.76176" lon="2.21714">
        <ele>167</ele>
        <time>2012-03-03T09:39:20Z</time>
      </trkpt>
      <trkpt lat="48.7617" lon="2.21689">
        <ele>169</ele>
        <time>2012-03-03T09:39:27Z</time>
      </trkpt>
      <trkpt lat="48.76168" lon="2.21675">
        <ele>169</ele>
        <time>2012-03-03T09:39:31Z</time>
      </trkpt>
      <trkpt lat="48.76167" lon="2.21659">
        <ele>171</ele>
        <time>2012-03-03T09:39:35Z</time>
      </trkpt>
      <trkpt lat="48.76167" lon="2.21637">
        <ele>165</ele>
        <time>2012-03-03T09:39:41Z</time>
      </trkpt>
      <trkpt lat="48.76167" lon="2.21634">
        <ele>165</ele>
        <time>2012-03-03T09:39:42Z</time>
      </trkpt>
      <trkpt lat="48.76157" lon="2.21614">
        <ele>165</ele>
        <time>2012-03-03T09:39:48Z</time>
      </trkpt>
      <trkpt lat="48.76151" lon="2.21607">
        <ele>165</ele>
        <time>2012-03-03T09:39:50Z</time>
      </trkpt>
      <trkpt lat="48.76148" lon="2.21581">
        <ele>168</ele>
        <time>2012-03-03T09:39:56Z</time>
      </trkpt>
      <trkpt lat="48.76146" lon="2.21559">
        <ele>167</ele>
        <time>2012-03-03T09:40:01Z</time>
      </trkpt>
      <trkpt lat="48.76145" lon="2.21554">
        <ele>167</ele>
        <time>2012-03-03T09:40:02Z</time>
      </trkpt>
      <trkpt lat="48.76141" lon="2.21526">
        <ele>167</ele>
        <time>2012-03-03T09:40:08Z</time>
      </trkpt>
      <trkpt lat="48.76134" lon="2.21516">
        <ele>166</ele>
        <time>2012-03-03T09:40:11Z</time>
      </trkpt>
      <trkpt lat="48.76118" lon="2.21492">
        <ele>167</ele>
        <time>2012-03-03T09:40:17Z</time>
      </trkpt>
      <trkpt lat="48.76102" lon="2.21468">
        <ele>167</ele>
        <time>2012-03-03T09:40:22Z</time>
      </trkpt>
      <trkpt lat="48.76086" lon="2.21449">
        <ele>168</ele>
        <time>2012-03-03T09:40:26Z</time>
      </trkpt>
      <trkpt lat="48.7607" lon="2.21415">
        <ele>168</ele>
        <time>2012-03-03T09:40:31Z</time>
      </trkpt>
      <trkpt lat="48.76068" lon="2.21408">
        <ele>168</ele>
        <time>2012-03-03T09:40:32Z</time>
      </trkpt>
      <trkpt lat="48.76067" lon="2.21369">
        <ele>168</ele>
        <time>2012-03-03T09:40:37Z</time>
      </trkpt>
      <trkpt lat="48.76071" lon="2.21348">
        <ele>168</ele>
        <time>2012-03-03T09:40:40Z</time>
      </trkpt>
      <trkpt lat="48.76079" lon="2.21308">
        <ele>168</ele>
        <time>2012-03-03T09:40:46Z</time>
      </trkpt>
      <trkpt lat="48.76075" lon="2.21294">
        <ele>168</ele>
        <time>2012-03-03T09:40:50Z</time>
      </trkpt>
      <trkpt lat="48.76066" lon="2.21295">
        <ele>168</ele>
        <time>2012-03-03T09:40:52Z</time>
      </trkpt>
      <trkpt lat="48.76048" lon="2.21307">
        <ele>168</ele>
        <time>2012-03-03T09:40:56Z</time>
      </trkpt>
      <trkpt lat="48.76022" lon="2.21333">
        <ele>169</ele>
        <time>2012-03-03T09:41:02Z</time>
      </trkpt>
      <trkpt lat="48.75998" lon="2.21372">
        <ele>167</ele>
        <time>2012-03-03T09:41:09Z</time>
      </trkpt>
      <trkpt lat="48.75977" lon="2.21408">
        <ele>166</ele>
        <time>2012-03-03T09:41:16Z</time>
      </trkpt>
      <trkpt lat="48.75966" lon="2.21432">
        <ele>161</ele>
        <time>2012-03-03T09:41:20Z</time>
      </trkpt>
      <trkpt lat="48.75952" lon="2.21448">
        <ele>160</ele>
        <time>2012-03-03T09:41:24Z</time>
      </trkpt>
      <trkpt lat="48.75938" lon="2.21437">
        <ele>161</ele>
        <time>2012-03-03T09:41:30Z</time>
      </trkpt>
      <trkpt lat="48.75931" lon="2.21434">
        <ele>161</ele>
        <time>2012-03-03T09:41:32Z</time>
      </trkpt>
      <trkpt lat="48.7592" lon="2.21423">
        <ele>163</ele>
        <time>2012-03-03T09:41:37Z</time>
      </trkpt>
      <trkpt lat="48.75906" lon="2.21419">
        <ele>160</ele>
        <time>2012-03-03T09:41:41Z</time>
      </trkpt>
      <trkpt lat="48.7589" lon="2.2141">
        <ele>160</ele>
        <time>2012-03-03T09:41:46Z</time>
      </trkpt>
      <trkpt lat="48.75878" lon="2.21385">
        <ele>159</ele>
        <time>2012-03-03T09:41:51Z</time>
      </trkpt>
      <trkpt lat="48.75863" lon="2.21352">
        <ele>159</ele>
        <time>2012-03-03T09:41:57Z</time>
      </trkpt>
      <trkpt lat="48.75858" lon="2.21342">
        <ele>158</ele>
        <time>2012-03-03T09:41:59Z</time>
      </trkpt>
      <trkpt lat="48.75851" lon="2.21334">
        <ele>157</ele>
        <time>2012-03-03T09:42:01Z</time>
      </trkpt>
      <trkpt lat="48.75834" lon="2.21315">
        <ele>160</ele>
        <time>2012-03-03T09:42:05Z</time>
      </trkpt>
      <trkpt lat="48.75828" lon="2.21301">
        <ele>148</ele>
        <time>2012-03-03T09:42:07Z</time>
      </trkpt>
      <trkpt lat="48.75821" lon="2.21284">
        <ele>148</ele>
        <time>2012-03-03T09:42:10Z</time>
      </trkpt>
      <trkpt lat="48.75818" lon="2.21253">
        <ele>152</ele>
        <time>2012-03-03T09:42:14Z</time>
      </trkpt>
      <trkpt lat="48.75821" lon="2.21232">
        <ele>149</ele>
        <time>2012-03-03T09:42:17Z</time>
      </trkpt>
      <trkpt lat="48.75826" lon="2.21211">
        <ele>146</ele>
        <time>2012-03-03T09:42:20Z</time>
      </trkpt>
      <trkpt lat="48.75836" lon="2.21184">
        <ele>158</ele>
        <time>2012-03-03T09:42:24Z</time>
      </trkpt>
      <trkpt lat="48.7584" lon="2.21171">
        <ele>156</ele>
        <time>2012-03-03T09:42:26Z</time>
      </trkpt>
      <trkpt lat="48.75846" lon="2.21152">
        <ele>156</ele>
        <time>2012-03-03T09:42:29Z</time>
      </trkpt>
      <trkpt lat="48.75855" lon="2.21127">
        <ele>158</ele>
        <time>2012-03-03T09:42:33Z</time>
      </trkpt>
      <trkpt lat="48.75862" lon="2.21095">
        <ele>157</ele>
        <time>2012-03-03T09:42:38Z</time>
      </trkpt>
      <trkpt lat="48.75862" lon="2.21076">
        <ele>154</ele>
        <time>2012-03-03T09:42:41Z</time>
      </trkpt>
      <trkpt lat="48.75864" lon="2.21065">
        <ele>154</ele>
        <time>2012-03-03T09:42:43Z</time>
      </trkpt>
      <trkpt lat="48.75867" lon="2.21041">
        <ele>155</ele>
        <time>2012-03-03T09:42:47Z</time>
      </trkpt>
      <trkpt lat="48.7587" lon="2.21017">
        <ele>154</ele>
        <time>2012-03-03T09:42:51Z</time>
      </trkpt>
      <trkpt lat="48.7587" lon="2.20999">
        <ele>152</ele>
        <time>2012-03-03T09:42:54Z</time>
      </trkpt>
      <trkpt lat="48.75872" lon="2.20965">
        <ele>152</ele>
        <time>2012-03-03T09:43:00Z</time>
      </trkpt>
      <trkpt lat="48.75875" lon="2.20942">
        <ele>153</ele>
        <time>2012-03-03T09:43:05Z</time>
      </trkpt>
      <trkpt lat="48.75875" lon="2.20912">
        <ele>152</ele>
        <time>2012-03-03T09:43:09Z</time>
      </trkpt>
      <trkpt lat="48.75874" lon="2.20904">
        <ele>152</ele>
        <time>2012-03-03T09:43:10Z</time>
      </trkpt>
      <trkpt lat="48.75866" lon="2.20874">
        <ele>151</ele>
        <time>2012-03-03T09:43:15Z</time>
      </trkpt>
      <trkpt lat="48.75868" lon="2.20855">
        <ele>151</ele>
        <time>2012-03-03T09:43:18Z</time>
      </trkpt>
      <trkpt lat="48.7588" lon="2.20815">
        <ele>153</ele>
        <time>2012-03-03T09:43:24Z</time>
      </trkpt>
      <trkpt lat="48.75889" lon="2.20794">
        <ele>154</ele>
        <time>2012-03-03T09:43:28Z</time>
      </trkpt>
      <trkpt lat="48.75889" lon="2.20767">
        <ele>155</ele>
        <time>2012-03-03T09:43:32Z</time>
      </trkpt>
      <trkpt lat="48.7589" lon="2.20736">
        <ele>153</ele>
        <time>2012-03-03T09:43:36Z</time>
      </trkpt>
      <trkpt lat="48.75901" lon="2.20708">
        <ele>152</ele>
        <time>2012-03-03T09:43:41Z</time>
      </trkpt>
      <trkpt lat="48.75906" lon="2.20685">
        <ele>154</ele>
        <time>2012-03-03T09:43:45Z</time>
      </trkpt>
      <trkpt lat="48.75912" lon="2.20651">
        <ele>153</ele>
        <time>2012-03-03T09:43:50Z</time>
      </trkpt>
      <trkpt lat="48.75919" lon="2.20626">
        <ele>164</ele>
        <time>2012-03-03T09:43:54Z</time>
      </trkpt>
      <trkpt lat="48.75923" lon="2.20608">
        <ele>163</ele>
        <time>2012-03-03T09:43:57Z</time>
      </trkpt>
      <trkpt lat="48.75934" lon="2.20575">
        <ele>160</ele>
        <time>2012-03-03T09:44:04Z</time>
      </trkpt>
      <trkpt lat="48.7594" lon="2.20556">
        <ele>161</ele>
        <time>2012-03-03T09:44:08Z</time>
      </trkpt>
      <trkpt lat="48.75946" lon="2.20535">
        <ele>161</ele>
        <time>2012-03-03T09:44:13Z</time>
      </trkpt>
      <trkpt lat="48.75955" lon="2.20511">
        <ele>162</ele>
        <time>2012-03-03T09:44:18Z</time>
      </trkpt>
      <trkpt lat="48.75962" lon="2.20487">
        <ele>161</ele>
        <time>2012-03-03T09:44:23Z</time>
      </trkpt>
      <trkpt lat="48.75964" lon="2.20466">
        <ele>160</ele>
        <time>2012-03-03T09:44:27Z</time>
      </trkpt>
      <trkpt lat="48.75964" lon="2.20442">
        <ele>160</ele>
        <time>2012-03-03T09:44:30Z</time>
      </trkpt>
      <trkpt lat="48.75962" lon="2.20404">
        <ele>158</ele>
        <time>2012-03-03T09:44:34Z</time>
      </trkpt>
      <trkpt lat="48.75964" lon="2.20372">
        <ele>158</ele>
        <time>2012-03-03T09:44:38Z</time>
      </trkpt>
      <trkpt lat="48.75963" lon="2.2032">
        <ele>156</ele>
        <time>2012-03-03T09:44:44Z</time>
      </trkpt>
      <trkpt lat="48.7597" lon="2.20272">
        <ele>156</ele>
        <time>2012-03-03T09:44:50Z</time>
      </trkpt>
      <trkpt lat="48.75978" lon="2.20235">
        <ele>153</ele>
        <time>2012-03-03T09:44:55Z</time>
      </trkpt>
      <trkpt lat="48.75986" lon="2.20221">
        <ele>153</ele>
        <time>2012-03-03T09:44:59Z</time>
      </trkpt>
      <trkpt lat="48.75995" lon="2.20211">
        <ele>152</ele>
        <time>2012-03-03T09:45:03Z</time>
      </trkpt>
      <trkpt lat="48.75995" lon="2.20202">
        <ele>152</ele>
        <time>2012-03-03T09:45:05Z</time>
      </trkpt>
      <trkpt lat="48.75994" lon="2.20186">
        <ele>151</ele>
        <time>2012-03-03T09:45:08Z</time>
      </trkpt>
      <trkpt lat="48.76008" lon="2.20176">
        <ele>159</ele>
        <time>2012-03-03T09:45:12Z</time>
      </trkpt>
      <trkpt lat="48.76025" lon="2.20173">
        <ele>162</ele>
        <time>2012-03-03T09:45:16Z</time>
      </trkpt>
      <trkpt lat="48.76046" lon="2.20175">
        <ele>164</ele>
        <time>2012-03-03T09:45:20Z</time>
      </trkpt>
      <trkpt lat="48.76074" lon="2.20173">
        <ele>165</ele>
        <time>2012-03-03T09:45:24Z</time>
      </trkpt>
      <trkpt lat="48.76081" lon="2.20175">
        <ele>165</ele>
        <time>2012-03-03T09:45:25Z</time>
      </trkpt>
      <trkpt lat="48.76114" lon="2.20184">
        <ele>166</ele>
        <time>2012-03-03T09:45:30Z</time>
      </trkpt>
      <trkpt lat="48.76148" lon="2.20205">
        <ele>166</ele>
        <time>2012-03-03T09:45:36Z</time>
      </trkpt>
      <trkpt lat="48.76176" lon="2.20229">
        <ele>163</ele>
        <time>2012-03-03T09:45:41Z</time>
      </trkpt>
      <trkpt lat="48.76194" lon="2.20257">
        <ele>167</ele>
        <time>2012-03-03T09:45:46Z</time>
      </trkpt>
      <trkpt lat="48.76192" lon="2.20282">
        <ele>167</ele>
        <time>2012-03-03T09:45:49Z</time>
      </trkpt>
      <trkpt lat="48.7618" lon="2.2031">
        <ele>169</ele>
        <time>2012-03-03T09:45:53Z</time>
      </trkpt>
      <trkpt lat="48.76182" lon="2.20321">
        <ele>169</ele>
        <time>2012-03-03T09:45:56Z</time>
      </trkpt>
      <trkpt lat="48.76189" lon="2.20318">
        <ele>169</ele>
        <time>2012-03-03T09:45:59Z</time>
      </trkpt>
      <trkpt lat="48.7621" lon="2.20311">
        <ele>167</ele>
        <time>2012-03-03T09:46:04Z</time>
      </trkpt>
      <trkpt lat="48.76228" lon="2.20304">
        <ele>166</ele>
        <time>2012-03-03T09:46:07Z</time>
      </trkpt>
      <trkpt lat="48.76267" lon="2.20295">
        <ele>163</ele>
        <time>2012-03-03T09:46:14Z</time>
      </trkpt>
      <trkpt lat="48.76297" lon="2.20288">
        <ele>163</ele>
        <time>2012-03-03T09:46:20Z</time>
      </trkpt>
      <trkpt lat="48.76301" lon="2.20287">
        <ele>163</ele>
        <time>2012-03-03T09:46:21Z</time>
      </trkpt>
      <trkpt lat="48.7631" lon="2.20277">
        <ele>163</ele>
        <time>2012-03-03T09:46:24Z</time>
      </trkpt>
      <trkpt lat="48.76325" lon="2.2026">
        <ele>162</ele>
        <time>2012-03-03T09:46:29Z</time>
      </trkpt>
      <trkpt lat="48.76337" lon="2.20231">
        <ele>162</ele>
        <time>2012-03-03T09:46:35Z</time>
      </trkpt>
      <trkpt lat="48.76339" lon="2.20227">
        <ele>162</ele>
        <time>2012-03-03T09:46:36Z</time>
      </trkpt>
      <trkpt lat="48.76353" lon="2.20213">
        <ele>163</ele>
        <time>2012-03-03T09:46:41Z</time>
      </trkpt>
      <trkpt lat="48.76357" lon="2.20203">
        <ele>163</ele>
        <time>2012-03-03T09:46:43Z</time>
      </trkpt>
      <trkpt lat="48.76353" lon="2.20167">
        <ele>162</ele>
        <time>2012-03-03T09:46:48Z</time>
      </trkpt>
      <trkpt lat="48.76345" lon="2.20129">
        <ele>162</ele>
        <time>2012-03-03T09:46:52Z</time>
      </trkpt>
      <trkpt lat="48.76337" lon="2.20077">
        <ele>159</ele>
        <time>2012-03-03T09:46:57Z</time>
      </trkpt>
      <trkpt lat="48.76336" lon="2.20056">
        <ele>160</ele>
        <time>2012-03-03T09:46:59Z</time>
      </trkpt>
      <trkpt lat="48.76345" lon="2.20025">
        <ele>159</ele>
        <time>2012-03-03T09:47:03Z</time>
      </trkpt>
      <trkpt lat="48.76356" lon="2.20009">
        <ele>159</ele>
        <time>2012-03-03T09:47:06Z</time>
      </trkpt>
      <trkpt lat="48.76368" lon="2.19995">
        <ele>158</ele>
        <time>2012-03-03T09:47:09Z</time>
      </trkpt>
      <trkpt lat="48.764" lon="2.19975">
        <ele>161</ele>
        <time>2012-03-03T09:47:16Z</time>
      </trkpt>
      <trkpt lat="48.76416" lon="2.1996">
        <ele>160</ele>
        <time>2012-03-03T09:47:20Z</time>
      </trkpt>
      <trkpt lat="48.76429" lon="2.19948">
        <ele>166</ele>
        <time>2012-03-03T09:47:23Z</time>
      </trkpt>
      <trkpt lat="48.76454" lon="2.19937">
        <ele>166</ele>
        <time>2012-03-03T09:47:28Z</time>
      </trkpt>
      <trkpt lat="48.76458" lon="2.19936">
        <ele>166</ele>
        <time>2012-03-03T09:47:29Z</time>
      </trkpt>
      <trkpt lat="48.76478" lon="2.19918">
        <ele>167</ele>
        <time>2012-03-03T09:47:33Z</time>
      </trkpt>
      <trkpt lat="48.76482" lon="2.19912">
        <ele>167</ele>
        <time>2012-03-03T09:47:34Z</time>
      </trkpt>
      <trkpt lat="48.765" lon="2.19869">
        <ele>167</ele>
        <time>2012-03-03T09:47:40Z</time>
      </trkpt>
      <trkpt lat="48.76495" lon="2.19834">
        <ele>169</ele>
        <time>2012-03-03T09:47:44Z</time>
      </trkpt>
      <trkpt lat="48.76488" lon="2.19802">
        <ele>169</ele>
        <time>2012-03-03T09:47:48Z</time>
      </trkpt>
      <trkpt lat="48.76481" lon="2.19781">
        <ele>169</ele>
        <time>2012-03-03T09:47:51Z</time>
      </trkpt>
      <trkpt lat="48.76474" lon="2.19754">
        <ele>169</ele>
        <time>2012-03-03T09:47:56Z</time>
      </trkpt>
      <trkpt lat="48.76468" lon="2.19719">
        <ele>170</ele>
        <time>2012-03-03T09:48:03Z</time>
      </trkpt>
      <trkpt lat="48.76464" lon="2.19689">
        <ele>170</ele>
        <time>2012-03-03T09:48:09Z</time>
      </trkpt>
      <trkpt lat="48.7646" lon="2.19663">
        <ele>169</ele>
        <time>2012-03-03T09:48:14Z</time>
      </trkpt>
      <trkpt lat="48.76462" lon="2.19628">
        <ele>168</ele>
        <time>2012-03-03T09:48:19Z</time>
      </trkpt>
      <trkpt lat="48.76463" lon="2.19622">
        <ele>168</ele>
        <time>2012-03-03T09:48:20Z</time>
      </trkpt>
      <trkpt lat="48.76469" lon="2.1959">
        <ele>167</ele>
        <time>2012-03-03T09:48:25Z</time>
      </trkpt>
      <trkpt lat="48.76471" lon="2.19583">
        <ele>164</ele>
        <time>2012-03-03T09:48:26Z</time>
      </trkpt>
      <trkpt lat="48.76488" lon="2.19553">
        <ele>163</ele>
        <time>2012-03-03T09:48:32Z</time>
      </trkpt>
      <trkpt lat="48.7649" lon="2.1955">
        <ele>163</ele>
        <time>2012-03-03T09:48:33Z</time>
      </trkpt>
      <trkpt lat="48.76495" lon="2.19542">
        <ele>162</ele>
        <time>2012-03-03T09:48:35Z</time>
      </trkpt>
      <trkpt lat="48.76508" lon="2.19517">
        <ele>164</ele>
        <time>2012-03-03T09:48:39Z</time>
      </trkpt>
      <trkpt lat="48.76522" lon="2.19482">
        <ele>163</ele>
        <time>2012-03-03T09:48:43Z</time>
      </trkpt>
      <trkpt lat="48.7653" lon="2.19463">
        <ele>163</ele>
        <time>2012-03-03T09:48:47Z</time>
      </trkpt>
      <trkpt lat="48.76529" lon="2.19449">
        <ele>162</ele>
        <time>2012-03-03T09:48:50Z</time>
      </trkpt>
      <trkpt lat="48.76527" lon="2.19426">
        <ele>162</ele>
        <time>2012-03-03T09:48:53Z</time>
      </trkpt>
      <trkpt lat="48.76522" lon="2.19402">
        <ele>161</ele>
        <time>2012-03-03T09:48:57Z</time>
      </trkpt>
      <trkpt lat="48.76515" lon="2.19376">
        <ele>161</ele>
        <time>2012-03-03T09:49:02Z</time>
      </trkpt>
      <trkpt lat="48.76511" lon="2.19368">
        <ele>161</ele>
        <time>2012-03-03T09:49:04Z</time>
      </trkpt>
      <trkpt lat="48.76507" lon="2.19327">
        <ele>161</ele>
        <time>2012-03-03T09:49:11Z</time>
      </trkpt>
      <trkpt lat="48.76508" lon="2.1932">
        <ele>162</ele>
        <time>2012-03-03T09:49:12Z</time>
      </trkpt>
      <trkpt lat="48.76509" lon="2.19287">
        <ele>164</ele>
        <time>2012-03-03T09:49:17Z</time>
      </trkpt>
      <trkpt lat="48.76513" lon="2.19274">
        <ele>164</ele>
        <time>2012-03-03T09:49:21Z</time>
      </trkpt>
      <trkpt lat="48.76521" lon="2.19267">
        <ele>164</ele>
        <time>2012-03-03T09:49:26Z</time>
      </trkpt>
      <trkpt lat="48.76525" lon="2.19266">
        <ele>165</ele>
        <time>2012-03-03T09:49:28Z</time>
      </trkpt>
      <trkpt lat="48.76538" lon="2.19253">
        <ele>165</ele>
        <time>2012-03-03T09:49:35Z</time>
      </trkpt>
      <trkpt lat="48.7654" lon="2.1925">
        <ele>166</ele>
        <time>2012-03-03T09:49:36Z</time>
      </trkpt>
      <trkpt lat="48.76548" lon="2.19242">
        <ele>168</ele>
        <time>2012-03-03T09:49:41Z</time>
      </trkpt>
      <trkpt lat="48.76549" lon="2.19238">
        <ele>168</ele>
        <time>2012-03-03T09:49:42Z</time>
      </trkpt>
      <trkpt lat="48.7655" lon="2.19231">
        <ele>168</ele>
        <time>2012-03-03T09:49:44Z</time>
      </trkpt>
      <trkpt lat="48.76556" lon="2.19229">
        <ele>169</ele>
        <time>2012-03-03T09:49:48Z</time>
      </trkpt>
      <trkpt lat="48.76569" lon="2.19219">
        <ele>169</ele>
        <time>2012-03-03T09:49:55Z</time>
      </trkpt>
      <trkpt lat="48.7658" lon="2.1921">
        <ele>169</ele>
        <time>2012-03-03T09:50:00Z</time>
      </trkpt>
      <trkpt lat="48.76583" lon="2.19206">
        <ele>170</ele>
        <time>2012-03-03T09:50:02Z</time>
      </trkpt>
      <trkpt lat="48.76598" lon="2.19195">
        <ele>172</ele>
        <time>2012-03-03T09:50:08Z</time>
      </trkpt>
      <trkpt lat="48.76601" lon="2.19193">
        <ele>172</ele>
        <time>2012-03-03T09:50:09Z</time>
      </trkpt>
      <trkpt lat="48.76617" lon="2.19184">
        <ele>171</ele>
        <time>2012-03-03T09:50:14Z</time>
      </trkpt>
      <trkpt lat="48.76634" lon="2.19172">
        <ele>171</ele>
        <time>2012-03-03T09:50:19Z</time>
      </trkpt>
      <trkpt lat="48.76653" lon="2.19163">
        <ele>171</ele>
        <time>2012-03-03T09:50:24Z</time>
      </trkpt>
      <trkpt lat="48.76678" lon="2.19159">
        <ele>172</ele>
        <time>2012-03-03T09:50:31Z</time>
      </trkpt>
      <trkpt lat="48.76692" lon="2.19159">
        <ele>172</ele>
        <time>2012-03-03T09:50:35Z</time>
      </trkpt>
      <trkpt lat="48.76719" lon="2.19156">
        <ele>173</ele>
        <time>2012-03-03T09:50:41Z</time>
      </trkpt>
      <trkpt lat="48.76729" lon="2.19155">
        <ele>174</ele>
        <time>2012-03-03T09:50:43Z</time>
      </trkpt>
      <trkpt lat="48.76767" lon="2.19163">
        <ele>173</ele>
        <time>2012-03-03T09:50:51Z</time>
      </trkpt>
      <trkpt lat="48.76805" lon="2.19162">
        <ele>172</ele>
        <time>2012-03-03T09:50:58Z</time>
      </trkpt>
      <trkpt lat="48.76843" lon="2.19161">
        <ele>171</ele>
        <time>2012-03-03T09:51:05Z</time>
      </trkpt>
      <trkpt lat="48.7688" lon="2.19158">
        <ele>171</ele>
        <time>2012-03-03T09:51:12Z</time>
      </trkpt>
      <trkpt lat="48.76915" lon="2.19145">
        <ele>171</ele>
        <time>2012-03-03T09:51:19Z</time>
      </trkpt>
      <trkpt lat="48.76945" lon="2.19131">
        <ele>173</ele>
        <time>2012-03-03T09:51:25Z</time>
      </trkpt>
      <trkpt lat="48.7697" lon="2.19119">
        <ele>174</ele>
        <time>2012-03-03T09:51:30Z</time>
      </trkpt>
      <trkpt lat="48.76982" lon="2.19102">
        <ele>175</ele>
        <time>2012-03-03T09:51:35Z</time>
      </trkpt>
      <trkpt lat="48.76983" lon="2.19091">
        <ele>175</ele>
        <time>2012-03-03T09:51:37Z</time>
      </trkpt>
      <trkpt lat="48.76999" lon="2.19046">
        <ele>175</ele>
        <time>2012-03-03T09:51:44Z</time>
      </trkpt>
      <trkpt lat="48.7701" lon="2.19001">
        <ele>177</ele>
        <time>2012-03-03T09:51:50Z</time>
      </trkpt>
      <trkpt lat="48.77024" lon="2.18947">
        <ele>176</ele>
        <time>2012-03-03T09:51:57Z</time>
      </trkpt>
      <trkpt lat="48.77039" lon="2.18887">
        <ele>174</ele>
        <time>2012-03-03T09:52:05Z</time>
      </trkpt>
      <trkpt lat="48.77042" lon="2.18872">
        <ele>174</ele>
        <time>2012-03-03T09:52:07Z</time>
      </trkpt>
      <trkpt lat="48.77053" lon="2.18831">
        <ele>174</ele>
        <time>2012-03-03T09:52:12Z</time>
      </trkpt>
      <trkpt lat="48.7707" lon="2.18766">
        <ele>175</ele>
        <time>2012-03-03T09:52:20Z</time>
      </trkpt>
      <trkpt lat="48.77079" lon="2.18708">
        <ele>175</ele>
        <time>2012-03-03T09:52:27Z</time>
      </trkpt>
      <trkpt lat="48.77094" lon="2.18635">
        <ele>176</ele>
        <time>2012-03-03T09:52:36Z</time>
      </trkpt>
      <trkpt lat="48.77104" lon="2.18594">
        <ele>176</ele>
        <time>2012-03-03T09:52:41Z</time>
      </trkpt>
      <trkpt lat="48.77102" lon="2.18552">
        <ele>175</ele>
        <time>2012-03-03T09:52:46Z</time>
      </trkpt>
      <trkpt lat="48.77095" lon="2.18521">
        <ele>174</ele>
        <time>2012-03-03T09:52:50Z</time>
      </trkpt>
      <trkpt lat="48.77093" lon="2.18504">
        <ele>174</ele>
        <time>2012-03-03T09:52:52Z</time>
      </trkpt>
      <trkpt lat="48.77094" lon="2.18462">
        <ele>174</ele>
        <time>2012-03-03T09:52:57Z</time>
      </trkpt>
      <trkpt lat="48.77106" lon="2.1844">
        <ele>174</ele>
        <time>2012-03-03T09:53:01Z</time>
      </trkpt>
      <trkpt lat="48.77134" lon="2.1842">
        <ele>175</ele>
        <time>2012-03-03T09:53:07Z</time>
      </trkpt>
      <trkpt lat="48.77138" lon="2.18416">
        <ele>174</ele>
        <time>2012-03-03T09:53:08Z</time>
      </trkpt>
      <trkpt lat="48.7716" lon="2.18381">
        <ele>173</ele>
        <time>2012-03-03T09:53:14Z</time>
      </trkpt>
      <trkpt lat="48.77177" lon="2.1836">
        <ele>175</ele>
        <time>2012-03-03T09:53:18Z</time>
      </trkpt>
      <trkpt lat="48.7719" lon="2.18349">
        <ele>175</ele>
        <time>2012-03-03T09:53:21Z</time>
      </trkpt>
      <trkpt lat="48.77191" lon="2.1833">
        <ele>174</ele>
        <time>2012-03-03T09:53:25Z</time>
      </trkpt>
      <trkpt lat="48.77189" lon="2.18323">
        <ele>174</ele>
        <time>2012-03-03T09:53:26Z</time>
      </trkpt>
      <trkpt lat="48.77178" lon="2.18285">
        <ele>173</ele>
        <time>2012-03-03T09:53:31Z</time>
      </trkpt>
      <trkpt lat="48.7717" lon="2.18267">
        <ele>171</ele>
        <time>2012-03-03T09:53:34Z</time>
      </trkpt>
      <trkpt lat="48.77156" lon="2.18251">
        <ele>168</ele>
        <time>2012-03-03T09:53:38Z</time>
      </trkpt>
      <trkpt lat="48.77147" lon="2.18226">
        <ele>163</ele>
        <time>2012-03-03T09:53:43Z</time>
      </trkpt>
      <trkpt lat="48.77142" lon="2.18201">
        <ele>162</ele>
        <time>2012-03-03T09:53:46Z</time>
      </trkpt>
      <trkpt lat="48.77149" lon="2.1818">
        <ele>162</ele>
        <time>2012-03-03T09:53:49Z</time>
      </trkpt>
      <trkpt lat="48.77152" lon="2.18176">
        <ele>163</ele>
        <time>2012-03-03T09:53:50Z</time>
      </trkpt>
      <trkpt lat="48.77161" lon="2.18148">
        <ele>163</ele>
        <time>2012-03-03T09:53:55Z</time>
      </trkpt>
      <trkpt lat="48.77161" lon="2.18126">
        <ele>163</ele>
        <time>2012-03-03T09:53:58Z</time>
      </trkpt>
      <trkpt lat="48.77161" lon="2.1811">
        <ele>163</ele>
        <time>2012-03-03T09:54:00Z</time>
      </trkpt>
      <trkpt lat="48.7717" lon="2.18075">
        <ele>169</ele>
        <time>2012-03-03T09:54:05Z</time>
      </trkpt>
      <trkpt lat="48.77164" lon="2.18052">
        <ele>168</ele>
        <time>2012-03-03T09:54:09Z</time>
      </trkpt>
      <trkpt lat="48.77158" lon="2.18048">
        <ele>168</ele>
        <time>2012-03-03T09:54:10Z</time>
      </trkpt>
      <trkpt lat="48.77134" lon="2.18006">
        <ele>169</ele>
        <time>2012-03-03T09:54:16Z</time>
      </trkpt>
      <trkpt lat="48.77121" lon="2.17972">
        <ele>173</ele>
        <time>2012-03-03T09:54:21Z</time>
      </trkpt>
      <trkpt lat="48.7712" lon="2.17965">
        <ele>173</ele>
        <time>2012-03-03T09:54:23Z</time>
      </trkpt>
      <trkpt lat="48.77121" lon="2.17946">
        <ele>174</ele>
        <time>2012-03-03T09:54:29Z</time>
      </trkpt>
      <trkpt lat="48.77122" lon="2.17928">
        <ele>175</ele>
        <time>2012-03-03T09:54:34Z</time>
      </trkpt>
      <trkpt lat="48.7713" lon="2.17913">
        <ele>177</ele>
        <time>2012-03-03T09:54:39Z</time>
      </trkpt>
      <trkpt lat="48.77141" lon="2.17899">
        <ele>178</ele>
        <time>2012-03-03T09:54:44Z</time>
      </trkpt>
      <trkpt lat="48.77155" lon="2.17877">
        <ele>178</ele>
        <time>2012-03-03T09:54:50Z</time>
      </trkpt>
      <trkpt lat="48.77166" lon="2.17855">
        <ele>178</ele>
        <time>2012-03-03T09:54:55Z</time>
      </trkpt>
      <trkpt lat="48.77177" lon="2.17837">
        <ele>179</ele>
        <time>2012-03-03T09:54:59Z</time>
      </trkpt>
      <trkpt lat="48.77185" lon="2.17808">
        <ele>177</ele>
        <time>2012-03-03T09:55:04Z</time>
      </trkpt>
      <trkpt lat="48.77182" lon="2.17796">
        <ele>177</ele>
        <time>2012-03-03T09:55:07Z</time>
      </trkpt>
      <trkpt lat="48.77162" lon="2.17794">
        <ele>178</ele>
        <time>2012-03-03T09:55:12Z</time>
      </trkpt>
      <trkpt lat="48.77151" lon="2.17793">
        <ele>178</ele>
        <time>2012-03-03T09:55:14Z</time>
      </trkpt>
      <trkpt lat="48.77119" lon="2.17792">
        <ele>178</ele>
        <time>2012-03-03T09:55:20Z</time>
      </trkpt>
      <trkpt lat="48.77088" lon="2.17793">
        <ele>178</ele>
        <time>2012-03-03T09:55:26Z</time>
      </trkpt>
      <trkpt lat="48.77082" lon="2.17793">
        <ele>177</ele>
        <time>2012-03-03T09:55:27Z</time>
      </trkpt>
      <trkpt lat="48.77048" lon="2.17794">
        <ele>177</ele>
        <time>2012-03-03T09:55:33Z</time>
      </trkpt>
      <trkpt lat="48.7702" lon="2.17794">
        <ele>176</ele>
        <time>2012-03-03T09:55:38Z</time>
      </trkpt>
      <trkpt lat="48.76991" lon="2.17796">
        <ele>173</ele>
        <time>2012-03-03T09:55:43Z</time>
      </trkpt>
      <trkpt lat="48.76949" lon="2.17798">
        <ele>173</ele>
        <time>2012-03-03T09:55:50Z</time>
      </trkpt>
      <trkpt lat="48.76916" lon="2.17799">
        <ele>169</ele>
        <time>2012-03-03T09:55:56Z</time>
      </trkpt>
      <trkpt lat="48.76876" lon="2.178">
        <ele>168</ele>
        <time>2012-03-03T09:56:03Z</time>
      </trkpt>
      <trkpt lat="48.7686" lon="2.17794">
        <ele>168</ele>
        <time>2012-03-03T09:56:07Z</time>
      </trkpt>
      <trkpt lat="48.76849" lon="2.1779">
        <ele>168</ele>
        <time>2012-03-03T09:56:10Z</time>
      </trkpt>
      <trkpt lat="48.76842" lon="2.17793">
        <ele>168</ele>
        <time>2012-03-03T09:56:12Z</time>
      </trkpt>
      <trkpt lat="48.76836" lon="2.17797">
        <ele>168</ele>
        <time>2012-03-03T09:56:14Z</time>
      </trkpt>
      <trkpt lat="48.76818" lon="2.17784">
        <ele>161</ele>
        <time>2012-03-03T09:56:18Z</time>
      </trkpt>
      <trkpt lat="48.76814" lon="2.1778">
        <ele>161</ele>
        <time>2012-03-03T09:56:19Z</time>
      </trkpt>
      <trkpt lat="48.76804" lon="2.1777">
        <ele>161</ele>
        <time>2012-03-03T09:56:21Z</time>
      </trkpt>
      <trkpt lat="48.76792" lon="2.17753">
        <ele>160</ele>
        <time>2012-03-03T09:56:24Z</time>
      </trkpt>
      <trkpt lat="48.76774" lon="2.17712">
        <ele>161</ele>
        <time>2012-03-03T09:56:30Z</time>
      </trkpt>
      <trkpt lat="48.76762" lon="2.17685">
        <ele>162</ele>
        <time>2012-03-03T09:56:34Z</time>
      </trkpt>
      <trkpt lat="48.76758" lon="2.17671">
        <ele>161</ele>
        <time>2012-03-03T09:56:36Z</time>
      </trkpt>
      <trkpt lat="48.76747" lon="2.17638">
        <ele>153</ele>
        <time>2012-03-03T09:56:41Z</time>
      </trkpt>
      <trkpt lat="48.76732" lon="2.17605">
        <ele>152</ele>
        <time>2012-03-03T09:56:46Z</time>
      </trkpt>
      <trkpt lat="48.76722" lon="2.17577">
        <ele>151</ele>
        <time>2012-03-03T09:56:50Z</time>
      </trkpt>
      <trkpt lat="48.76714" lon="2.17541">
        <ele>148</ele>
        <time>2012-03-03T09:56:55Z</time>
      </trkpt>
      <trkpt lat="48.76715" lon="2.17535">
        <ele>148</ele>
        <time>2012-03-03T09:56:56Z</time>
      </trkpt>
      <trkpt lat="48.76716" lon="2.17523">
        <ele>148</ele>
        <time>2012-03-03T09:56:58Z</time>
      </trkpt>
      <trkpt lat="48.76715" lon="2.17502">
        <ele>148</ele>
        <time>2012-03-03T09:57:02Z</time>
      </trkpt>
      <trkpt lat="48.7672" lon="2.17475">
        <ele>144</ele>
        <time>2012-03-03T09:57:06Z</time>
      </trkpt>
      <trkpt lat="48.76734" lon="2.17464">
        <ele>144</ele>
        <time>2012-03-03T09:57:09Z</time>
      </trkpt>
      <trkpt lat="48.76739" lon="2.17461">
        <ele>144</ele>
        <time>2012-03-03T09:57:10Z</time>
      </trkpt>
      <trkpt lat="48.76765" lon="2.17456">
        <ele>149</ele>
        <time>2012-03-03T09:57:15Z</time>
      </trkpt>
      <trkpt lat="48.76783" lon="2.17456">
        <ele>149</ele>
        <time>2012-03-03T09:57:19Z</time>
      </trkpt>
      <trkpt lat="48.76839" lon="2.17469">
        <ele>150</ele>
        <time>2012-03-03T09:57:28Z</time>
      </trkpt>
      <trkpt lat="48.76869" lon="2.17473">
        <ele>150</ele>
        <time>2012-03-03T09:57:33Z</time>
      </trkpt>
      <trkpt lat="48.76889" lon="2.17477">
        <ele>150</ele>
        <time>2012-03-03T09:57:37Z</time>
      </trkpt>
      <trkpt lat="48.76908" lon="2.17478">
        <ele>150</ele>
        <time>2012-03-03T09:57:41Z</time>
      </trkpt>
      <trkpt lat="48.76917" lon="2.17479">
        <ele>149</ele>
        <time>2012-03-03T09:57:43Z</time>
      </trkpt>
      <trkpt lat="48.76925" lon="2.17479">
        <ele>149</ele>
        <time>2012-03-03T09:57:45Z</time>
      </trkpt>
      <trkpt lat="48.76941" lon="2.17457">
        <ele>146</ele>
        <time>2012-03-03T09:57:50Z</time>
      </trkpt>
      <trkpt lat="48.76957" lon="2.17453">
        <ele>145</ele>
        <time>2012-03-03T09:57:53Z</time>
      </trkpt>
      <trkpt lat="48.76967" lon="2.17457">
        <ele>145</ele>
        <time>2012-03-03T09:57:56Z</time>
      </trkpt>
      <trkpt lat="48.7697" lon="2.17459">
        <ele>146</ele>
        <time>2012-03-03T09:57:57Z</time>
      </trkpt>
      <trkpt lat="48.76981" lon="2.17469">
        <ele>146</ele>
        <time>2012-03-03T09:58:02Z</time>
      </trkpt>
      <trkpt lat="48.77011" lon="2.17485">
        <ele>144</ele>
        <time>2012-03-03T09:58:09Z</time>
      </trkpt>
      <trkpt lat="48.77023" lon="2.17499">
        <ele>143</ele>
        <time>2012-03-03T09:58:13Z</time>
      </trkpt>
      <trkpt lat="48.77039" lon="2.17522">
        <ele>150</ele>
        <time>2012-03-03T09:58:19Z</time>
      </trkpt>
      <trkpt lat="48.77052" lon="2.17541">
        <ele>151</ele>
        <time>2012-03-03T09:58:24Z</time>
      </trkpt>
      <trkpt lat="48.77062" lon="2.17556">
        <ele>152</ele>
        <time>2012-03-03T09:58:28Z</time>
      </trkpt>
      <trkpt lat="48.77078" lon="2.17576">
        <ele>154</ele>
        <time>2012-03-03T09:58:34Z</time>
      </trkpt>
      <trkpt lat="48.77091" lon="2.1758">
        <ele>154</ele>
        <time>2012-03-03T09:58:38Z</time>
      </trkpt>
      <trkpt lat="48.77111" lon="2.17585">
        <ele>161</ele>
        <time>2012-03-03T09:58:44Z</time>
      </trkpt>
      <trkpt lat="48.77129" lon="2.17585">
        <ele>161</ele>
        <time>2012-03-03T09:58:49Z</time>
      </trkpt>
      <trkpt lat="48.7715" lon="2.17584">
        <ele>161</ele>
        <time>2012-03-03T09:58:55Z</time>
      </trkpt>
      <trkpt lat="48.77167" lon="2.17584">
        <ele>159</ele>
        <time>2012-03-03T09:59:00Z</time>
      </trkpt>
      <trkpt lat="48.77179" lon="2.17581">
        <ele>158</ele>
        <time>2012-03-03T09:59:04Z</time>
      </trkpt>
      <trkpt lat="48.77194" lon="2.17571">
        <ele>158</ele>
        <time>2012-03-03T09:59:09Z</time>
      </trkpt>
      <trkpt lat="48.77211" lon="2.17561">
        <ele>158</ele>
        <time>2012-03-03T09:59:15Z</time>
      </trkpt>
      <trkpt lat="48.77216" lon="2.1756">
        <ele>158</ele>
        <time>2012-03-03T09:59:17Z</time>
      </trkpt>
      <trkpt lat="48.77227" lon="2.1757">
        <ele>160</ele>
        <time>2012-03-03T09:59:23Z</time>
      </trkpt>
      <trkpt lat="48.77234" lon="2.17579">
        <ele>162</ele>
        <time>2012-03-03T09:59:29Z</time>
      </trkpt>
      <trkpt lat="48.77235" lon="2.1758">
        <ele>162</ele>
        <time>2012-03-03T09:59:30Z</time>
      </trkpt>
      <trkpt lat="48.7724" lon="2.17587">
        <ele>166</ele>
        <time>2012-03-03T09:59:35Z</time>
      </trkpt>
      <trkpt lat="48.77249" lon="2.17598">
        <ele>166</ele>
        <time>2012-03-03T09:59:43Z</time>
      </trkpt>
      <trkpt lat="48.77263" lon="2.17609">
        <ele>169</ele>
        <time>2012-03-03T09:59:51Z</time>
      </trkpt>
      <trkpt lat="48.77269" lon="2.17613">
        <ele>169</ele>
        <time>2012-03-03T09:59:54Z</time>
      </trkpt>
      <trkpt lat="48.77283" lon="2.1761">
        <ele>170</ele>
        <time>2012-03-03T09:59:59Z</time>
      </trkpt>
      <trkpt lat="48.773" lon="2.17605">
        <ele>170</ele>
        <time>2012-03-03T10:00:04Z</time>
      </trkpt>
      <trkpt lat="48.77319" lon="2.17597">
        <ele>170</ele>
        <time>2012-03-03T10:00:09Z</time>
      </trkpt>
      <trkpt lat="48.7734" lon="2.17593">
        <ele>171</ele>
        <time>2012-03-03T10:00:14Z</time>
      </trkpt>
      <trkpt lat="48.77358" lon="2.17593">
        <ele>171</ele>
        <time>2012-03-03T10:00:18Z</time>
      </trkpt>
      <trkpt lat="48.77374" lon="2.17594">
        <ele>171</ele>
        <time>2012-03-03T10:00:23Z</time>
      </trkpt>
      <trkpt lat="48.77377" lon="2.17591">
        <ele>172</ele>
        <time>2012-03-03T10:00:24Z</time>
      </trkpt>
      <trkpt lat="48.77393" lon="2.17576">
        <ele>170</ele>
        <time>2012-03-03T10:00:29Z</time>
      </trkpt>
      <trkpt lat="48.77409" lon="2.17561">
        <ele>170</ele>
        <time>2012-03-03T10:00:33Z</time>
      </trkpt>
      <trkpt lat="48.77421" lon="2.17553">
        <ele>170</ele>
        <time>2012-03-03T10:00:36Z</time>
      </trkpt>
      <trkpt lat="48.7743" lon="2.17543">
        <ele>170</ele>
        <time>2012-03-03T10:00:39Z</time>
      </trkpt>
      <trkpt lat="48.77438" lon="2.17536">
        <ele>170</ele>
        <time>2012-03-03T10:00:43Z</time>
      </trkpt>
      <trkpt lat="48.77451" lon="2.17523">
        <ele>170</ele>
        <time>2012-03-03T10:00:48Z</time>
      </trkpt>
      <trkpt lat="48.77485" lon="2.17492">
        <ele>167</ele>
        <time>2012-03-03T10:00:54Z</time>
      </trkpt>
      <trkpt lat="48.77505" lon="2.17469">
        <ele>169</ele>
        <time>2012-03-03T10:00:58Z</time>
      </trkpt>
      <trkpt lat="48.7751" lon="2.17464">
        <ele>169</ele>
        <time>2012-03-03T10:00:59Z</time>
      </trkpt>
      <trkpt lat="48.77527" lon="2.17447">
        <ele>168</ele>
        <time>2012-03-03T10:01:03Z</time>
      </trkpt>
      <trkpt lat="48.77553" lon="2.17429">
        <ele>169</ele>
        <time>2012-03-03T10:01:07Z</time>
      </trkpt>
      <trkpt lat="48.7757" lon="2.17411">
        <ele>168</ele>
        <time>2012-03-03T10:01:10Z</time>
      </trkpt>
      <trkpt lat="48.77576" lon="2.17404">
        <ele>168</ele>
        <time>2012-03-03T10:01:12Z</time>
      </trkpt>
      <trkpt lat="48.77591" lon="2.17392">
        <ele>172</ele>
        <time>2012-03-03T10:01:20Z</time>
      </trkpt>
      <trkpt lat="48.77595" lon="2.17389">
        <ele>172</ele>
        <time>2012-03-03T10:01:22Z</time>
      </trkpt>
      <trkpt lat="48.77605" lon="2.17398">
        <ele>172</ele>
        <time>2012-03-03T10:01:27Z</time>
      </trkpt>
      <trkpt lat="48.77607" lon="2.174">
        <ele>172</ele>
        <time>2012-03-03T10:01:28Z</time>
      </trkpt>
      <trkpt lat="48.77623" lon="2.17425">
        <ele>175</ele>
        <time>2012-03-03T10:01:36Z</time>
      </trkpt>
      <trkpt lat="48.77636" lon="2.17443">
        <ele>176</ele>
        <time>2012-03-03T10:01:42Z</time>
      </trkpt>
      <trkpt lat="48.77645" lon="2.1746">
        <ele>177</ele>
        <time>2012-03-03T10:01:47Z</time>
      </trkpt>
      <trkpt lat="48.77655" lon="2.17479">
        <ele>178</ele>
        <time>2012-03-03T10:01:52Z</time>
      </trkpt>
      <trkpt lat="48.7767" lon="2.17504">
        <ele>181</ele>
        <time>2012-03-03T10:01:57Z</time>
      </trkpt>
      <trkpt lat="48.77684" lon="2.1753">
        <ele>183</ele>
        <time>2012-03-03T10:02:02Z</time>
      </trkpt>
      <trkpt lat="48.77697" lon="2.1755">
        <ele>183</ele>
        <time>2012-03-03T10:02:06Z</time>
      </trkpt>
      <trkpt lat="48.7771" lon="2.1757">
        <ele>183</ele>
        <time>2012-03-03T10:02:10Z</time>
      </trkpt>
      <trkpt lat="48.77727" lon="2.17587">
        <ele>183</ele>
        <time>2012-03-03T10:02:15Z</time>
      </trkpt>
      <trkpt lat="48.77742" lon="2.17584">
        <ele>184</ele>
        <time>2012-03-03T10:02:18Z</time>
      </trkpt>
      <trkpt lat="48.77757" lon="2.17571">
        <ele>184</ele>
        <time>2012-03-03T10:02:21Z</time>
      </trkpt>
      <trkpt lat="48.77777" lon="2.17557">
        <ele>184</ele>
        <time>2012-03-03T10:02:25Z</time>
      </trkpt>
      <trkpt lat="48.77792" lon="2.1755">
        <ele>184</ele>
        <time>2012-03-03T10:02:28Z</time>
      </trkpt>
      <trkpt lat="48.77808" lon="2.17527">
        <ele>184</ele>
        <time>2012-03-03T10:02:33Z</time>
      </trkpt>
      <trkpt lat="48.77826" lon="2.17508">
        <ele>183</ele>
        <time>2012-03-03T10:02:38Z</time>
      </trkpt>
      <trkpt lat="48.77847" lon="2.17505">
        <ele>182</ele>
        <time>2012-03-03T10:02:43Z</time>
      </trkpt>
      <trkpt lat="48.77851" lon="2.17504">
        <ele>182</ele>
        <time>2012-03-03T10:02:44Z</time>
      </trkpt>
      <trkpt lat="48.77869" lon="2.17492">
        <ele>180</ele>
        <time>2012-03-03T10:02:50Z</time>
      </trkpt>
      <trkpt lat="48.77882" lon="2.17467">
        <ele>180</ele>
        <time>2012-03-03T10:02:54Z</time>
      </trkpt>
      <trkpt lat="48.77882" lon="2.17435">
        <ele>180</ele>
        <time>2012-03-03T10:02:59Z</time>
      </trkpt>
      <trkpt lat="48.77879" lon="2.17423">
        <ele>180</ele>
        <time>2012-03-03T10:03:01Z</time>
      </trkpt>
      <trkpt lat="48.77875" lon="2.17409">
        <ele>180</ele>
        <time>2012-03-03T10:03:03Z</time>
      </trkpt>
      <trkpt lat="48.77874" lon="2.17379">
        <ele>180</ele>
        <time>2012-03-03T10:03:07Z</time>
      </trkpt>
      <trkpt lat="48.77879" lon="2.17354">
        <ele>180</ele>
        <time>2012-03-03T10:03:10Z</time>
      </trkpt>
      <trkpt lat="48.77887" lon="2.17309">
        <ele>179</ele>
        <time>2012-03-03T10:03:16Z</time>
      </trkpt>
      <trkpt lat="48.7789" lon="2.17279">
        <ele>179</ele>
        <time>2012-03-03T10:03:20Z</time>
      </trkpt>
      <trkpt lat="48.77904" lon="2.17241">
        <ele>178</ele>
        <time>2012-03-03T10:03:24Z</time>
      </trkpt>
      <trkpt lat="48.77909" lon="2.17223">
        <ele>178</ele>
        <time>2012-03-03T10:03:26Z</time>
      </trkpt>
      <trkpt lat="48.77919" lon="2.17192">
        <ele>176</ele>
        <time>2012-03-03T10:03:30Z</time>
      </trkpt>
      <trkpt lat="48.77928" lon="2.17163">
        <ele>176</ele>
        <time>2012-03-03T10:03:34Z</time>
      </trkpt>
      <trkpt lat="48.77935" lon="2.17153">
        <ele>175</ele>
        <time>2012-03-03T10:03:36Z</time>
      </trkpt>
      <trkpt lat="48.77961" lon="2.17126">
        <ele>174</ele>
        <time>2012-03-03T10:03:42Z</time>
      </trkpt>
      <trkpt lat="48.77976" lon="2.17115">
        <ele>174</ele>
        <time>2012-03-03T10:03:45Z</time>
      </trkpt>
      <trkpt lat="48.77995" lon="2.171">
        <ele>173</ele>
        <time>2012-03-03T10:03:50Z</time>
      </trkpt>
      <trkpt lat="48.77997" lon="2.17097">
        <ele>173</ele>
        <time>2012-03-03T10:03:51Z</time>
      </trkpt>
      <trkpt lat="48.78012" lon="2.17068">
        <ele>173</ele>
        <time>2012-03-03T10:03:57Z</time>
      </trkpt>
      <trkpt lat="48.78016" lon="2.17062">
        <ele>173</ele>
        <time>2012-03-03T10:03:58Z</time>
      </trkpt>
      <trkpt lat="48.78031" lon="2.1702">
        <ele>173</ele>
        <time>2012-03-03T10:04:05Z</time>
      </trkpt>
      <trkpt lat="48.78035" lon="2.17009">
        <ele>173</ele>
        <time>2012-03-03T10:04:07Z</time>
      </trkpt>
      <trkpt lat="48.78039" lon="2.16977">
        <ele>174</ele>
        <time>2012-03-03T10:04:12Z</time>
      </trkpt>
      <trkpt lat="48.7804" lon="2.16956">
        <ele>174</ele>
        <time>2012-03-03T10:04:15Z</time>
      </trkpt>
      <trkpt lat="48.78032" lon="2.16927">
        <ele>174</ele>
        <time>2012-03-03T10:04:20Z</time>
      </trkpt>
      <trkpt lat="48.7802" lon="2.16905">
        <ele>175</ele>
        <time>2012-03-03T10:04:25Z</time>
      </trkpt>
      <trkpt lat="48.78019" lon="2.16887">
        <ele>175</ele>
        <time>2012-03-03T10:04:29Z</time>
      </trkpt>
      <trkpt lat="48.7802" lon="2.16867">
        <ele>176</ele>
        <time>2012-03-03T10:04:33Z</time>
      </trkpt>
      <trkpt lat="48.78019" lon="2.16862">
        <ele>176</ele>
        <time>2012-03-03T10:04:34Z</time>
      </trkpt>
      <trkpt lat="48.78006" lon="2.16839">
        <ele>178</ele>
        <time>2012-03-03T10:04:39Z</time>
      </trkpt>
      <trkpt lat="48.78" lon="2.16825">
        <ele>179</ele>
        <time>2012-03-03T10:04:41Z</time>
      </trkpt>
      <trkpt lat="48.77988" lon="2.1681">
        <ele>178</ele>
        <time>2012-03-03T10:04:44Z</time>
      </trkpt>
      <trkpt lat="48.77977" lon="2.16788">
        <ele>178</ele>
        <time>2012-03-03T10:04:48Z</time>
      </trkpt>
      <trkpt lat="48.77969" lon="2.16757">
        <ele>179</ele>
        <time>2012-03-03T10:04:52Z</time>
      </trkpt>
      <trkpt lat="48.77968" lon="2.16734">
        <ele>180</ele>
        <time>2012-03-03T10:04:56Z</time>
      </trkpt>
      <trkpt lat="48.77966" lon="2.16707">
        <ele>181</ele>
        <time>2012-03-03T10:05:01Z</time>
      </trkpt>
      <trkpt lat="48.77965" lon="2.16701">
        <ele>181</ele>
        <time>2012-03-03T10:05:02Z</time>
      </trkpt>
      <trkpt lat="48.77963" lon="2.16691">
        <ele>181</ele>
        <time>2012-03-03T10:05:04Z</time>
      </trkpt>
      <trkpt lat="48.77956" lon="2.16683">
        <ele>181</ele>
        <time>2012-03-03T10:05:08Z</time>
      </trkpt>
      <trkpt lat="48.77957" lon="2.16677">
        <ele>181</ele>
        <time>2012-03-03T10:05:11Z</time>
      </trkpt>
      <trkpt lat="48.77961" lon="2.16672">
        <ele>181</ele>
        <time>2012-03-03T10:05:16Z</time>
      </trkpt>
      <trkpt lat="48.77962" lon="2.16664">
        <ele>182</ele>
        <time>2012-03-03T10:05:21Z</time>
      </trkpt>
      <trkpt lat="48.77969" lon="2.16638">
        <ele>182</ele>
        <time>2012-03-03T10:05:27Z</time>
      </trkpt>
      <trkpt lat="48.77971" lon="2.16627">
        <ele>182</ele>
        <time>2012-03-03T10:05:29Z</time>
      </trkpt>
      <trkpt lat="48.7797" lon="2.16608">
        <ele>182</ele>
        <time>2012-03-03T10:05:33Z</time>
      </trkpt>
      <trkpt lat="48.77961" lon="2.16584">
        <ele>182</ele>
        <time>2012-03-03T10:05:39Z</time>
      </trkpt>
      <trkpt lat="48.7795" lon="2.16569">
        <ele>182</ele>
        <time>2012-03-03T10:05:44Z</time>
      </trkpt>
      <trkpt lat="48.7794" lon="2.16554">
        <ele>182</ele>
        <time>2012-03-03T10:05:48Z</time>
      </trkpt>
      <trkpt lat="48.77934" lon="2.16545">
        <ele>182</ele>
        <time>2012-03-03T10:05:51Z</time>
      </trkpt>
      <trkpt lat="48.77937" lon="2.16524">
        <ele>182</ele>
        <time>2012-03-03T10:05:55Z</time>
      </trkpt>
      <trkpt lat="48.77937" lon="2.16498">
        <ele>182</ele>
        <time>2012-03-03T10:05:59Z</time>
      </trkpt>
      <trkpt lat="48.77936" lon="2.16486">
        <ele>182</ele>
        <time>2012-03-03T10:06:01Z</time>
      </trkpt>
      <trkpt lat="48.77932" lon="2.16469">
        <ele>182</ele>
        <time>2012-03-03T10:06:04Z</time>
      </trkpt>
      <trkpt lat="48.77941" lon="2.16472">
        <ele>182</ele>
        <time>2012-03-03T10:06:08Z</time>
      </trkpt>
      <trkpt lat="48.77952" lon="2.16477">
        <ele>182</ele>
        <time>2012-03-03T10:06:11Z</time>
      </trkpt>
      <trkpt lat="48.77979" lon="2.16489">
        <ele>182</ele>
        <time>2012-03-03T10:06:17Z</time>
      </trkpt>
      <trkpt lat="48.77993" lon="2.16493">
        <ele>182</ele>
        <time>2012-03-03T10:06:20Z</time>
      </trkpt>
      <trkpt lat="48.7801" lon="2.16495">
        <ele>183</ele>
        <time>2012-03-03T10:06:23Z</time>
      </trkpt>
      <trkpt lat="48.78046" lon="2.16509">
        <ele>183</ele>
        <time>2012-03-03T10:06:30Z</time>
      </trkpt>
      <trkpt lat="48.78055" lon="2.16514">
        <ele>183</ele>
        <time>2012-03-03T10:06:32Z</time>
      </trkpt>
      <trkpt lat="48.78075" lon="2.16523">
        <ele>183</ele>
        <time>2012-03-03T10:06:37Z</time>
      </trkpt>
      <trkpt lat="48.78091" lon="2.16512">
        <ele>182</ele>
        <time>2012-03-03T10:06:41Z</time>
      </trkpt>
      <trkpt lat="48.78101" lon="2.16491">
        <ele>183</ele>
        <time>2012-03-03T10:06:45Z</time>
      </trkpt>
      <trkpt lat="48.78112" lon="2.16464">
        <ele>182</ele>
        <time>2012-03-03T10:06:50Z</time>
      </trkpt>
      <trkpt lat="48.78131" lon="2.16441">
        <ele>182</ele>
        <time>2012-03-03T10:06:56Z</time>
      </trkpt>
      <trkpt lat="48.78143" lon="2.16438">
        <ele>182</ele>
        <time>2012-03-03T10:06:59Z</time>
      </trkpt>
      <trkpt lat="48.78177" lon="2.16445">
        <ele>181</ele>
        <time>2012-03-03T10:07:07Z</time>
      </trkpt>
      <trkpt lat="48.78214" lon="2.16456">
        <ele>182</ele>
        <time>2012-03-03T10:07:16Z</time>
      </trkpt>
      <trkpt lat="48.78242" lon="2.16465">
        <ele>183</ele>
        <time>2012-03-03T10:07:22Z</time>
      </trkpt>
      <trkpt lat="48.78252" lon="2.16467">
        <ele>184</ele>
        <time>2012-03-03T10:07:24Z</time>
      </trkpt>
      <trkpt lat="48.78265" lon="2.16457">
        <ele>184</ele>
        <time>2012-03-03T10:07:28Z</time>
      </trkpt>
      <trkpt lat="48.78267" lon="2.16444">
        <ele>184</ele>
        <time>2012-03-03T10:07:30Z</time>
      </trkpt>
      <trkpt lat="48.78271" lon="2.16388">
        <ele>185</ele>
        <time>2012-03-03T10:07:37Z</time>
      </trkpt>
      <trkpt lat="48.78278" lon="2.16331">
        <ele>185</ele>
        <time>2012-03-03T10:07:44Z</time>
      </trkpt>
      <trkpt lat="48.78281" lon="2.16317">
        <ele>185</ele>
        <time>2012-03-03T10:07:46Z</time>
      </trkpt>
      <trkpt lat="48.78298" lon="2.1629">
        <ele>185</ele>
        <time>2012-03-03T10:07:51Z</time>
      </trkpt>
      <trkpt lat="48.78313" lon="2.16287">
        <ele>185</ele>
        <time>2012-03-03T10:07:55Z</time>
      </trkpt>
      <trkpt lat="48.78325" lon="2.16291">
        <ele>185</ele>
        <time>2012-03-03T10:07:58Z</time>
      </trkpt>
      <trkpt lat="48.78339" lon="2.163">
        <ele>185</ele>
        <time>2012-03-03T10:08:02Z</time>
      </trkpt>
      <trkpt lat="48.78349" lon="2.16315">
        <ele>185</ele>
        <time>2012-03-03T10:08:06Z</time>
      </trkpt>
      <trkpt lat="48.78356" lon="2.16322">
        <ele>185</ele>
        <time>2012-03-03T10:08:08Z</time>
      </trkpt>
      <trkpt lat="48.78368" lon="2.16314">
        <ele>184</ele>
        <time>2012-03-03T10:08:12Z</time>
      </trkpt>
      <trkpt lat="48.78382" lon="2.16296">
        <ele>184</ele>
        <time>2012-03-03T10:08:16Z</time>
      </trkpt>
      <trkpt lat="48.78387" lon="2.16291">
        <ele>184</ele>
        <time>2012-03-03T10:08:17Z</time>
      </trkpt>
      <trkpt lat="48.78401" lon="2.16266">
        <ele>184</ele>
        <time>2012-03-03T10:08:22Z</time>
      </trkpt>
      <trkpt lat="48.78395" lon="2.1625">
        <ele>184</ele>
        <time>2012-03-03T10:08:25Z</time>
      </trkpt>
      <trkpt lat="48.78389" lon="2.16237">
        <ele>184</ele>
        <time>2012-03-03T10:08:27Z</time>
      </trkpt>
      <trkpt lat="48.78381" lon="2.16216">
        <ele>185</ele>
        <time>2012-03-03T10:08:30Z</time>
      </trkpt>
      <trkpt lat="48.78371" lon="2.16178">
        <ele>185</ele>
        <time>2012-03-03T10:08:36Z</time>
      </trkpt>
      <trkpt lat="48.78367" lon="2.16166">
        <ele>185</ele>
        <time>2012-03-03T10:08:38Z</time>
      </trkpt>
      <trkpt lat="48.78368" lon="2.16153">
        <ele>185</ele>
        <time>2012-03-03T10:08:42Z</time>
      </trkpt>
      <trkpt lat="48.78373" lon="2.16151">
        <ele>185</ele>
        <time>2012-03-03T10:08:44Z</time>
      </trkpt>
      <trkpt lat="48.78394" lon="2.16144">
        <ele>186</ele>
        <time>2012-03-03T10:08:49Z</time>
      </trkpt>
      <trkpt lat="48.78427" lon="2.16131">
        <ele>186</ele>
        <time>2012-03-03T10:08:55Z</time>
      </trkpt>
      <trkpt lat="48.7845" lon="2.16123">
        <ele>186</ele>
        <time>2012-03-03T10:09:00Z</time>
      </trkpt>
      <trkpt lat="48.78454" lon="2.16122">
        <ele>186</ele>
        <time>2012-03-03T10:09:01Z</time>
      </trkpt>
      <trkpt lat="48.78465" lon="2.16118">
        <ele>186</ele>
        <time>2012-03-03T10:09:04Z</time>
      </trkpt>
      <trkpt lat="48.78481" lon="2.16112">
        <ele>186</ele>
        <time>2012-03-03T10:09:09Z</time>
      </trkpt>
      <trkpt lat="48.78508" lon="2.16103">
        <ele>186</ele>
        <time>2012-03-03T10:09:15Z</time>
      </trkpt>
      <trkpt lat="48.78529" lon="2.16097">
        <ele>185</ele>
        <time>2012-03-03T10:09:20Z</time>
      </trkpt>
      <trkpt lat="48.78548" lon="2.16091">
        <ele>184</ele>
        <time>2012-03-03T10:09:24Z</time>
      </trkpt>
      <trkpt lat="48.7856" lon="2.16071">
        <ele>182</ele>
        <time>2012-03-03T10:09:28Z</time>
      </trkpt>
      <trkpt lat="48.78559" lon="2.16064">
        <ele>182</ele>
        <time>2012-03-03T10:09:29Z</time>
      </trkpt>
      <trkpt lat="48.7855" lon="2.16035">
        <ele>182</ele>
        <time>2012-03-03T10:09:33Z</time>
      </trkpt>
      <trkpt lat="48.78545" lon="2.16001">
        <ele>181</ele>
        <time>2012-03-03T10:09:38Z</time>
      </trkpt>
      <trkpt lat="48.78546" lon="2.15952">
        <ele>180</ele>
        <time>2012-03-03T10:09:44Z</time>
      </trkpt>
      <trkpt lat="48.78549" lon="2.15935">
        <ele>180</ele>
        <time>2012-03-03T10:09:46Z</time>
      </trkpt>
      <trkpt lat="48.78564" lon="2.15901">
        <ele>179</ele>
        <time>2012-03-03T10:09:51Z</time>
      </trkpt>
      <trkpt lat="48.78582" lon="2.1585">
        <ele>181</ele>
        <time>2012-03-03T10:09:58Z</time>
      </trkpt>
      <trkpt lat="48.78587" lon="2.15835">
        <ele>180</ele>
        <time>2012-03-03T10:10:00Z</time>
      </trkpt>
      <trkpt lat="48.78592" lon="2.1582">
        <ele>180</ele>
        <time>2012-03-03T10:10:02Z</time>
      </trkpt>
      <trkpt lat="48.78603" lon="2.15803">
        <ele>179</ele>
        <time>2012-03-03T10:10:06Z</time>
      </trkpt>
      <trkpt lat="48.78613" lon="2.15803">
        <ele>178</ele>
        <time>2012-03-03T10:10:08Z</time>
      </trkpt>
      <trkpt lat="48.7863" lon="2.15806">
        <ele>178</ele>
        <time>2012-03-03T10:10:12Z</time>
      </trkpt>
      <trkpt lat="48.78658" lon="2.15808">
        <ele>176</ele>
        <time>2012-03-03T10:10:18Z</time>
      </trkpt>
      <trkpt lat="48.78677" lon="2.15805">
        <ele>171</ele>
        <time>2012-03-03T10:10:23Z</time>
      </trkpt>
      <trkpt lat="48.78687" lon="2.15802">
        <ele>170</ele>
        <time>2012-03-03T10:10:29Z</time>
      </trkpt>
      <trkpt lat="48.7869" lon="2.15816">
        <ele>170</ele>
        <time>2012-03-03T10:10:34Z</time>
      </trkpt>
      <trkpt lat="48.78696" lon="2.15833">
        <ele>169</ele>
        <time>2012-03-03T10:10:37Z</time>
      </trkpt>
      <trkpt lat="48.78698" lon="2.15839">
        <ele>164</ele>
        <time>2012-03-03T10:10:38Z</time>
      </trkpt>
      <trkpt lat="48.78703" lon="2.1585">
        <ele>163</ele>
        <time>2012-03-03T10:10:43Z</time>
      </trkpt>
      <trkpt lat="48.78711" lon="2.15862">
        <ele>161</ele>
        <time>2012-03-03T10:10:47Z</time>
      </trkpt>
      <trkpt lat="48.78717" lon="2.15868">
        <ele>160</ele>
        <time>2012-03-03T10:10:50Z</time>
      </trkpt>
      <trkpt lat="48.78732" lon="2.15875">
        <ele>159</ele>
        <time>2012-03-03T10:10:57Z</time>
      </trkpt>
      <trkpt lat="48.78737" lon="2.15882">
        <ele>158</ele>
        <time>2012-03-03T10:11:02Z</time>
      </trkpt>
      <trkpt lat="48.78741" lon="2.15885">
        <ele>158</ele>
        <time>2012-03-03T10:11:06Z</time>
      </trkpt>
      <trkpt lat="48.78749" lon="2.15889">
        <ele>157</ele>
        <time>2012-03-03T10:11:11Z</time>
      </trkpt>
      <trkpt lat="48.78756" lon="2.15885">
        <ele>152</ele>
        <time>2012-03-03T10:11:17Z</time>
      </trkpt>
      <trkpt lat="48.78761" lon="2.15885">
        <ele>152</ele>
        <time>2012-03-03T10:11:20Z</time>
      </trkpt>
      <trkpt lat="48.78767" lon="2.15891">
        <ele>152</ele>
        <time>2012-03-03T10:11:23Z</time>
      </trkpt>
      <trkpt lat="48.7877" lon="2.15903">
        <ele>151</ele>
        <time>2012-03-03T10:11:27Z</time>
      </trkpt>
      <trkpt lat="48.78775" lon="2.15922">
        <ele>148</ele>
        <time>2012-03-03T10:11:34Z</time>
      </trkpt>
      <trkpt lat="48.78775" lon="2.15925">
        <ele>148</ele>
        <time>2012-03-03T10:11:36Z</time>
      </trkpt>
      <trkpt lat="48.78775" lon="2.15927">
        <ele>148</ele>
        <time>2012-03-03T10:11:38Z</time>
      </trkpt>
      <trkpt lat="48.78777" lon="2.15932">
        <ele>148</ele>
        <time>2012-03-03T10:11:45Z</time>
      </trkpt>
      <trkpt lat="48.78777" lon="2.15938">
        <ele>148</ele>
        <time>2012-03-03T10:11:49Z</time>
      </trkpt>
      <trkpt lat="48.78778" lon="2.15951">
        <ele>147</ele>
        <time>2012-03-03T10:11:54Z</time>
      </trkpt>
      <trkpt lat="48.78781" lon="2.15963">
        <ele>147</ele>
        <time>2012-03-03T10:11:57Z</time>
      </trkpt>
      <trkpt lat="48.78787" lon="2.15984">
        <ele>146</ele>
        <time>2012-03-03T10:12:03Z</time>
      </trkpt>
      <trkpt lat="48.78799" lon="2.15999">
        <ele>146</ele>
        <time>2012-03-03T10:12:08Z</time>
      </trkpt>
      <trkpt lat="48.78804" lon="2.16004">
        <ele>144</ele>
        <time>2012-03-03T10:12:10Z</time>
      </trkpt>
      <trkpt lat="48.78806" lon="2.16019">
        <ele>144</ele>
        <time>2012-03-03T10:12:16Z</time>
      </trkpt>
      <trkpt lat="48.78806" lon="2.16022">
        <ele>144</ele>
        <time>2012-03-03T10:12:17Z</time>
      </trkpt>
      <trkpt lat="48.78807" lon="2.16029">
        <ele>143</ele>
        <time>2012-03-03T10:12:20Z</time>
      </trkpt>
      <trkpt lat="48.78808" lon="2.16032">
        <ele>143</ele>
        <time>2012-03-03T10:12:27Z</time>
      </trkpt>
      <trkpt lat="48.7881" lon="2.16035">
        <ele>143</ele>
        <time>2012-03-03T10:12:42Z</time>
      </trkpt>
      <trkpt lat="48.78809" lon="2.16037">
        <ele>143</ele>
        <time>2012-03-03T10:12:52Z</time>
      </trkpt>
      <trkpt lat="48.78809" lon="2.16032">
        <ele>143</ele>
        <time>2012-03-03T10:13:08Z</time>
      </trkpt>
      <trkpt lat="48.78808" lon="2.16034">
        <ele>143</ele>
        <time>2012-03-03T10:13:22Z</time>
      </trkpt>
      <trkpt lat="48.78806" lon="2.16035">
        <ele>143</ele>
        <time>2012-03-03T10:13:28Z</time>
      </trkpt>
      <trkpt lat="48.78804" lon="2.16033">
        <ele>143</ele>
        <time>2012-03-03T10:13:33Z</time>
      </trkpt>
      <trkpt lat="48.78791" lon="2.16026">
        <ele>144</ele>
        <time>2012-03-03T10:13:39Z</time>
      </trkpt>
      <trkpt lat="48.78787" lon="2.16027">
        <ele>144</ele>
        <time>2012-03-03T10:13:41Z</time>
      </trkpt>
      <trkpt lat="48.78777" lon="2.16028">
        <ele>144</ele>
        <time>2012-03-03T10:13:46Z</time>
      </trkpt>
      <trkpt lat="48.78769" lon="2.16019">
        <ele>144</ele>
        <time>2012-03-03T10:13:51Z</time>
      </trkpt>
      <trkpt lat="48.7876" lon="2.1601">
        <ele>144</ele>
        <time>2012-03-03T10:13:55Z</time>
      </trkpt>
      <trkpt lat="48.78752" lon="2.16002">
        <ele>144</ele>
        <time>2012-03-03T10:14:00Z</time>
      </trkpt>
      <trkpt lat="48.78741" lon="2.15992">
        <ele>148</ele>
        <time>2012-03-03T10:14:05Z</time>
      </trkpt>
      <trkpt lat="48.7873" lon="2.1598">
        <ele>152</ele>
        <time>2012-03-03T10:14:11Z</time>
      </trkpt>
      <trkpt lat="48.78721" lon="2.1597">
        <ele>153</ele>
        <time>2012-03-03T10:14:16Z</time>
      </trkpt>
      <trkpt lat="48.78708" lon="2.15955">
        <ele>155</ele>
        <time>2012-03-03T10:14:24Z</time>
      </trkpt>
      <trkpt lat="48.78706" lon="2.15952">
        <ele>155</ele>
        <time>2012-03-03T10:14:25Z</time>
      </trkpt>
      <trkpt lat="48.78694" lon="2.1594">
        <ele>157</ele>
        <time>2012-03-03T10:14:31Z</time>
      </trkpt>
      <trkpt lat="48.78682" lon="2.15933">
        <ele>158</ele>
        <time>2012-03-03T10:14:37Z</time>
      </trkpt>
      <trkpt lat="48.78672" lon="2.15927">
        <ele>160</ele>
        <time>2012-03-03T10:14:42Z</time>
      </trkpt>
      <trkpt lat="48.78662" lon="2.15918">
        <ele>164</ele>
        <time>2012-03-03T10:14:48Z</time>
      </trkpt>
      <trkpt lat="48.78651" lon="2.15911">
        <ele>168</ele>
        <time>2012-03-03T10:14:55Z</time>
      </trkpt>
      <trkpt lat="48.78644" lon="2.1591">
        <ele>169</ele>
        <time>2012-03-03T10:15:00Z</time>
      </trkpt>
      <trkpt lat="48.78641" lon="2.15909">
        <ele>170</ele>
        <time>2012-03-03T10:15:04Z</time>
      </trkpt>
      <trkpt lat="48.78629" lon="2.15918">
        <ele>169</ele>
        <time>2012-03-03T10:15:11Z</time>
      </trkpt>
      <trkpt lat="48.78617" lon="2.15927">
        <ele>170</ele>
        <time>2012-03-03T10:15:18Z</time>
      </trkpt>
      <trkpt lat="48.78605" lon="2.15932">
        <ele>171</ele>
        <time>2012-03-03T10:15:25Z</time>
      </trkpt>
      <trkpt lat="48.78601" lon="2.15935">
        <ele>171</ele>
        <time>2012-03-03T10:15:28Z</time>
      </trkpt>
      <trkpt lat="48.78592" lon="2.15943">
        <ele>172</ele>
        <time>2012-03-03T10:15:35Z</time>
      </trkpt>
      <trkpt lat="48.78584" lon="2.15949">
        <ele>172</ele>
        <time>2012-03-03T10:15:41Z</time>
      </trkpt>
      <trkpt lat="48.78579" lon="2.15951">
        <ele>179</ele>
        <time>2012-03-03T10:15:46Z</time>
      </trkpt>
      <trkpt lat="48.7857" lon="2.15955">
        <ele>179</ele>
        <time>2012-03-03T10:15:53Z</time>
      </trkpt>
      <trkpt lat="48.78566" lon="2.15959">
        <ele>179</ele>
        <time>2012-03-03T10:15:57Z</time>
      </trkpt>
      <trkpt lat="48.78559" lon="2.15973">
        <ele>179</ele>
        <time>2012-03-03T10:16:05Z</time>
      </trkpt>
      <trkpt lat="48.78555" lon="2.15984">
        <ele>179</ele>
        <time>2012-03-03T10:16:11Z</time>
      </trkpt>
      <trkpt lat="48.78553" lon="2.15989">
        <ele>179</ele>
        <time>2012-03-03T10:16:13Z</time>
      </trkpt>
      <trkpt lat="48.78553" lon="2.15996">
        <ele>179</ele>
        <time>2012-03-03T10:16:20Z</time>
      </trkpt>
      <trkpt lat="48.78553" lon="2.16">
        <ele>179</ele>
        <time>2012-03-03T10:16:26Z</time>
      </trkpt>
      <trkpt lat="48.78553" lon="2.16006">
        <ele>181</ele>
        <time>2012-03-03T10:16:45Z</time>
      </trkpt>
      <trkpt lat="48.78551" lon="2.16007">
        <ele>181</ele>
        <time>2012-03-03T10:17:00Z</time>
      </trkpt>
      <trkpt lat="48.78556" lon="2.16008">
        <ele>180</ele>
        <time>2012-03-03T10:17:32Z</time>
      </trkpt>
      <trkpt lat="48.7856" lon="2.1601">
        <ele>180</ele>
        <time>2012-03-03T10:17:50Z</time>
      </trkpt>
      <trkpt lat="48.78559" lon="2.16007">
        <ele>180</ele>
        <time>2012-03-03T10:18:21Z</time>
      </trkpt>
      <trkpt lat="48.78559" lon="2.16006">
        <ele>180</ele>
        <time>2012-03-03T10:18:46Z</time>
      </trkpt>
      <trkpt lat="48.78557" lon="2.16006">
        <ele>180</ele>
        <time>2012-03-03T10:19:12Z</time>
      </trkpt>
      <trkpt lat="48.78553" lon="2.16008">
        <ele>181</ele>
        <time>2012-03-03T10:19:30Z</time>
      </trkpt>
      <trkpt lat="48.7855" lon="2.16007">
        <ele>181</ele>
        <time>2012-03-03T10:19:53Z</time>
      </trkpt>
      <trkpt lat="48.78551" lon="2.16008">
        <ele>181</ele>
        <time>2012-03-03T10:20:02Z</time>
      </trkpt>
      <trkpt lat="48.78551" lon="2.16016">
        <ele>181</ele>
        <time>2012-03-03T10:20:24Z</time>
      </trkpt>
      <trkpt lat="48.78562" lon="2.16032">
        <ele>181</ele>
        <time>2012-03-03T10:20:32Z</time>
      </trkpt>
      <trkpt lat="48.78576" lon="2.16045">
        <ele>181</ele>
        <time>2012-03-03T10:20:38Z</time>
      </trkpt>
      <trkpt lat="48.78592" lon="2.16056">
        <ele>175</ele>
        <time>2012-03-03T10:20:43Z</time>
      </trkpt>
      <trkpt lat="48.78605" lon="2.1606">
        <ele>174</ele>
        <time>2012-03-03T10:20:48Z</time>
      </trkpt>
      <trkpt lat="48.78614" lon="2.16067">
        <ele>174</ele>
        <time>2012-03-03T10:20:52Z</time>
      </trkpt>
      <trkpt lat="48.78627" lon="2.16079">
        <ele>172</ele>
        <time>2012-03-03T10:20:58Z</time>
      </trkpt>
      <trkpt lat="48.78633" lon="2.16099">
        <ele>175</ele>
        <time>2012-03-03T10:21:03Z</time>
      </trkpt>
      <trkpt lat="48.78634" lon="2.16128">
        <ele>176</ele>
        <time>2012-03-03T10:21:08Z</time>
      </trkpt>
      <trkpt lat="48.78633" lon="2.16161">
        <ele>176</ele>
        <time>2012-03-03T10:21:13Z</time>
      </trkpt>
      <trkpt lat="48.78633" lon="2.16175">
        <ele>177</ele>
        <time>2012-03-03T10:21:15Z</time>
      </trkpt>
      <trkpt lat="48.78636" lon="2.1619">
        <ele>177</ele>
        <time>2012-03-03T10:21:18Z</time>
      </trkpt>
      <trkpt lat="48.78636" lon="2.16214">
        <ele>177</ele>
        <time>2012-03-03T10:21:22Z</time>
      </trkpt>
      <trkpt lat="48.78634" lon="2.16235">
        <ele>177</ele>
        <time>2012-03-03T10:21:25Z</time>
      </trkpt>
      <trkpt lat="48.78631" lon="2.1625">
        <ele>177</ele>
        <time>2012-03-03T10:21:27Z</time>
      </trkpt>
      <trkpt lat="48.7863" lon="2.16275">
        <ele>177</ele>
        <time>2012-03-03T10:21:31Z</time>
      </trkpt>
      <trkpt lat="48.78632" lon="2.16297">
        <ele>176</ele>
        <time>2012-03-03T10:21:34Z</time>
      </trkpt>
      <trkpt lat="48.78636" lon="2.16317">
        <ele>176</ele>
        <time>2012-03-03T10:21:37Z</time>
      </trkpt>
      <trkpt lat="48.78629" lon="2.16341">
        <ele>176</ele>
        <time>2012-03-03T10:21:41Z</time>
      </trkpt>
      <trkpt lat="48.78622" lon="2.16348">
        <ele>176</ele>
        <time>2012-03-03T10:21:43Z</time>
      </trkpt>
      <trkpt lat="48.78609" lon="2.16365">
        <ele>177</ele>
        <time>2012-03-03T10:21:47Z</time>
      </trkpt>
      <trkpt lat="48.78597" lon="2.16387">
        <ele>178</ele>
        <time>2012-03-03T10:21:51Z</time>
      </trkpt>
      <trkpt lat="48.78594" lon="2.16419">
        <ele>179</ele>
        <time>2012-03-03T10:21:56Z</time>
      </trkpt>
      <trkpt lat="48.78607" lon="2.1645">
        <ele>177</ele>
        <time>2012-03-03T10:22:02Z</time>
      </trkpt>
      <trkpt lat="48.78615" lon="2.16457">
        <ele>177</ele>
        <time>2012-03-03T10:22:04Z</time>
      </trkpt>
      <trkpt lat="48.78632" lon="2.16469">
        <ele>176</ele>
        <time>2012-03-03T10:22:08Z</time>
      </trkpt>
      <trkpt lat="48.7865" lon="2.16481">
        <ele>175</ele>
        <time>2012-03-03T10:22:12Z</time>
      </trkpt>
      <trkpt lat="48.78659" lon="2.1649">
        <ele>175</ele>
        <time>2012-03-03T10:22:14Z</time>
      </trkpt>
      <trkpt lat="48.78668" lon="2.16506">
        <ele>173</ele>
        <time>2012-03-03T10:22:17Z</time>
      </trkpt>
      <trkpt lat="48.78673" lon="2.1652">
        <ele>171</ele>
        <time>2012-03-03T10:22:19Z</time>
      </trkpt>
      <trkpt lat="48.7868" lon="2.16541">
        <ele>171</ele>
        <time>2012-03-03T10:22:22Z</time>
      </trkpt>
      <trkpt lat="48.78688" lon="2.16583">
        <ele>172</ele>
        <time>2012-03-03T10:22:27Z</time>
      </trkpt>
      <trkpt lat="48.78708" lon="2.16641">
        <ele>173</ele>
        <time>2012-03-03T10:22:35Z</time>
      </trkpt>
      <trkpt lat="48.78712" lon="2.16647">
        <ele>173</ele>
        <time>2012-03-03T10:22:36Z</time>
      </trkpt>
      <trkpt lat="48.78727" lon="2.16668">
        <ele>175</ele>
        <time>2012-03-03T10:22:40Z</time>
      </trkpt>
      <trkpt lat="48.78742" lon="2.1669">
        <ele>175</ele>
        <time>2012-03-03T10:22:44Z</time>
      </trkpt>
      <trkpt lat="48.78749" lon="2.16704">
        <ele>175</ele>
        <time>2012-03-03T10:22:46Z</time>
      </trkpt>
      <trkpt lat="48.78767" lon="2.16759">
        <ele>176</ele>
        <time>2012-03-03T10:22:53Z</time>
      </trkpt>
      <trkpt lat="48.78781" lon="2.16797">
        <ele>175</ele>
        <time>2012-03-03T10:22:58Z</time>
      </trkpt>
      <trkpt lat="48.78787" lon="2.16812">
        <ele>175</ele>
        <time>2012-03-03T10:23:00Z</time>
      </trkpt>
      <trkpt lat="48.78788" lon="2.16843">
        <ele>177</ele>
        <time>2012-03-03T10:23:04Z</time>
      </trkpt>
      <trkpt lat="48.78786" lon="2.16879">
        <ele>178</ele>
        <time>2012-03-03T10:23:09Z</time>
      </trkpt>
      <trkpt lat="48.78781" lon="2.16899">
        <ele>178</ele>
        <time>2012-03-03T10:23:12Z</time>
      </trkpt>
      <trkpt lat="48.78765" lon="2.16933">
        <ele>179</ele>
        <time>2012-03-03T10:23:18Z</time>
      </trkpt>
      <trkpt lat="48.78752" lon="2.16956">
        <ele>180</ele>
        <time>2012-03-03T10:23:23Z</time>
      </trkpt>
      <trkpt lat="48.78743" lon="2.16978">
        <ele>180</ele>
        <time>2012-03-03T10:23:27Z</time>
      </trkpt>
      <trkpt lat="48.78728" lon="2.17012">
        <ele>181</ele>
        <time>2012-03-03T10:23:33Z</time>
      </trkpt>
      <trkpt lat="48.78717" lon="2.1704">
        <ele>180</ele>
        <time>2012-03-03T10:23:37Z</time>
      </trkpt>
      <trkpt lat="48.78712" lon="2.17062">
        <ele>180</ele>
        <time>2012-03-03T10:23:40Z</time>
      </trkpt>
      <trkpt lat="48.78708" lon="2.1709">
        <ele>181</ele>
        <time>2012-03-03T10:23:44Z</time>
      </trkpt>
      <trkpt lat="48.78709" lon="2.17127">
        <ele>182</ele>
        <time>2012-03-03T10:23:49Z</time>
      </trkpt>
      <trkpt lat="48.78708" lon="2.17149">
        <ele>182</ele>
        <time>2012-03-03T10:23:52Z</time>
      </trkpt>
      <trkpt lat="48.78716" lon="2.17181">
        <ele>183</ele>
        <time>2012-03-03T10:23:57Z</time>
      </trkpt>
      <trkpt lat="48.78714" lon="2.172">
        <ele>183</ele>
        <time>2012-03-03T10:24:00Z</time>
      </trkpt>
      <trkpt lat="48.7871" lon="2.17213">
        <ele>183</ele>
        <time>2012-03-03T10:24:02Z</time>
      </trkpt>
      <trkpt lat="48.78699" lon="2.17242">
        <ele>182</ele>
        <time>2012-03-03T10:24:07Z</time>
      </trkpt>
      <trkpt lat="48.78704" lon="2.17255">
        <ele>182</ele>
        <time>2012-03-03T10:24:10Z</time>
      </trkpt>
      <trkpt lat="48.78724" lon="2.17282">
        <ele>183</ele>
        <time>2012-03-03T10:24:16Z</time>
      </trkpt>
      <trkpt lat="48.78731" lon="2.17297">
        <ele>183</ele>
        <time>2012-03-03T10:24:19Z</time>
      </trkpt>
      <trkpt lat="48.78736" lon="2.17306">
        <ele>183</ele>
        <time>2012-03-03T10:24:21Z</time>
      </trkpt>
      <trkpt lat="48.78745" lon="2.17321">
        <ele>183</ele>
        <time>2012-03-03T10:24:25Z</time>
      </trkpt>
      <trkpt lat="48.78751" lon="2.17325">
        <ele>184</ele>
        <time>2012-03-03T10:24:27Z</time>
      </trkpt>
      <trkpt lat="48.7877" lon="2.17326">
        <ele>185</ele>
        <time>2012-03-03T10:24:32Z</time>
      </trkpt>
      <trkpt lat="48.78778" lon="2.17328">
        <ele>185</ele>
        <time>2012-03-03T10:24:34Z</time>
      </trkpt>
      <trkpt lat="48.7878" lon="2.17355">
        <ele>182</ele>
        <time>2012-03-03T10:24:38Z</time>
      </trkpt>
      <trkpt lat="48.78787" lon="2.17388">
        <ele>182</ele>
        <time>2012-03-03T10:24:43Z</time>
      </trkpt>
      <trkpt lat="48.78796" lon="2.17403">
        <ele>181</ele>
        <time>2012-03-03T10:24:47Z</time>
      </trkpt>
      <trkpt lat="48.78806" lon="2.17405">
        <ele>181</ele>
        <time>2012-03-03T10:24:49Z</time>
      </trkpt>
      <trkpt lat="48.78831" lon="2.17408">
        <ele>181</ele>
        <time>2012-03-03T10:24:54Z</time>
      </trkpt>
      <trkpt lat="48.78858" lon="2.17422">
        <ele>181</ele>
        <time>2012-03-03T10:25:00Z</time>
      </trkpt>
      <trkpt lat="48.7887" lon="2.17444">
        <ele>181</ele>
        <time>2012-03-03T10:25:05Z</time>
      </trkpt>
      <trkpt lat="48.78868" lon="2.17464">
        <ele>181</ele>
        <time>2012-03-03T10:25:09Z</time>
      </trkpt>
      <trkpt lat="48.78876" lon="2.17475">
        <ele>181</ele>
        <time>2012-03-03T10:25:12Z</time>
      </trkpt>
      <trkpt lat="48.7891" lon="2.17497">
        <ele>180</ele>
        <time>2012-03-03T10:25:20Z</time>
      </trkpt>
      <trkpt lat="48.78924" lon="2.17503">
        <ele>180</ele>
        <time>2012-03-03T10:25:23Z</time>
      </trkpt>
      <trkpt lat="48.7894" lon="2.17515">
        <ele>179</ele>
        <time>2012-03-03T10:25:27Z</time>
      </trkpt>
      <trkpt lat="48.78947" lon="2.17522">
        <ele>179</ele>
        <time>2012-03-03T10:25:29Z</time>
      </trkpt>
      <trkpt lat="48.78953" lon="2.17542">
        <ele>179</ele>
        <time>2012-03-03T10:25:33Z</time>
      </trkpt>
      <trkpt lat="48.78947" lon="2.17563">
        <ele>178</ele>
        <time>2012-03-03T10:25:36Z</time>
      </trkpt>
      <trkpt lat="48.78942" lon="2.17576">
        <ele>178</ele>
        <time>2012-03-03T10:25:38Z</time>
      </trkpt>
      <trkpt lat="48.7893" lon="2.17614">
        <ele>176</ele>
        <time>2012-03-03T10:25:44Z</time>
      </trkpt>
      <trkpt lat="48.78917" lon="2.17658">
        <ele>175</ele>
        <time>2012-03-03T10:25:50Z</time>
      </trkpt>
      <trkpt lat="48.78904" lon="2.17696">
        <ele>175</ele>
        <time>2012-03-03T10:25:55Z</time>
      </trkpt>
      <trkpt lat="48.78888" lon="2.17747">
        <ele>176</ele>
        <time>2012-03-03T10:26:02Z</time>
      </trkpt>
      <trkpt lat="48.78875" lon="2.17781">
        <ele>176</ele>
        <time>2012-03-03T10:26:07Z</time>
      </trkpt>
      <trkpt lat="48.78872" lon="2.17793">
        <ele>176</ele>
        <time>2012-03-03T10:26:09Z</time>
      </trkpt>
      <trkpt lat="48.78851" lon="2.17847">
        <ele>175</ele>
        <time>2012-03-03T10:26:17Z</time>
      </trkpt>
      <trkpt lat="48.78842" lon="2.1787">
        <ele>174</ele>
        <time>2012-03-03T10:26:21Z</time>
      </trkpt>
      <trkpt lat="48.78834" lon="2.17903">
        <ele>174</ele>
        <time>2012-03-03T10:26:27Z</time>
      </trkpt>
      <trkpt lat="48.78835" lon="2.17924">
        <ele>173</ele>
        <time>2012-03-03T10:26:31Z</time>
      </trkpt>
      <trkpt lat="48.78833" lon="2.17952">
        <ele>174</ele>
        <time>2012-03-03T10:26:36Z</time>
      </trkpt>
      <trkpt lat="48.7882" lon="2.17975">
        <ele>175</ele>
        <time>2012-03-03T10:26:41Z</time>
      </trkpt>
      <trkpt lat="48.78815" lon="2.17986">
        <ele>175</ele>
        <time>2012-03-03T10:26:43Z</time>
      </trkpt>
      <trkpt lat="48.78811" lon="2.17996">
        <ele>175</ele>
        <time>2012-03-03T10:26:45Z</time>
      </trkpt>
      <trkpt lat="48.78808" lon="2.1801">
        <ele>176</ele>
        <time>2012-03-03T10:26:50Z</time>
      </trkpt>
      <trkpt lat="48.78808" lon="2.18012">
        <ele>176</ele>
        <time>2012-03-03T10:26:51Z</time>
      </trkpt>
      <trkpt lat="48.7882" lon="2.18022">
        <ele>176</ele>
        <time>2012-03-03T10:26:56Z</time>
      </trkpt>
      <trkpt lat="48.78836" lon="2.18021">
        <ele>176</ele>
        <time>2012-03-03T10:27:01Z</time>
      </trkpt>
      <trkpt lat="48.78852" lon="2.18025">
        <ele>176</ele>
        <time>2012-03-03T10:27:05Z</time>
      </trkpt>
      <trkpt lat="48.7887" lon="2.18033">
        <ele>177</ele>
        <time>2012-03-03T10:27:09Z</time>
      </trkpt>
      <trkpt lat="48.78902" lon="2.18053">
        <ele>177</ele>
        <time>2012-03-03T10:27:16Z</time>
      </trkpt>
      <trkpt lat="48.78907" lon="2.18055">
        <ele>177</ele>
        <time>2012-03-03T10:27:17Z</time>
      </trkpt>
      <trkpt lat="48.78942" lon="2.18078">
        <ele>175</ele>
        <time>2012-03-03T10:27:24Z</time>
      </trkpt>
      <trkpt lat="48.78965" lon="2.18096">
        <ele>177</ele>
        <time>2012-03-03T10:27:29Z</time>
      </trkpt>
      <trkpt lat="48.78983" lon="2.18111">
        <ele>176</ele>
        <time>2012-03-03T10:27:33Z</time>
      </trkpt>
      <trkpt lat="48.78999" lon="2.18128">
        <ele>177</ele>
        <time>2012-03-03T10:27:37Z</time>
      </trkpt>
      <trkpt lat="48.79009" lon="2.18145">
        <ele>175</ele>
        <time>2012-03-03T10:27:40Z</time>
      </trkpt>
      <trkpt lat="48.79022" lon="2.18172">
        <ele>178</ele>
        <time>2012-03-03T10:27:44Z</time>
      </trkpt>
      <trkpt lat="48.79044" lon="2.18204">
        <ele>179</ele>
        <time>2012-03-03T10:27:50Z</time>
      </trkpt>
      <trkpt lat="48.79066" lon="2.18233">
        <ele>179</ele>
        <time>2012-03-03T10:27:55Z</time>
      </trkpt>
      <trkpt lat="48.79078" lon="2.1825">
        <ele>179</ele>
        <time>2012-03-03T10:27:58Z</time>
      </trkpt>
      <trkpt lat="48.79092" lon="2.18272">
        <ele>179</ele>
        <time>2012-03-03T10:28:02Z</time>
      </trkpt>
      <trkpt lat="48.79109" lon="2.18284">
        <ele>179</ele>
        <time>2012-03-03T10:28:07Z</time>
      </trkpt>
      <trkpt lat="48.79118" lon="2.18263">
        <ele>179</ele>
        <time>2012-03-03T10:28:10Z</time>
      </trkpt>
      <trkpt lat="48.79136" lon="2.18208">
        <ele>178</ele>
        <time>2012-03-03T10:28:17Z</time>
      </trkpt>
      <trkpt lat="48.79144" lon="2.18169">
        <ele>178</ele>
        <time>2012-03-03T10:28:22Z</time>
      </trkpt>
      <trkpt lat="48.79151" lon="2.18141">
        <ele>174</ele>
        <time>2012-03-03T10:28:26Z</time>
      </trkpt>
      <trkpt lat="48.79166" lon="2.1812">
        <ele>173</ele>
        <time>2012-03-03T10:28:30Z</time>
      </trkpt>
      <trkpt lat="48.79178" lon="2.18106">
        <ele>172</ele>
        <time>2012-03-03T10:28:33Z</time>
      </trkpt>
      <trkpt lat="48.79189" lon="2.18081">
        <ele>166</ele>
        <time>2012-03-03T10:28:37Z</time>
      </trkpt>
      <trkpt lat="48.79211" lon="2.1806">
        <ele>164</ele>
        <time>2012-03-03T10:28:43Z</time>
      </trkpt>
      <trkpt lat="48.79216" lon="2.18058">
        <ele>164</ele>
        <time>2012-03-03T10:28:44Z</time>
      </trkpt>
      <trkpt lat="48.79226" lon="2.18049">
        <ele>163</ele>
        <time>2012-03-03T10:28:46Z</time>
      </trkpt>
      <trkpt lat="48.79244" lon="2.18023">
        <ele>159</ele>
        <time>2012-03-03T10:28:50Z</time>
      </trkpt>
      <trkpt lat="48.79263" lon="2.18008">
        <ele>155</ele>
        <time>2012-03-03T10:28:53Z</time>
      </trkpt>
      <trkpt lat="48.79284" lon="2.18008">
        <ele>155</ele>
        <time>2012-03-03T10:28:57Z</time>
      </trkpt>
      <trkpt lat="48.79302" lon="2.18022">
        <ele>155</ele>
        <time>2012-03-03T10:29:01Z</time>
      </trkpt>
      <trkpt lat="48.79316" lon="2.18043">
        <ele>157</ele>
        <time>2012-03-03T10:29:05Z</time>
      </trkpt>
      <trkpt lat="48.79326" lon="2.1806">
        <ele>158</ele>
        <time>2012-03-03T10:29:08Z</time>
      </trkpt>
      <trkpt lat="48.79346" lon="2.18072">
        <ele>153</ele>
        <time>2012-03-03T10:29:13Z</time>
      </trkpt>
      <trkpt lat="48.7937" lon="2.18085">
        <ele>153</ele>
        <time>2012-03-03T10:29:17Z</time>
      </trkpt>
      <trkpt lat="48.79401" lon="2.18106">
        <ele>150</ele>
        <time>2012-03-03T10:29:22Z</time>
      </trkpt>
      <trkpt lat="48.7942" lon="2.18139">
        <ele>140</ele>
        <time>2012-03-03T10:29:27Z</time>
      </trkpt>
      <trkpt lat="48.79443" lon="2.1816">
        <ele>140</ele>
        <time>2012-03-03T10:29:31Z</time>
      </trkpt>
      <trkpt lat="48.79478" lon="2.18183">
        <ele>135</ele>
        <time>2012-03-03T10:29:37Z</time>
      </trkpt>
      <trkpt lat="48.79487" lon="2.1819">
        <ele>135</ele>
        <time>2012-03-03T10:29:39Z</time>
      </trkpt>
      <trkpt lat="48.79493" lon="2.18198">
        <ele>135</ele>
        <time>2012-03-03T10:29:41Z</time>
      </trkpt>
      <trkpt lat="48.79508" lon="2.18211">
        <ele>126</ele>
        <time>2012-03-03T10:29:45Z</time>
      </trkpt>
      <trkpt lat="48.79541" lon="2.18209">
        <ele>124</ele>
        <time>2012-03-03T10:29:50Z</time>
      </trkpt>
      <trkpt lat="48.79548" lon="2.18208">
        <ele>123</ele>
        <time>2012-03-03T10:29:52Z</time>
      </trkpt>
      <trkpt lat="48.79552" lon="2.18216">
        <ele>123</ele>
        <time>2012-03-03T10:29:56Z</time>
      </trkpt>
      <trkpt lat="48.79549" lon="2.18218">
        <ele>123</ele>
        <time>2012-03-03T10:30:00Z</time>
      </trkpt>
      <trkpt lat="48.79548" lon="2.18217">
        <ele>123</ele>
        <time>2012-03-03T10:30:01Z</time>
      </trkpt>
      <trkpt lat="48.79545" lon="2.18214">
        <ele>123</ele>
        <time>2012-03-03T10:30:03Z</time>
      </trkpt>
      <trkpt lat="48.79535" lon="2.1821">
        <ele>124</ele>
        <time>2012-03-03T10:30:09Z</time>
      </trkpt>
      <trkpt lat="48.79513" lon="2.18211">
        <ele>126</ele>
        <time>2012-03-03T10:30:17Z</time>
      </trkpt>
      <trkpt lat="48.79498" lon="2.18216">
        <ele>134</ele>
        <time>2012-03-03T10:30:22Z</time>
      </trkpt>
      <trkpt lat="48.79483" lon="2.18219">
        <ele>135</ele>
        <time>2012-03-03T10:30:27Z</time>
      </trkpt>
      <trkpt lat="48.7947" lon="2.18221">
        <ele>135</ele>
        <time>2012-03-03T10:30:31Z</time>
      </trkpt>
      <trkpt lat="48.79453" lon="2.18224">
        <ele>136</ele>
        <time>2012-03-03T10:30:36Z</time>
      </trkpt>
      <trkpt lat="48.79441" lon="2.18224">
        <ele>137</ele>
        <time>2012-03-03T10:30:41Z</time>
      </trkpt>
      <trkpt lat="48.79438" lon="2.18222">
        <ele>137</ele>
        <time>2012-03-03T10:30:43Z</time>
      </trkpt>
      <trkpt lat="48.79422" lon="2.18235">
        <ele>138</ele>
        <time>2012-03-03T10:30:50Z</time>
      </trkpt>
      <trkpt lat="48.79407" lon="2.18254">
        <ele>142</ele>
        <time>2012-03-03T10:30:56Z</time>
      </trkpt>
      <trkpt lat="48.79403" lon="2.18259">
        <ele>143</ele>
        <time>2012-03-03T10:30:58Z</time>
      </trkpt>
      <trkpt lat="48.79397" lon="2.18269">
        <ele>145</ele>
        <time>2012-03-03T10:31:02Z</time>
      </trkpt>
      <trkpt lat="48.79388" lon="2.18291">
        <ele>146</ele>
        <time>2012-03-03T10:31:09Z</time>
      </trkpt>
      <trkpt lat="48.79372" lon="2.18323">
        <ele>147</ele>
        <time>2012-03-03T10:31:16Z</time>
      </trkpt>
      <trkpt lat="48.79367" lon="2.18342">
        <ele>146</ele>
        <time>2012-03-03T10:31:21Z</time>
      </trkpt>
      <trkpt lat="48.79364" lon="2.18364">
        <ele>145</ele>
        <time>2012-03-03T10:31:27Z</time>
      </trkpt>
      <trkpt lat="48.7936" lon="2.18382">
        <ele>145</ele>
        <time>2012-03-03T10:31:33Z</time>
      </trkpt>
      <trkpt lat="48.79356" lon="2.18397">
        <ele>145</ele>
        <time>2012-03-03T10:31:38Z</time>
      </trkpt>
      <trkpt lat="48.79354" lon="2.18405">
        <ele>146</ele>
        <time>2012-03-03T10:31:41Z</time>
      </trkpt>
      <trkpt lat="48.7935" lon="2.18425">
        <ele>144</ele>
        <time>2012-03-03T10:31:48Z</time>
      </trkpt>
      <trkpt lat="48.79342" lon="2.18451">
        <ele>142</ele>
        <time>2012-03-03T10:31:54Z</time>
      </trkpt>
      <trkpt lat="48.79333" lon="2.18485">
        <ele>146</ele>
        <time>2012-03-03T10:31:58Z</time>
      </trkpt>
      <trkpt lat="48.7932" lon="2.18533">
        <ele>143</ele>
        <time>2012-03-03T10:32:02Z</time>
      </trkpt>
      <trkpt lat="48.79307" lon="2.18589">
        <ele>139</ele>
        <time>2012-03-03T10:32:06Z</time>
      </trkpt>
      <trkpt lat="48.79289" lon="2.18658">
        <ele>138</ele>
        <time>2012-03-03T10:32:11Z</time>
      </trkpt>
      <trkpt lat="48.79282" lon="2.1869">
        <ele>135</ele>
        <time>2012-03-03T10:32:14Z</time>
      </trkpt>
      <trkpt lat="48.79279" lon="2.18701">
        <ele>135</ele>
        <time>2012-03-03T10:32:15Z</time>
      </trkpt>
      <trkpt lat="48.79267" lon="2.18759">
        <ele>135</ele>
        <time>2012-03-03T10:32:21Z</time>
      </trkpt>
      <trkpt lat="48.79262" lon="2.18786">
        <ele>135</ele>
        <time>2012-03-03T10:32:25Z</time>
      </trkpt>
      <trkpt lat="48.7926" lon="2.18798">
        <ele>135</ele>
        <time>2012-03-03T10:32:27Z</time>
      </trkpt>
      <trkpt lat="48.79255" lon="2.18821">
        <ele>138</ele>
        <time>2012-03-03T10:32:31Z</time>
      </trkpt>
      <trkpt lat="48.79249" lon="2.1885">
        <ele>143</ele>
        <time>2012-03-03T10:32:39Z</time>
      </trkpt>
      <trkpt lat="48.79247" lon="2.18858">
        <ele>143</ele>
        <time>2012-03-03T10:32:42Z</time>
      </trkpt>
      <trkpt lat="48.79242" lon="2.18874">
        <ele>143</ele>
        <time>2012-03-03T10:32:49Z</time>
      </trkpt>
      <trkpt lat="48.79237" lon="2.18889">
        <ele>143</ele>
        <time>2012-03-03T10:32:53Z</time>
      </trkpt>
      <trkpt lat="48.79229" lon="2.18916">
        <ele>142</ele>
        <time>2012-03-03T10:32:58Z</time>
      </trkpt>
      <trkpt lat="48.79222" lon="2.1894">
        <ele>140</ele>
        <time>2012-03-03T10:33:02Z</time>
      </trkpt>
      <trkpt lat="48.79215" lon="2.18968">
        <ele>140</ele>
        <time>2012-03-03T10:33:06Z</time>
      </trkpt>
      <trkpt lat="48.79202" lon="2.1902">
        <ele>136</ele>
        <time>2012-03-03T10:33:13Z</time>
      </trkpt>
      <trkpt lat="48.7919" lon="2.19072">
        <ele>135</ele>
        <time>2012-03-03T10:33:18Z</time>
      </trkpt>
      <trkpt lat="48.79173" lon="2.19145">
        <ele>130</ele>
        <time>2012-03-03T10:33:24Z</time>
      </trkpt>
      <trkpt lat="48.7916" lon="2.19206">
        <ele>129</ele>
        <time>2012-03-03T10:33:31Z</time>
      </trkpt>
      <trkpt lat="48.79154" lon="2.19223">
        <ele>129</ele>
        <time>2012-03-03T10:33:33Z</time>
      </trkpt>
      <trkpt lat="48.79154" lon="2.19256">
        <ele>128</ele>
        <time>2012-03-03T10:33:37Z</time>
      </trkpt>
      <trkpt lat="48.79156" lon="2.19263">
        <ele>128</ele>
        <time>2012-03-03T10:33:38Z</time>
      </trkpt>
      <trkpt lat="48.79179" lon="2.1931">
        <ele>128</ele>
        <time>2012-03-03T10:33:45Z</time>
      </trkpt>
      <trkpt lat="48.79197" lon="2.19351">
        <ele>130</ele>
        <time>2012-03-03T10:33:51Z</time>
      </trkpt>
      <trkpt lat="48.79217" lon="2.194">
        <ele>131</ele>
        <time>2012-03-03T10:33:58Z</time>
      </trkpt>
      <trkpt lat="48.79239" lon="2.19452">
        <ele>135</ele>
        <time>2012-03-03T10:34:06Z</time>
      </trkpt>
      <trkpt lat="48.79257" lon="2.19495">
        <ele>137</ele>
        <time>2012-03-03T10:34:13Z</time>
      </trkpt>
      <trkpt lat="48.79277" lon="2.19542">
        <ele>137</ele>
        <time>2012-03-03T10:34:21Z</time>
      </trkpt>
      <trkpt lat="48.79284" lon="2.19572">
        <ele>137</ele>
        <time>2012-03-03T10:34:27Z</time>
      </trkpt>
      <trkpt lat="48.79285" lon="2.19602">
        <ele>138</ele>
        <time>2012-03-03T10:34:32Z</time>
      </trkpt>
      <trkpt lat="48.79288" lon="2.19616">
        <ele>138</ele>
        <time>2012-03-03T10:34:35Z</time>
      </trkpt>
      <trkpt lat="48.79286" lon="2.19644">
        <ele>139</ele>
        <time>2012-03-03T10:34:40Z</time>
      </trkpt>
      <trkpt lat="48.79277" lon="2.19694">
        <ele>139</ele>
        <time>2012-03-03T10:34:47Z</time>
      </trkpt>
      <trkpt lat="48.79272" lon="2.1972">
        <ele>139</ele>
        <time>2012-03-03T10:34:50Z</time>
      </trkpt>
      <trkpt lat="48.7926" lon="2.19779">
        <ele>138</ele>
        <time>2012-03-03T10:34:57Z</time>
      </trkpt>
      <trkpt lat="48.79248" lon="2.19837">
        <ele>136</ele>
        <time>2012-03-03T10:35:04Z</time>
      </trkpt>
      <trkpt lat="48.79241" lon="2.19879">
        <ele>136</ele>
        <time>2012-03-03T10:35:09Z</time>
      </trkpt>
      <trkpt lat="48.79232" lon="2.19927">
        <ele>137</ele>
        <time>2012-03-03T10:35:15Z</time>
      </trkpt>
      <trkpt lat="48.79223" lon="2.19974">
        <ele>138</ele>
        <time>2012-03-03T10:35:21Z</time>
      </trkpt>
      <trkpt lat="48.79214" lon="2.20017">
        <ele>139</ele>
        <time>2012-03-03T10:35:27Z</time>
      </trkpt>
      <trkpt lat="48.79219" lon="2.20041">
        <ele>139</ele>
        <time>2012-03-03T10:35:32Z</time>
      </trkpt>
      <trkpt lat="48.79226" lon="2.20041">
        <ele>139</ele>
        <time>2012-03-03T10:35:34Z</time>
      </trkpt>
      <trkpt lat="48.7924" lon="2.20043">
        <ele>139</ele>
        <time>2012-03-03T10:35:37Z</time>
      </trkpt>
      <trkpt lat="48.79268" lon="2.20043">
        <ele>136</ele>
        <time>2012-03-03T10:35:42Z</time>
      </trkpt>
      <trkpt lat="48.79292" lon="2.20045">
        <ele>135</ele>
        <time>2012-03-03T10:35:46Z</time>
      </trkpt>
      <trkpt lat="48.79325" lon="2.20046">
        <ele>134</ele>
        <time>2012-03-03T10:35:51Z</time>
      </trkpt>
      <trkpt lat="48.79338" lon="2.20047">
        <ele>131</ele>
        <time>2012-03-03T10:35:53Z</time>
      </trkpt>
      <trkpt lat="48.79356" lon="2.20047">
        <ele>131</ele>
        <time>2012-03-03T10:35:56Z</time>
      </trkpt>
      <trkpt lat="48.7939" lon="2.2007">
        <ele>131</ele>
        <time>2012-03-03T10:36:01Z</time>
      </trkpt>
      <trkpt lat="48.79423" lon="2.20122">
        <ele>130</ele>
        <time>2012-03-03T10:36:08Z</time>
      </trkpt>
      <trkpt lat="48.79436" lon="2.20143">
        <ele>130</ele>
        <time>2012-03-03T10:36:11Z</time>
      </trkpt>
      <trkpt lat="48.79453" lon="2.20164">
        <ele>130</ele>
        <time>2012-03-03T10:36:15Z</time>
      </trkpt>
      <trkpt lat="48.79467" lon="2.20186">
        <ele>133</ele>
        <time>2012-03-03T10:36:20Z</time>
      </trkpt>
      <trkpt lat="48.79464" lon="2.20198">
        <ele>133</ele>
        <time>2012-03-03T10:36:23Z</time>
      </trkpt>
      <trkpt lat="48.79446" lon="2.20233">
        <ele>133</ele>
        <time>2012-03-03T10:36:31Z</time>
      </trkpt>
      <trkpt lat="48.79436" lon="2.20254">
        <ele>136</ele>
        <time>2012-03-03T10:36:36Z</time>
      </trkpt>
      <trkpt lat="48.79425" lon="2.20288">
        <ele>137</ele>
        <time>2012-03-03T10:36:43Z</time>
      </trkpt>
      <trkpt lat="48.79425" lon="2.20293">
        <ele>138</ele>
        <time>2012-03-03T10:36:44Z</time>
      </trkpt>
      <trkpt lat="48.79433" lon="2.20307">
        <ele>139</ele>
        <time>2012-03-03T10:36:49Z</time>
      </trkpt>
      <trkpt lat="48.79437" lon="2.20323">
        <ele>139</ele>
        <time>2012-03-03T10:36:53Z</time>
      </trkpt>
      <trkpt lat="48.79441" lon="2.20339">
        <ele>143</ele>
        <time>2012-03-03T10:36:58Z</time>
      </trkpt>
      <trkpt lat="48.79446" lon="2.20354">
        <ele>144</ele>
        <time>2012-03-03T10:37:03Z</time>
      </trkpt>
      <trkpt lat="48.79449" lon="2.20358">
        <ele>145</ele>
        <time>2012-03-03T10:37:05Z</time>
      </trkpt>
      <trkpt lat="48.79451" lon="2.2037">
        <ele>145</ele>
        <time>2012-03-03T10:37:10Z</time>
      </trkpt>
      <trkpt lat="48.79451" lon="2.20376">
        <ele>145</ele>
        <time>2012-03-03T10:37:12Z</time>
      </trkpt>
      <trkpt lat="48.79454" lon="2.2039">
        <ele>146</ele>
        <time>2012-03-03T10:37:18Z</time>
      </trkpt>
      <trkpt lat="48.79455" lon="2.20404">
        <ele>146</ele>
        <time>2012-03-03T10:37:24Z</time>
      </trkpt>
      <trkpt lat="48.79456" lon="2.20412">
        <ele>146</ele>
        <time>2012-03-03T10:37:28Z</time>
      </trkpt>
      <trkpt lat="48.79453" lon="2.20437">
        <ele>151</ele>
        <time>2012-03-03T10:37:35Z</time>
      </trkpt>
      <trkpt lat="48.79452" lon="2.20462">
        <ele>152</ele>
        <time>2012-03-03T10:37:41Z</time>
      </trkpt>
      <trkpt lat="48.79452" lon="2.20472">
        <ele>152</ele>
        <time>2012-03-03T10:37:44Z</time>
      </trkpt>
      <trkpt lat="48.79448" lon="2.20493">
        <ele>152</ele>
        <time>2012-03-03T10:37:51Z</time>
      </trkpt>
      <trkpt lat="48.79445" lon="2.20509">
        <ele>155</ele>
        <time>2012-03-03T10:37:57Z</time>
      </trkpt>
      <trkpt lat="48.79445" lon="2.20517">
        <ele>155</ele>
        <time>2012-03-03T10:38:01Z</time>
      </trkpt>
      <trkpt lat="48.79448" lon="2.20534">
        <ele>156</ele>
        <time>2012-03-03T10:38:09Z</time>
      </trkpt>
      <trkpt lat="48.79449" lon="2.20545">
        <ele>157</ele>
        <time>2012-03-03T10:38:14Z</time>
      </trkpt>
      <trkpt lat="48.79444" lon="2.20558">
        <ele>156</ele>
        <time>2012-03-03T10:38:20Z</time>
      </trkpt>
      <trkpt lat="48.79441" lon="2.20569">
        <ele>156</ele>
        <time>2012-03-03T10:38:23Z</time>
      </trkpt>
      <trkpt lat="48.79441" lon="2.20599">
        <ele>158</ele>
        <time>2012-03-03T10:38:28Z</time>
      </trkpt>
      <trkpt lat="48.79442" lon="2.20606">
        <ele>159</ele>
        <time>2012-03-03T10:38:29Z</time>
      </trkpt>
      <trkpt lat="48.79446" lon="2.2063">
        <ele>160</ele>
        <time>2012-03-03T10:38:35Z</time>
      </trkpt>
      <trkpt lat="48.79446" lon="2.20641">
        <ele>160</ele>
        <time>2012-03-03T10:38:39Z</time>
      </trkpt>
      <trkpt lat="48.79449" lon="2.2066">
        <ele>161</ele>
        <time>2012-03-03T10:38:46Z</time>
      </trkpt>
      <trkpt lat="48.79449" lon="2.20677">
        <ele>164</ele>
        <time>2012-03-03T10:38:52Z</time>
      </trkpt>
      <trkpt lat="48.79448" lon="2.20684">
        <ele>164</ele>
        <time>2012-03-03T10:38:54Z</time>
      </trkpt>
      <trkpt lat="48.79451" lon="2.207">
        <ele>165</ele>
        <time>2012-03-03T10:39:01Z</time>
      </trkpt>
      <trkpt lat="48.79456" lon="2.20719">
        <ele>166</ele>
        <time>2012-03-03T10:39:09Z</time>
      </trkpt>
      <trkpt lat="48.79464" lon="2.2073">
        <ele>167</ele>
        <time>2012-03-03T10:39:15Z</time>
      </trkpt>
      <trkpt lat="48.79466" lon="2.20747">
        <ele>168</ele>
        <time>2012-03-03T10:39:22Z</time>
      </trkpt>
      <trkpt lat="48.79465" lon="2.20763">
        <ele>171</ele>
        <time>2012-03-03T10:39:29Z</time>
      </trkpt>
      <trkpt lat="48.79464" lon="2.20765">
        <ele>171</ele>
        <time>2012-03-03T10:39:30Z</time>
      </trkpt>
      <trkpt lat="48.79456" lon="2.20786">
        <ele>171</ele>
        <time>2012-03-03T10:39:38Z</time>
      </trkpt>
      <trkpt lat="48.79449" lon="2.20802">
        <ele>171</ele>
        <time>2012-03-03T10:39:42Z</time>
      </trkpt>
      <trkpt lat="48.79439" lon="2.20834">
        <ele>173</ele>
        <time>2012-03-03T10:39:49Z</time>
      </trkpt>
      <trkpt lat="48.79437" lon="2.20837">
        <ele>173</ele>
        <time>2012-03-03T10:39:50Z</time>
      </trkpt>
      <trkpt lat="48.79419" lon="2.20849">
        <ele>173</ele>
        <time>2012-03-03T10:39:55Z</time>
      </trkpt>
      <trkpt lat="48.79408" lon="2.20856">
        <ele>172</ele>
        <time>2012-03-03T10:39:58Z</time>
      </trkpt>
      <trkpt lat="48.79396" lon="2.20863">
        <ele>172</ele>
        <time>2012-03-03T10:40:01Z</time>
      </trkpt>
      <trkpt lat="48.79385" lon="2.20865">
        <ele>172</ele>
        <time>2012-03-03T10:40:04Z</time>
      </trkpt>
      <trkpt lat="48.79371" lon="2.20865">
        <ele>172</ele>
        <time>2012-03-03T10:40:07Z</time>
      </trkpt>
      <trkpt lat="48.79355" lon="2.20879">
        <ele>172</ele>
        <time>2012-03-03T10:40:12Z</time>
      </trkpt>
      <trkpt lat="48.79348" lon="2.20888">
        <ele>172</ele>
        <time>2012-03-03T10:40:15Z</time>
      </trkpt>
      <trkpt lat="48.79334" lon="2.20898">
        <ele>172</ele>
        <time>2012-03-03T10:40:19Z</time>
      </trkpt>
      <trkpt lat="48.79315" lon="2.20903">
        <ele>171</ele>
        <time>2012-03-03T10:40:24Z</time>
      </trkpt>
      <trkpt lat="48.79304" lon="2.20909">
        <ele>171</ele>
        <time>2012-03-03T10:40:29Z</time>
      </trkpt>
      <trkpt lat="48.79293" lon="2.20894">
        <ele>171</ele>
        <time>2012-03-03T10:40:37Z</time>
      </trkpt>
      <trkpt lat="48.79281" lon="2.20887">
        <ele>171</ele>
        <time>2012-03-03T10:40:41Z</time>
      </trkpt>
      <trkpt lat="48.79273" lon="2.20879">
        <ele>170</ele>
        <time>2012-03-03T10:40:44Z</time>
      </trkpt>
      <trkpt lat="48.79255" lon="2.20881">
        <ele>170</ele>
        <time>2012-03-03T10:40:50Z</time>
      </trkpt>
      <trkpt lat="48.79241" lon="2.20879">
        <ele>169</ele>
        <time>2012-03-03T10:40:54Z</time>
      </trkpt>
      <trkpt lat="48.79239" lon="2.20878">
        <ele>169</ele>
        <time>2012-03-03T10:40:55Z</time>
      </trkpt>
      <trkpt lat="48.79219" lon="2.20872">
        <ele>169</ele>
        <time>2012-03-03T10:41:00Z</time>
      </trkpt>
      <trkpt lat="48.79211" lon="2.20873">
        <ele>169</ele>
        <time>2012-03-03T10:41:02Z</time>
      </trkpt>
      <trkpt lat="48.79192" lon="2.20865">
        <ele>169</ele>
        <time>2012-03-03T10:41:08Z</time>
      </trkpt>
      <trkpt lat="48.79163" lon="2.20855">
        <ele>170</ele>
        <time>2012-03-03T10:41:15Z</time>
      </trkpt>
      <trkpt lat="48.79145" lon="2.20853">
        <ele>171</ele>
        <time>2012-03-03T10:41:19Z</time>
      </trkpt>
      <trkpt lat="48.79123" lon="2.20849">
        <ele>172</ele>
        <time>2012-03-03T10:41:24Z</time>
      </trkpt>
      <trkpt lat="48.79106" lon="2.2084">
        <ele>174</ele>
        <time>2012-03-03T10:41:29Z</time>
      </trkpt>
      <trkpt lat="48.79084" lon="2.20836">
        <ele>176</ele>
        <time>2012-03-03T10:41:35Z</time>
      </trkpt>
      <trkpt lat="48.79063" lon="2.20831">
        <ele>177</ele>
        <time>2012-03-03T10:41:40Z</time>
      </trkpt>
      <trkpt lat="48.79034" lon="2.20824">
        <ele>178</ele>
        <time>2012-03-03T10:41:46Z</time>
      </trkpt>
      <trkpt lat="48.7902" lon="2.2082">
        <ele>178</ele>
        <time>2012-03-03T10:41:49Z</time>
      </trkpt>
      <trkpt lat="48.79007" lon="2.20816">
        <ele>178</ele>
        <time>2012-03-03T10:41:52Z</time>
      </trkpt>
      <trkpt lat="48.78992" lon="2.20802">
        <ele>179</ele>
        <time>2012-03-03T10:41:57Z</time>
      </trkpt>
      <trkpt lat="48.78989" lon="2.20793">
        <ele>179</ele>
        <time>2012-03-03T10:41:59Z</time>
      </trkpt>
      <trkpt lat="48.7898" lon="2.20763">
        <ele>179</ele>
        <time>2012-03-03T10:42:05Z</time>
      </trkpt>
      <trkpt lat="48.78974" lon="2.20739">
        <ele>177</ele>
        <time>2012-03-03T10:42:10Z</time>
      </trkpt>
      <trkpt lat="48.7897" lon="2.2072">
        <ele>177</ele>
        <time>2012-03-03T10:42:14Z</time>
      </trkpt>
      <trkpt lat="48.78961" lon="2.20705">
        <ele>176</ele>
        <time>2012-03-03T10:42:18Z</time>
      </trkpt>
      <trkpt lat="48.78956" lon="2.20697">
        <ele>176</ele>
        <time>2012-03-03T10:42:20Z</time>
      </trkpt>
      <trkpt lat="48.78943" lon="2.20707">
        <ele>176</ele>
        <time>2012-03-03T10:42:24Z</time>
      </trkpt>
      <trkpt lat="48.78936" lon="2.20709">
        <ele>176</ele>
        <time>2012-03-03T10:42:26Z</time>
      </trkpt>
      <trkpt lat="48.78914" lon="2.20706">
        <ele>174</ele>
        <time>2012-03-03T10:42:32Z</time>
      </trkpt>
      <trkpt lat="48.78907" lon="2.20711">
        <ele>174</ele>
        <time>2012-03-03T10:42:34Z</time>
      </trkpt>
      <trkpt lat="48.7889" lon="2.20738">
        <ele>175</ele>
        <time>2012-03-03T10:42:39Z</time>
      </trkpt>
      <trkpt lat="48.78875" lon="2.2075">
        <ele>175</ele>
        <time>2012-03-03T10:42:43Z</time>
      </trkpt>
      <trkpt lat="48.78867" lon="2.20754">
        <ele>177</ele>
        <time>2012-03-03T10:42:45Z</time>
      </trkpt>
      <trkpt lat="48.78849" lon="2.20762">
        <ele>177</ele>
        <time>2012-03-03T10:42:50Z</time>
      </trkpt>
      <trkpt lat="48.78843" lon="2.20752">
        <ele>176</ele>
        <time>2012-03-03T10:42:53Z</time>
      </trkpt>
      <trkpt lat="48.78842" lon="2.20747">
        <ele>175</ele>
        <time>2012-03-03T10:42:54Z</time>
      </trkpt>
      <trkpt lat="48.7883" lon="2.20729">
        <ele>175</ele>
        <time>2012-03-03T10:42:58Z</time>
      </trkpt>
      <trkpt lat="48.78812" lon="2.20715">
        <ele>174</ele>
        <time>2012-03-03T10:43:02Z</time>
      </trkpt>
      <trkpt lat="48.78801" lon="2.20712">
        <ele>174</ele>
        <time>2012-03-03T10:43:05Z</time>
      </trkpt>
      <trkpt lat="48.7879" lon="2.20705">
        <ele>174</ele>
        <time>2012-03-03T10:43:08Z</time>
      </trkpt>
      <trkpt lat="48.7877" lon="2.20696">
        <ele>175</ele>
        <time>2012-03-03T10:43:13Z</time>
      </trkpt>
      <trkpt lat="48.78762" lon="2.2069">
        <ele>174</ele>
        <time>2012-03-03T10:43:15Z</time>
      </trkpt>
      <trkpt lat="48.7875" lon="2.20665">
        <ele>174</ele>
        <time>2012-03-03T10:43:20Z</time>
      </trkpt>
      <trkpt lat="48.78746" lon="2.20646">
        <ele>174</ele>
        <time>2012-03-03T10:43:23Z</time>
      </trkpt>
      <trkpt lat="48.78742" lon="2.20633">
        <ele>173</ele>
        <time>2012-03-03T10:43:25Z</time>
      </trkpt>
      <trkpt lat="48.78737" lon="2.20605">
        <ele>172</ele>
        <time>2012-03-03T10:43:29Z</time>
      </trkpt>
      <trkpt lat="48.78722" lon="2.2058">
        <ele>170</ele>
        <time>2012-03-03T10:43:34Z</time>
      </trkpt>
      <trkpt lat="48.78707" lon="2.20574">
        <ele>170</ele>
        <time>2012-03-03T10:43:38Z</time>
      </trkpt>
      <trkpt lat="48.78691" lon="2.20566">
        <ele>170</ele>
        <time>2012-03-03T10:43:42Z</time>
      </trkpt>
      <trkpt lat="48.78662" lon="2.20568">
        <ele>172</ele>
        <time>2012-03-03T10:43:48Z</time>
      </trkpt>
      <trkpt lat="48.78658" lon="2.20572">
        <ele>172</ele>
        <time>2012-03-03T10:43:49Z</time>
      </trkpt>
      <trkpt lat="48.78645" lon="2.20589">
        <ele>174</ele>
        <time>2012-03-03T10:43:52Z</time>
      </trkpt>
      <trkpt lat="48.78632" lon="2.20619">
        <ele>174</ele>
        <time>2012-03-03T10:43:57Z</time>
      </trkpt>
      <trkpt lat="48.78628" lon="2.20629">
        <ele>174</ele>
        <time>2012-03-03T10:43:59Z</time>
      </trkpt>
      <trkpt lat="48.78624" lon="2.20646">
        <ele>175</ele>
        <time>2012-03-03T10:44:02Z</time>
      </trkpt>
      <trkpt lat="48.78625" lon="2.20671">
        <ele>175</ele>
        <time>2012-03-03T10:44:06Z</time>
      </trkpt>
      <trkpt lat="48.78625" lon="2.20679">
        <ele>175</ele>
        <time>2012-03-03T10:44:10Z</time>
      </trkpt>
      <trkpt lat="48.78617" lon="2.20695">
        <ele>175</ele>
        <time>2012-03-03T10:44:14Z</time>
      </trkpt>
      <trkpt lat="48.78603" lon="2.20708">
        <ele>174</ele>
        <time>2012-03-03T10:44:18Z</time>
      </trkpt>
      <trkpt lat="48.78599" lon="2.20707">
        <ele>174</ele>
        <time>2012-03-03T10:44:19Z</time>
      </trkpt>
      <trkpt lat="48.78592" lon="2.20706">
        <ele>174</ele>
        <time>2012-03-03T10:44:21Z</time>
      </trkpt>
      <trkpt lat="48.78591" lon="2.20715">
        <ele>174</ele>
        <time>2012-03-03T10:44:25Z</time>
      </trkpt>
      <trkpt lat="48.78595" lon="2.2072">
        <ele>174</ele>
        <time>2012-03-03T10:44:27Z</time>
      </trkpt>
      <trkpt lat="48.78612" lon="2.20735">
        <ele>174</ele>
        <time>2012-03-03T10:44:33Z</time>
      </trkpt>
      <trkpt lat="48.78632" lon="2.20752">
        <ele>174</ele>
        <time>2012-03-03T10:44:39Z</time>
      </trkpt>
      <trkpt lat="48.78663" lon="2.20775">
        <ele>174</ele>
        <time>2012-03-03T10:44:46Z</time>
      </trkpt>
      <trkpt lat="48.78678" lon="2.20784">
        <ele>176</ele>
        <time>2012-03-03T10:44:49Z</time>
      </trkpt>
      <trkpt lat="48.7871" lon="2.2081">
        <ele>176</ele>
        <time>2012-03-03T10:44:56Z</time>
      </trkpt>
      <trkpt lat="48.78738" lon="2.20834">
        <ele>177</ele>
        <time>2012-03-03T10:45:02Z</time>
      </trkpt>
      <trkpt lat="48.78767" lon="2.20859">
        <ele>178</ele>
        <time>2012-03-03T10:45:08Z</time>
      </trkpt>
      <trkpt lat="48.78786" lon="2.20876">
        <ele>177</ele>
        <time>2012-03-03T10:45:12Z</time>
      </trkpt>
      <trkpt lat="48.78798" lon="2.20888">
        <ele>177</ele>
        <time>2012-03-03T10:45:15Z</time>
      </trkpt>
      <trkpt lat="48.78807" lon="2.20895">
        <ele>177</ele>
        <time>2012-03-03T10:45:17Z</time>
      </trkpt>
      <trkpt lat="48.78835" lon="2.20919">
        <ele>177</ele>
        <time>2012-03-03T10:45:23Z</time>
      </trkpt>
      <trkpt lat="48.7884" lon="2.20924">
        <ele>177</ele>
        <time>2012-03-03T10:45:24Z</time>
      </trkpt>
      <trkpt lat="48.78871" lon="2.20948">
        <ele>178</ele>
        <time>2012-03-03T10:45:30Z</time>
      </trkpt>
      <trkpt lat="48.78901" lon="2.20974">
        <ele>178</ele>
        <time>2012-03-03T10:45:36Z</time>
      </trkpt>
      <trkpt lat="48.78915" lon="2.20985">
        <ele>178</ele>
        <time>2012-03-03T10:45:39Z</time>
      </trkpt>
      <trkpt lat="48.78939" lon="2.21007">
        <ele>177</ele>
        <time>2012-03-03T10:45:45Z</time>
      </trkpt>
      <trkpt lat="48.78955" lon="2.21019">
        <ele>177</ele>
        <time>2012-03-03T10:45:48Z</time>
      </trkpt>
      <trkpt lat="48.78988" lon="2.21046">
        <ele>177</ele>
        <time>2012-03-03T10:45:55Z</time>
      </trkpt>
      <trkpt lat="48.79015" lon="2.21069">
        <ele>177</ele>
        <time>2012-03-03T10:46:01Z</time>
      </trkpt>
      <trkpt lat="48.79026" lon="2.21078">
        <ele>177</ele>
        <time>2012-03-03T10:46:03Z</time>
      </trkpt>
      <trkpt lat="48.79053" lon="2.211">
        <ele>177</ele>
        <time>2012-03-03T10:46:09Z</time>
      </trkpt>
      <trkpt lat="48.79057" lon="2.21103">
        <ele>177</ele>
        <time>2012-03-03T10:46:10Z</time>
      </trkpt>
      <trkpt lat="48.79072" lon="2.21117">
        <ele>177</ele>
        <time>2012-03-03T10:46:14Z</time>
      </trkpt>
      <trkpt lat="48.79094" lon="2.21137">
        <ele>177</ele>
        <time>2012-03-03T10:46:19Z</time>
      </trkpt>
      <trkpt lat="48.79103" lon="2.21144">
        <ele>177</ele>
        <time>2012-03-03T10:46:21Z</time>
      </trkpt>
      <trkpt lat="48.79114" lon="2.21156">
        <ele>177</ele>
        <time>2012-03-03T10:46:25Z</time>
      </trkpt>
      <trkpt lat="48.79119" lon="2.21164">
        <ele>176</ele>
        <time>2012-03-03T10:46:30Z</time>
      </trkpt>
      <trkpt lat="48.79118" lon="2.21161">
        <ele>176</ele>
        <time>2012-03-03T10:46:38Z</time>
      </trkpt>
      <trkpt lat="48.79119" lon="2.21161">
        <ele>176</ele>
        <time>2012-03-03T10:46:48Z</time>
      </trkpt>
      <trkpt lat="48.79119" lon="2.21161">
        <ele>176</ele>
        <time>2012-03-03T10:46:59Z</time>
      </trkpt>
      <trkpt lat="48.7912" lon="2.21161">
        <ele>176</ele>
        <time>2012-03-03T10:47:40Z</time>
      </trkpt>
      <trkpt lat="48.79121" lon="2.21161">
        <ele>176</ele>
        <time>2012-03-03T10:47:56Z</time>
      </trkpt>
      <trkpt lat="48.79122" lon="2.2116">
        <ele>176</ele>
        <time>2012-03-03T10:48:12Z</time>
      </trkpt>
      <trkpt lat="48.79121" lon="2.21159">
        <ele>176</ele>
        <time>2012-03-03T10:48:35Z</time>
      </trkpt>
      <trkpt lat="48.79121" lon="2.21161">
        <ele>176</ele>
        <time>2012-03-03T10:48:47Z</time>
      </trkpt>
      <trkpt lat="48.79122" lon="2.21159">
        <ele>176</ele>
        <time>2012-03-03T10:48:58Z</time>
      </trkpt>
      <trkpt lat="48.79122" lon="2.21158">
        <ele>176</ele>
        <time>2012-03-03T10:49:07Z</time>
      </trkpt>
      <trkpt lat="48.79121" lon="2.21161">
        <ele>176</ele>
        <time>2012-03-03T10:49:19Z</time>
      </trkpt>
      <trkpt lat="48.79123" lon="2.21166">
        <ele>176</ele>
        <time>2012-03-03T10:49:50Z</time>
      </trkpt>
      <trkpt lat="48.79123" lon="2.21164">
        <ele>176</ele>
        <time>2012-03-03T10:50:03Z</time>
      </trkpt>
      <trkpt lat="48.79136" lon="2.21151">
        <ele>176</ele>
        <time>2012-03-03T10:50:08Z</time>
      </trkpt>
      <trkpt lat="48.79159" lon="2.21136">
        <ele>176</ele>
        <time>2012-03-03T10:50:13Z</time>
      </trkpt>
      <trkpt lat="48.79181" lon="2.21124">
        <ele>175</ele>
        <time>2012-03-03T10:50:18Z</time>
      </trkpt>
      <trkpt lat="48.7921" lon="2.21102">
        <ele>175</ele>
        <time>2012-03-03T10:50:24Z</time>
      </trkpt>
      <trkpt lat="48.79245" lon="2.21072">
        <ele>174</ele>
        <time>2012-03-03T10:50:31Z</time>
      </trkpt>
      <trkpt lat="48.79279" lon="2.21049">
        <ele>174</ele>
        <time>2012-03-03T10:50:39Z</time>
      </trkpt>
      <trkpt lat="48.79286" lon="2.21044">
        <ele>174</ele>
        <time>2012-03-03T10:50:41Z</time>
      </trkpt>
      <trkpt lat="48.79299" lon="2.21038">
        <ele>174</ele>
        <time>2012-03-03T10:50:44Z</time>
      </trkpt>
      <trkpt lat="48.79311" lon="2.2103">
        <ele>174</ele>
        <time>2012-03-03T10:50:47Z</time>
      </trkpt>
      <trkpt lat="48.79322" lon="2.21021">
        <ele>174</ele>
        <time>2012-03-03T10:50:50Z</time>
      </trkpt>
      <trkpt lat="48.79332" lon="2.21015">
        <ele>174</ele>
        <time>2012-03-03T10:50:53Z</time>
      </trkpt>
      <trkpt lat="48.7934" lon="2.21011">
        <ele>175</ele>
        <time>2012-03-03T10:50:55Z</time>
      </trkpt>
      <trkpt lat="48.79361" lon="2.20998">
        <ele>174</ele>
        <time>2012-03-03T10:51:01Z</time>
      </trkpt>
      <trkpt lat="48.7938" lon="2.20978">
        <ele>175</ele>
        <time>2012-03-03T10:51:07Z</time>
      </trkpt>
      <trkpt lat="48.79396" lon="2.2095">
        <ele>174</ele>
        <time>2012-03-03T10:51:13Z</time>
      </trkpt>
      <trkpt lat="48.79403" lon="2.20934">
        <ele>175</ele>
        <time>2012-03-03T10:51:16Z</time>
      </trkpt>
      <trkpt lat="48.79421" lon="2.20896">
        <ele>175</ele>
        <time>2012-03-03T10:51:24Z</time>
      </trkpt>
      <trkpt lat="48.79429" lon="2.20872">
        <ele>174</ele>
        <time>2012-03-03T10:51:29Z</time>
      </trkpt>
      <trkpt lat="48.79441" lon="2.20844">
        <ele>174</ele>
        <time>2012-03-03T10:51:34Z</time>
      </trkpt>
      <trkpt lat="48.79446" lon="2.20834">
        <ele>174</ele>
        <time>2012-03-03T10:51:36Z</time>
      </trkpt>
      <trkpt lat="48.79449" lon="2.20821">
        <ele>171</ele>
        <time>2012-03-03T10:51:38Z</time>
      </trkpt>
      <trkpt lat="48.79459" lon="2.20797">
        <ele>171</ele>
        <time>2012-03-03T10:51:42Z</time>
      </trkpt>
      <trkpt lat="48.79465" lon="2.20784">
        <ele>171</ele>
        <time>2012-03-03T10:51:44Z</time>
      </trkpt>
      <trkpt lat="48.7947" lon="2.20771">
        <ele>171</ele>
        <time>2012-03-03T10:51:46Z</time>
      </trkpt>
      <trkpt lat="48.79483" lon="2.20737">
        <ele>170</ele>
        <time>2012-03-03T10:51:51Z</time>
      </trkpt>
      <trkpt lat="48.79489" lon="2.20712">
        <ele>169</ele>
        <time>2012-03-03T10:51:55Z</time>
      </trkpt>
      <trkpt lat="48.79491" lon="2.20692">
        <ele>168</ele>
        <time>2012-03-03T10:51:58Z</time>
      </trkpt>
      <trkpt lat="48.79494" lon="2.20653">
        <ele>167</ele>
        <time>2012-03-03T10:52:04Z</time>
      </trkpt>
      <trkpt lat="48.79496" lon="2.20618">
        <ele>164</ele>
        <time>2012-03-03T10:52:09Z</time>
      </trkpt>
      <trkpt lat="48.79502" lon="2.2059">
        <ele>169</ele>
        <time>2012-03-03T10:52:13Z</time>
      </trkpt>
      <trkpt lat="48.79509" lon="2.20572">
        <ele>169</ele>
        <time>2012-03-03T10:52:16Z</time>
      </trkpt>
      <trkpt lat="48.79519" lon="2.20549">
        <ele>169</ele>
        <time>2012-03-03T10:52:20Z</time>
      </trkpt>
      <trkpt lat="48.79524" lon="2.2054">
        <ele>169</ele>
        <time>2012-03-03T10:52:22Z</time>
      </trkpt>
      <trkpt lat="48.79535" lon="2.20517">
        <ele>169</ele>
        <time>2012-03-03T10:52:26Z</time>
      </trkpt>
      <trkpt lat="48.79555" lon="2.20493">
        <ele>166</ele>
        <time>2012-03-03T10:52:32Z</time>
      </trkpt>
      <trkpt lat="48.79564" lon="2.20475">
        <ele>166</ele>
        <time>2012-03-03T10:52:35Z</time>
      </trkpt>
      <trkpt lat="48.79582" lon="2.20445">
        <ele>164</ele>
        <time>2012-03-03T10:52:41Z</time>
      </trkpt>
      <trkpt lat="48.79595" lon="2.20443">
        <ele>166</ele>
        <time>2012-03-03T10:52:45Z</time>
      </trkpt>
      <trkpt lat="48.79604" lon="2.20448">
        <ele>167</ele>
        <time>2012-03-03T10:52:47Z</time>
      </trkpt>
      <trkpt lat="48.79631" lon="2.20463">
        <ele>168</ele>
        <time>2012-03-03T10:52:53Z</time>
      </trkpt>
      <trkpt lat="48.79654" lon="2.20464">
        <ele>168</ele>
        <time>2012-03-03T10:52:59Z</time>
      </trkpt>
      <trkpt lat="48.79676" lon="2.20458">
        <ele>171</ele>
        <time>2012-03-03T10:53:04Z</time>
      </trkpt>
      <trkpt lat="48.7968" lon="2.20457">
        <ele>171</ele>
        <time>2012-03-03T10:53:05Z</time>
      </trkpt>
      <trkpt lat="48.79695" lon="2.2045">
        <ele>171</ele>
        <time>2012-03-03T10:53:09Z</time>
      </trkpt>
      <trkpt lat="48.79713" lon="2.20433">
        <ele>172</ele>
        <time>2012-03-03T10:53:14Z</time>
      </trkpt>
      <trkpt lat="48.79717" lon="2.20429">
        <ele>172</ele>
        <time>2012-03-03T10:53:15Z</time>
      </trkpt>
      <trkpt lat="48.7974" lon="2.20388">
        <ele>165</ele>
        <time>2012-03-03T10:53:23Z</time>
      </trkpt>
      <trkpt lat="48.79746" lon="2.20368">
        <ele>164</ele>
        <time>2012-03-03T10:53:26Z</time>
      </trkpt>
      <trkpt lat="48.79755" lon="2.2035">
        <ele>168</ele>
        <time>2012-03-03T10:53:29Z</time>
      </trkpt>
      <trkpt lat="48.7976" lon="2.20339">
        <ele>167</ele>
        <time>2012-03-03T10:53:31Z</time>
      </trkpt>
      <trkpt lat="48.79783" lon="2.20305">
        <ele>164</ele>
        <time>2012-03-03T10:53:38Z</time>
      </trkpt>
      <trkpt lat="48.79794" lon="2.20292">
        <ele>164</ele>
        <time>2012-03-03T10:53:41Z</time>
      </trkpt>
      <trkpt lat="48.79812" lon="2.20277">
        <ele>164</ele>
        <time>2012-03-03T10:53:46Z</time>
      </trkpt>
      <trkpt lat="48.79823" lon="2.20268">
        <ele>165</ele>
        <time>2012-03-03T10:53:49Z</time>
      </trkpt>
      <trkpt lat="48.79845" lon="2.20274">
        <ele>167</ele>
        <time>2012-03-03T10:53:54Z</time>
      </trkpt>
      <trkpt lat="48.79852" lon="2.20285">
        <ele>167</ele>
        <time>2012-03-03T10:53:57Z</time>
      </trkpt>
      <trkpt lat="48.79861" lon="2.20308">
        <ele>168</ele>
        <time>2012-03-03T10:54:03Z</time>
      </trkpt>
      <trkpt lat="48.7987" lon="2.20332">
        <ele>169</ele>
        <time>2012-03-03T10:54:09Z</time>
      </trkpt>
      <trkpt lat="48.79882" lon="2.2035">
        <ele>172</ele>
        <time>2012-03-03T10:54:14Z</time>
      </trkpt>
      <trkpt lat="48.79892" lon="2.20371">
        <ele>173</ele>
        <time>2012-03-03T10:54:19Z</time>
      </trkpt>
      <trkpt lat="48.79899" lon="2.20389">
        <ele>173</ele>
        <time>2012-03-03T10:54:23Z</time>
      </trkpt>
      <trkpt lat="48.79909" lon="2.20402">
        <ele>174</ele>
        <time>2012-03-03T10:54:27Z</time>
      </trkpt>
      <trkpt lat="48.79918" lon="2.20417">
        <ele>174</ele>
        <time>2012-03-03T10:54:31Z</time>
      </trkpt>
      <trkpt lat="48.79933" lon="2.20434">
        <ele>174</ele>
        <time>2012-03-03T10:54:37Z</time>
      </trkpt>
      <trkpt lat="48.79944" lon="2.20438">
        <ele>174</ele>
        <time>2012-03-03T10:54:41Z</time>
      </trkpt>
      <trkpt lat="48.7996" lon="2.20444">
        <ele>174</ele>
        <time>2012-03-03T10:54:47Z</time>
      </trkpt>
      <trkpt lat="48.79974" lon="2.20442">
        <ele>173</ele>
        <time>2012-03-03T10:54:52Z</time>
      </trkpt>
      <trkpt lat="48.79994" lon="2.20435">
        <ele>172</ele>
        <time>2012-03-03T10:54:58Z</time>
      </trkpt>
      <trkpt lat="48.80008" lon="2.20432">
        <ele>171</ele>
        <time>2012-03-03T10:55:02Z</time>
      </trkpt>
      <trkpt lat="48.80026" lon="2.20425">
        <ele>172</ele>
        <time>2012-03-03T10:55:08Z</time>
      </trkpt>
      <trkpt lat="48.80043" lon="2.20419">
        <ele>173</ele>
        <time>2012-03-03T10:55:14Z</time>
      </trkpt>
      <trkpt lat="48.8006" lon="2.20418">
        <ele>172</ele>
        <time>2012-03-03T10:55:20Z</time>
      </trkpt>
      <trkpt lat="48.80077" lon="2.20413">
        <ele>170</ele>
        <time>2012-03-03T10:55:25Z</time>
      </trkpt>
      <trkpt lat="48.80092" lon="2.20406">
        <ele>171</ele>
        <time>2012-03-03T10:55:30Z</time>
      </trkpt>
      <trkpt lat="48.80109" lon="2.20392">
        <ele>172</ele>
        <time>2012-03-03T10:55:36Z</time>
      </trkpt>
      <trkpt lat="48.8012" lon="2.20374">
        <ele>172</ele>
        <time>2012-03-03T10:55:41Z</time>
      </trkpt>
      <trkpt lat="48.8013" lon="2.20357">
        <ele>172</ele>
        <time>2012-03-03T10:55:46Z</time>
      </trkpt>
      <trkpt lat="48.80142" lon="2.20344">
        <ele>173</ele>
        <time>2012-03-03T10:55:50Z</time>
      </trkpt>
      <trkpt lat="48.80153" lon="2.20329">
        <ele>172</ele>
        <time>2012-03-03T10:55:55Z</time>
      </trkpt>
      <trkpt lat="48.80156" lon="2.20308">
        <ele>170</ele>
        <time>2012-03-03T10:56:01Z</time>
      </trkpt>
      <trkpt lat="48.80152" lon="2.20291">
        <ele>169</ele>
        <time>2012-03-03T10:56:06Z</time>
      </trkpt>
      <trkpt lat="48.80146" lon="2.20262">
        <ele>169</ele>
        <time>2012-03-03T10:56:12Z</time>
      </trkpt>
      <trkpt lat="48.80151" lon="2.20238">
        <ele>166</ele>
        <time>2012-03-03T10:56:16Z</time>
      </trkpt>
      <trkpt lat="48.80153" lon="2.20233">
        <ele>166</ele>
        <time>2012-03-03T10:56:17Z</time>
      </trkpt>
      <trkpt lat="48.80167" lon="2.20211">
        <ele>171</ele>
        <time>2012-03-03T10:56:22Z</time>
      </trkpt>
      <trkpt lat="48.8017" lon="2.20207">
        <ele>170</ele>
        <time>2012-03-03T10:56:23Z</time>
      </trkpt>
      <trkpt lat="48.80185" lon="2.20185">
        <ele>169</ele>
        <time>2012-03-03T10:56:29Z</time>
      </trkpt>
      <trkpt lat="48.80193" lon="2.20177">
        <ele>169</ele>
        <time>2012-03-03T10:56:32Z</time>
      </trkpt>
      <trkpt lat="48.80208" lon="2.20168">
        <ele>170</ele>
        <time>2012-03-03T10:56:37Z</time>
      </trkpt>
      <trkpt lat="48.8022" lon="2.20158">
        <ele>166</ele>
        <time>2012-03-03T10:56:41Z</time>
      </trkpt>
      <trkpt lat="48.80235" lon="2.20149">
        <ele>167</ele>
        <time>2012-03-03T10:56:46Z</time>
      </trkpt>
      <trkpt lat="48.80252" lon="2.20141">
        <ele>168</ele>
        <time>2012-03-03T10:56:51Z</time>
      </trkpt>
      <trkpt lat="48.8027" lon="2.20132">
        <ele>167</ele>
        <time>2012-03-03T10:56:56Z</time>
      </trkpt>
      <trkpt lat="48.8028" lon="2.20127">
        <ele>167</ele>
        <time>2012-03-03T10:56:59Z</time>
      </trkpt>
      <trkpt lat="48.80294" lon="2.20115">
        <ele>167</ele>
        <time>2012-03-03T10:57:03Z</time>
      </trkpt>
      <trkpt lat="48.80323" lon="2.20096">
        <ele>166</ele>
        <time>2012-03-03T10:57:08Z</time>
      </trkpt>
      <trkpt lat="48.80333" lon="2.20082">
        <ele>165</ele>
        <time>2012-03-03T10:57:11Z</time>
      </trkpt>
      <trkpt lat="48.80338" lon="2.20071">
        <ele>162</ele>
        <time>2012-03-03T10:57:13Z</time>
      </trkpt>
      <trkpt lat="48.80343" lon="2.20028">
        <ele>158</ele>
        <time>2012-03-03T10:57:17Z</time>
      </trkpt>
      <trkpt lat="48.80338" lon="2.20015">
        <ele>157</ele>
        <time>2012-03-03T10:57:20Z</time>
      </trkpt>
      <trkpt lat="48.8034" lon="2.19996">
        <ele>156</ele>
        <time>2012-03-03T10:57:23Z</time>
      </trkpt>
      <trkpt lat="48.80344" lon="2.19982">
        <ele>155</ele>
        <time>2012-03-03T10:57:25Z</time>
      </trkpt>
      <trkpt lat="48.80352" lon="2.19958">
        <ele>154</ele>
        <time>2012-03-03T10:57:28Z</time>
      </trkpt>
      <trkpt lat="48.80365" lon="2.19933">
        <ele>154</ele>
        <time>2012-03-03T10:57:32Z</time>
      </trkpt>
      <trkpt lat="48.80374" lon="2.199">
        <ele>151</ele>
        <time>2012-03-03T10:57:37Z</time>
      </trkpt>
      <trkpt lat="48.80374" lon="2.19893">
        <ele>151</ele>
        <time>2012-03-03T10:57:38Z</time>
      </trkpt>
      <trkpt lat="48.80373" lon="2.19876">
        <ele>150</ele>
        <time>2012-03-03T10:57:40Z</time>
      </trkpt>
      <trkpt lat="48.80371" lon="2.19857">
        <ele>150</ele>
        <time>2012-03-03T10:57:42Z</time>
      </trkpt>
      <trkpt lat="48.80361" lon="2.19817">
        <ele>145</ele>
        <time>2012-03-03T10:57:47Z</time>
      </trkpt>
      <trkpt lat="48.80355" lon="2.19805">
        <ele>145</ele>
        <time>2012-03-03T10:57:49Z</time>
      </trkpt>
      <trkpt lat="48.80348" lon="2.19793">
        <ele>145</ele>
        <time>2012-03-03T10:57:51Z</time>
      </trkpt>
      <trkpt lat="48.8033" lon="2.19769">
        <ele>140</ele>
        <time>2012-03-03T10:57:56Z</time>
      </trkpt>
      <trkpt lat="48.80322" lon="2.19743">
        <ele>139</ele>
        <time>2012-03-03T10:58:00Z</time>
      </trkpt>
      <trkpt lat="48.80301" lon="2.19709">
        <ele>137</ele>
        <time>2012-03-03T10:58:06Z</time>
      </trkpt>
      <trkpt lat="48.80292" lon="2.19705">
        <ele>137</ele>
        <time>2012-03-03T10:58:08Z</time>
      </trkpt>
      <trkpt lat="48.8027" lon="2.19704">
        <ele>136</ele>
        <time>2012-03-03T10:58:12Z</time>
      </trkpt>
      <trkpt lat="48.80252" lon="2.19712">
        <ele>136</ele>
        <time>2012-03-03T10:58:16Z</time>
      </trkpt>
      <trkpt lat="48.80227" lon="2.19716">
        <ele>133</ele>
        <time>2012-03-03T10:58:21Z</time>
      </trkpt>
      <trkpt lat="48.80217" lon="2.19717">
        <ele>133</ele>
        <time>2012-03-03T10:58:23Z</time>
      </trkpt>
      <trkpt lat="48.80206" lon="2.19716">
        <ele>133</ele>
        <time>2012-03-03T10:58:25Z</time>
      </trkpt>
      <trkpt lat="48.80182" lon="2.19706">
        <ele>133</ele>
        <time>2012-03-03T10:58:30Z</time>
      </trkpt>
      <trkpt lat="48.80167" lon="2.1969">
        <ele>132</ele>
        <time>2012-03-03T10:58:33Z</time>
      </trkpt>
      <trkpt lat="48.80137" lon="2.19673">
        <ele>129</ele>
        <time>2012-03-03T10:58:39Z</time>
      </trkpt>
      <trkpt lat="48.80109" lon="2.19649">
        <ele>128</ele>
        <time>2012-03-03T10:58:45Z</time>
      </trkpt>
      <trkpt lat="48.80093" lon="2.19619">
        <ele>128</ele>
        <time>2012-03-03T10:58:50Z</time>
      </trkpt>
      <trkpt lat="48.80078" lon="2.19587">
        <ele>124</ele>
        <time>2012-03-03T10:58:55Z</time>
      </trkpt>
      <trkpt lat="48.80063" lon="2.19552">
        <ele>121</ele>
        <time>2012-03-03T10:59:00Z</time>
      </trkpt>
      <trkpt lat="48.80045" lon="2.19515">
        <ele>120</ele>
        <time>2012-03-03T10:59:05Z</time>
      </trkpt>
      <trkpt lat="48.80022" lon="2.19468">
        <ele>119</ele>
        <time>2012-03-03T10:59:11Z</time>
      </trkpt>
      <trkpt lat="48.80013" lon="2.19428">
        <ele>118</ele>
        <time>2012-03-03T10:59:16Z</time>
      </trkpt>
      <trkpt lat="48.80004" lon="2.19405">
        <ele>117</ele>
        <time>2012-03-03T10:59:20Z</time>
      </trkpt>
      <trkpt lat="48.80006" lon="2.19391">
        <ele>118</ele>
        <time>2012-03-03T10:59:23Z</time>
      </trkpt>
      <trkpt lat="48.80006" lon="2.19373">
        <ele>118</ele>
        <time>2012-03-03T10:59:26Z</time>
      </trkpt>
      <trkpt lat="48.80006" lon="2.19351">
        <ele>117</ele>
        <time>2012-03-03T10:59:29Z</time>
      </trkpt>
      <trkpt lat="48.80011" lon="2.19326">
        <ele>115</ele>
        <time>2012-03-03T10:59:33Z</time>
      </trkpt>
      <trkpt lat="48.80013" lon="2.19315">
        <ele>116</ele>
        <time>2012-03-03T10:59:35Z</time>
      </trkpt>
      <trkpt lat="48.80017" lon="2.19281">
        <ele>116</ele>
        <time>2012-03-03T10:59:41Z</time>
      </trkpt>
      <trkpt lat="48.80019" lon="2.19267">
        <ele>116</ele>
        <time>2012-03-03T10:59:44Z</time>
      </trkpt>
      <trkpt lat="48.80019" lon="2.19239">
        <ele>115</ele>
        <time>2012-03-03T10:59:48Z</time>
      </trkpt>
      <trkpt lat="48.80024" lon="2.19201">
        <ele>115</ele>
        <time>2012-03-03T10:59:53Z</time>
      </trkpt>
      <trkpt lat="48.80026" lon="2.19185">
        <ele>115</ele>
        <time>2012-03-03T10:59:55Z</time>
      </trkpt>
      <trkpt lat="48.80026" lon="2.19159">
        <ele>113</ele>
        <time>2012-03-03T10:59:58Z</time>
      </trkpt>
      <trkpt lat="48.80028" lon="2.19138">
        <ele>113</ele>
        <time>2012-03-03T11:00:00Z</time>
      </trkpt>
      <trkpt lat="48.80027" lon="2.19097">
        <ele>112</ele>
        <time>2012-03-03T11:00:04Z</time>
      </trkpt>
      <trkpt lat="48.8003" lon="2.19068">
        <ele>110</ele>
        <time>2012-03-03T11:00:07Z</time>
      </trkpt>
      <trkpt lat="48.80038" lon="2.19025">
        <ele>111</ele>
        <time>2012-03-03T11:00:13Z</time>
      </trkpt>
      <trkpt lat="48.8004" lon="2.19012">
        <ele>110</ele>
        <time>2012-03-03T11:00:15Z</time>
      </trkpt>
      <trkpt lat="48.80042" lon="2.18993">
        <ele>108</ele>
        <time>2012-03-03T11:00:18Z</time>
      </trkpt>
      <trkpt lat="48.80045" lon="2.18971">
        <ele>107</ele>
        <time>2012-03-03T11:00:22Z</time>
      </trkpt>
      <trkpt lat="48.80046" lon="2.18952">
        <ele>107</ele>
        <time>2012-03-03T11:00:26Z</time>
      </trkpt>
      <trkpt lat="48.80055" lon="2.18931">
        <ele>107</ele>
        <time>2012-03-03T11:00:31Z</time>
      </trkpt>
      <trkpt lat="48.80059" lon="2.18909">
        <ele>104</ele>
        <time>2012-03-03T11:00:34Z</time>
      </trkpt>
      <trkpt lat="48.80062" lon="2.18838">
        <ele>100</ele>
        <time>2012-03-03T11:00:42Z</time>
      </trkpt>
      <trkpt lat="48.80066" lon="2.18763">
        <ele>98</ele>
        <time>2012-03-03T11:00:50Z</time>
      </trkpt>
      <trkpt lat="48.80066" lon="2.18737">
        <ele>98</ele>
        <time>2012-03-03T11:00:54Z</time>
      </trkpt>
      <trkpt lat="48.80067" lon="2.18729">
        <ele>98</ele>
        <time>2012-03-03T11:00:56Z</time>
      </trkpt>
      <trkpt lat="48.80069" lon="2.18715">
        <ele>98</ele>
        <time>2012-03-03T11:01:02Z</time>
      </trkpt>
      <trkpt lat="48.80069" lon="2.18715">
        <ele>98</ele>
        <time>2012-03-03T11:01:12Z</time>
      </trkpt>
      <trkpt lat="48.80071" lon="2.18708">
        <ele>98</ele>
        <time>2012-03-03T11:01:23Z</time>
      </trkpt>
      <trkpt lat="48.80079" lon="2.18683">
        <ele>98</ele>
        <time>2012-03-03T11:01:27Z</time>
      </trkpt>
      <trkpt lat="48.80099" lon="2.1861">
        <ele>100</ele>
        <time>2012-03-03T11:01:36Z</time>
      </trkpt>
      <trkpt lat="48.80105" lon="2.18585">
        <ele>100</ele>
        <time>2012-03-03T11:01:39Z</time>
      </trkpt>
      <trkpt lat="48.80109" lon="2.18554">
        <ele>102</ele>
        <time>2012-03-03T11:01:43Z</time>
      </trkpt>
      <trkpt lat="48.80108" lon="2.1853">
        <ele>102</ele>
        <time>2012-03-03T11:01:46Z</time>
      </trkpt>
      <trkpt lat="48.80098" lon="2.18474">
        <ele>104</ele>
        <time>2012-03-03T11:01:53Z</time>
      </trkpt>
      <trkpt lat="48.80087" lon="2.18396">
        <ele>106</ele>
        <time>2012-03-03T11:02:03Z</time>
      </trkpt>
      <trkpt lat="48.80075" lon="2.18322">
        <ele>107</ele>
        <time>2012-03-03T11:02:13Z</time>
      </trkpt>
      <trkpt lat="48.80067" lon="2.18263">
        <ele>108</ele>
        <time>2012-03-03T11:02:21Z</time>
      </trkpt>
      <trkpt lat="48.80062" lon="2.18211">
        <ele>109</ele>
        <time>2012-03-03T11:02:28Z</time>
      </trkpt>
      <trkpt lat="48.80055" lon="2.18157">
        <ele>109</ele>
        <time>2012-03-03T11:02:35Z</time>
      </trkpt>
      <trkpt lat="48.80054" lon="2.1815">
        <ele>109</ele>
        <time>2012-03-03T11:02:36Z</time>
      </trkpt>
      <trkpt lat="48.80045" lon="2.18123">
        <ele>109</ele>
        <time>2012-03-03T11:02:41Z</time>
      </trkpt>
      <trkpt lat="48.80045" lon="2.18102">
        <ele>109</ele>
        <time>2012-03-03T11:02:46Z</time>
      </trkpt>
      <trkpt lat="48.80051" lon="2.18072">
        <ele>109</ele>
        <time>2012-03-03T11:02:53Z</time>
      </trkpt>
      <trkpt lat="48.80057" lon="2.18041">
        <ele>109</ele>
        <time>2012-03-03T11:02:59Z</time>
      </trkpt>
      <trkpt lat="48.80066" lon="2.18">
        <ele>108</ele>
        <time>2012-03-03T11:03:06Z</time>
      </trkpt>
      <trkpt lat="48.80076" lon="2.17976">
        <ele>108</ele>
        <time>2012-03-03T11:03:12Z</time>
      </trkpt>
      <trkpt lat="48.80088" lon="2.17948">
        <ele>106</ele>
        <time>2012-03-03T11:03:20Z</time>
      </trkpt>
      <trkpt lat="48.80124" lon="2.17961">
        <ele>105</ele>
        <time>2012-03-03T11:03:25Z</time>
      </trkpt>
      <trkpt lat="48.8014" lon="2.17955">
        <ele>105</ele>
        <time>2012-03-03T11:03:30Z</time>
      </trkpt>
      <trkpt lat="48.8014" lon="2.17948">
        <ele>105</ele>
        <time>2012-03-03T11:03:33Z</time>
      </trkpt>
      <trkpt lat="48.80136" lon="2.17907">
        <ele>105</ele>
        <time>2012-03-03T11:03:40Z</time>
      </trkpt>
      <trkpt lat="48.80141" lon="2.17888">
        <ele>105</ele>
        <time>2012-03-03T11:03:44Z</time>
      </trkpt>
      <trkpt lat="48.80157" lon="2.17881">
        <ele>105</ele>
        <time>2012-03-03T11:03:48Z</time>
      </trkpt>
      <trkpt lat="48.80191" lon="2.1787">
        <ele>102</ele>
        <time>2012-03-03T11:03:56Z</time>
      </trkpt>
      <trkpt lat="48.80229" lon="2.17857">
        <ele>101</ele>
        <time>2012-03-03T11:04:05Z</time>
      </trkpt>
      <trkpt lat="48.8026" lon="2.17847">
        <ele>99</ele>
        <time>2012-03-03T11:04:12Z</time>
      </trkpt>
      <trkpt lat="48.80302" lon="2.17832">
        <ele>98</ele>
        <time>2012-03-03T11:04:20Z</time>
      </trkpt>
      <trkpt lat="48.80333" lon="2.1782">
        <ele>97</ele>
        <time>2012-03-03T11:04:26Z</time>
      </trkpt>
      <trkpt lat="48.80348" lon="2.17816">
        <ele>97</ele>
        <time>2012-03-03T11:04:29Z</time>
      </trkpt>
      <trkpt lat="48.80361" lon="2.17802">
        <ele>97</ele>
        <time>2012-03-03T11:04:33Z</time>
      </trkpt>
      <trkpt lat="48.80363" lon="2.17795">
        <ele>97</ele>
        <time>2012-03-03T11:04:34Z</time>
      </trkpt>
      <trkpt lat="48.80368" lon="2.17781">
        <ele>97</ele>
        <time>2012-03-03T11:04:36Z</time>
      </trkpt>
      <trkpt lat="48.80396" lon="2.17713">
        <ele>98</ele>
        <time>2012-03-03T11:04:46Z</time>
      </trkpt>
      <trkpt lat="48.80398" lon="2.17708">
        <ele>98</ele>
        <time>2012-03-03T11:04:47Z</time>
      </trkpt>
      <trkpt lat="48.80402" lon="2.17702">
        <ele>98</ele>
        <time>2012-03-03T11:04:49Z</time>
      </trkpt>
      <trkpt lat="48.80408" lon="2.17694">
        <ele>98</ele>
        <time>2012-03-03T11:04:55Z</time>
      </trkpt>
      <trkpt lat="48.80408" lon="2.17692">
        <ele>98</ele>
        <time>2012-03-03T11:05:05Z</time>
      </trkpt>
      <trkpt lat="48.80414" lon="2.17687">
        <ele>98</ele>
        <time>2012-03-03T11:05:26Z</time>
      </trkpt>
      <trkpt lat="48.80422" lon="2.1768">
        <ele>99</ele>
        <time>2012-03-03T11:05:29Z</time>
      </trkpt>
      <trkpt lat="48.80422" lon="2.17667">
        <ele>99</ele>
        <time>2012-03-03T11:05:34Z</time>
      </trkpt>
      <trkpt lat="48.8042" lon="2.17646">
        <ele>100</ele>
        <time>2012-03-03T11:05:38Z</time>
      </trkpt>
      <trkpt lat="48.80416" lon="2.17602">
        <ele>99</ele>
        <time>2012-03-03T11:05:46Z</time>
      </trkpt>
      <trkpt lat="48.80424" lon="2.17596">
        <ele>99</ele>
        <time>2012-03-03T11:05:49Z</time>
      </trkpt>
      <trkpt lat="48.80457" lon="2.17596">
        <ele>101</ele>
        <time>2012-03-03T11:05:56Z</time>
      </trkpt>
      <trkpt lat="48.80468" lon="2.17596">
        <ele>102</ele>
        <time>2012-03-03T11:05:59Z</time>
      </trkpt>
      <trkpt lat="48.80476" lon="2.1758">
        <ele>103</ele>
        <time>2012-03-03T11:06:03Z</time>
      </trkpt>
      <trkpt lat="48.80478" lon="2.17524">
        <ele>102</ele>
        <time>2012-03-03T11:06:11Z</time>
      </trkpt>
      <trkpt lat="48.80479" lon="2.17476">
        <ele>103</ele>
        <time>2012-03-03T11:06:18Z</time>
      </trkpt>
      <trkpt lat="48.8048" lon="2.17423">
        <ele>103</ele>
        <time>2012-03-03T11:06:26Z</time>
      </trkpt>
      <trkpt lat="48.80481" lon="2.17373">
        <ele>103</ele>
        <time>2012-03-03T11:06:34Z</time>
      </trkpt>
      <trkpt lat="48.80482" lon="2.17323">
        <ele>104</ele>
        <time>2012-03-03T11:06:41Z</time>
      </trkpt>
      <trkpt lat="48.80482" lon="2.17285">
        <ele>104</ele>
        <time>2012-03-03T11:06:48Z</time>
      </trkpt>
      <trkpt lat="48.80481" lon="2.17259">
        <ele>104</ele>
        <time>2012-03-03T11:06:53Z</time>
      </trkpt>
      <trkpt lat="48.80481" lon="2.17232">
        <ele>103</ele>
        <time>2012-03-03T11:06:57Z</time>
      </trkpt>
      <trkpt lat="48.80487" lon="2.17218">
        <ele>103</ele>
        <time>2012-03-03T11:07:00Z</time>
      </trkpt>
      <trkpt lat="48.80498" lon="2.17212">
        <ele>103</ele>
        <time>2012-03-03T11:07:03Z</time>
      </trkpt>
      <trkpt lat="48.80521" lon="2.17209">
        <ele>106</ele>
        <time>2012-03-03T11:07:09Z</time>
      </trkpt>
      <trkpt lat="48.8055" lon="2.17207">
        <ele>108</ele>
        <time>2012-03-03T11:07:17Z</time>
      </trkpt>
      <trkpt lat="48.80565" lon="2.17209">
        <ele>108</ele>
        <time>2012-03-03T11:07:20Z</time>
      </trkpt>
      <trkpt lat="48.80569" lon="2.17225">
        <ele>109</ele>
        <time>2012-03-03T11:07:24Z</time>
      </trkpt>
      <trkpt lat="48.80567" lon="2.1727">
        <ele>111</ele>
        <time>2012-03-03T11:07:32Z</time>
      </trkpt>
      <trkpt lat="48.80568" lon="2.17299">
        <ele>111</ele>
        <time>2012-03-03T11:07:38Z</time>
      </trkpt>
      <trkpt lat="48.80568" lon="2.17303">
        <ele>111</ele>
        <time>2012-03-03T11:07:39Z</time>
      </trkpt>
      <trkpt lat="48.80574" lon="2.17317">
        <ele>112</ele>
        <time>2012-03-03T11:07:44Z</time>
      </trkpt>
      <trkpt lat="48.80582" lon="2.17322">
        <ele>112</ele>
        <time>2012-03-03T11:07:48Z</time>
      </trkpt>
      <trkpt lat="48.80608" lon="2.17325">
        <ele>115</ele>
        <time>2012-03-03T11:07:57Z</time>
      </trkpt>
      <trkpt lat="48.80626" lon="2.1733">
        <ele>116</ele>
        <time>2012-03-03T11:08:03Z</time>
      </trkpt>
      <trkpt lat="48.80642" lon="2.17334">
        <ele>117</ele>
        <time>2012-03-03T11:08:08Z</time>
      </trkpt>
      <trkpt lat="48.80662" lon="2.1734">
        <ele>118</ele>
        <time>2012-03-03T11:08:15Z</time>
      </trkpt>
      <trkpt lat="48.8067" lon="2.17342">
        <ele>119</ele>
        <time>2012-03-03T11:08:20Z</time>
      </trkpt>
      <trkpt lat="48.80675" lon="2.17346">
        <ele>120</ele>
        <time>2012-03-03T11:08:24Z</time>
      </trkpt>
      <trkpt lat="48.80674" lon="2.17357">
        <ele>121</ele>
        <time>2012-03-03T11:08:27Z</time>
      </trkpt>
      <trkpt lat="48.80667" lon="2.17389">
        <ele>122</ele>
        <time>2012-03-03T11:08:33Z</time>
      </trkpt>
      <trkpt lat="48.80661" lon="2.17426">
        <ele>121</ele>
        <time>2012-03-03T11:08:39Z</time>
      </trkpt>
      <trkpt lat="48.80659" lon="2.17431">
        <ele>121</ele>
        <time>2012-03-03T11:08:40Z</time>
      </trkpt>
      <trkpt lat="48.80657" lon="2.17443">
        <ele>121</ele>
        <time>2012-03-03T11:08:45Z</time>
      </trkpt>
      <trkpt lat="48.80657" lon="2.17455">
        <ele>121</ele>
        <time>2012-03-03T11:08:58Z</time>
      </trkpt>
    </trkseg>
  </trk>
</gpx>